     2              OBSERVATION DATA    GPS                 RINEX VERSION / TYPE
teqc 1997Jun30 19970702                                     PGM / RUN BY / DATE
                                                            COMMENT
Original Marker Name: AGAL                                  COMMENT
Campaign Name: HMC San Gabriel Valley 1993-1996             COMMENT
4-Character Station Name: AGAL                              COMMENT
6-Character Antenna Code: DMRCHT                            COMMENT
Vertical Measurement Point: BCR                             COMMENT
Vertical Offset to Rinex Ref. Point: 0.0349                 COMMENT
Radial Measurement Point: ECF                               COMMENT
Radial Offset to Rinex Ref. Point: 0.1896                   COMMENT
Antenna Height from Field Measurement: 1.2485 m             COMMENT
Additional Antenna Identification Info.:                    COMMENT
Turborogue and Ashtech Choke Ring                           COMMENT
Original XYZ: -2448117.2583 -4681832.3529 3562698.1521      COMMENT
New XYZ position is based on association with SCEC monument COMMENT
E1D0R4J3+0011. Position of that monument is believed to be  COMMENT
valid to within 1 m horizontally; vertical accuracy         COMMENT
should be no worse than 3-times this value.                 COMMENT
                                                            COMMENT
Revised Rinex header created by UCSD GPS archive for        COMMENT
GSAC on 13-Apr-1999 (1999:103) 22:15:38 GMT                 COMMENT
For assistance contact dagnew@ucsd.edu or hjohnson@ucsd.edu COMMENT
                                                            COMMENT
ANGALLS                                                     MARKER NAME
WRP HARVEY MUDD COLLEGE                                     OBSERVER / AGENCY
262 TURBOROGUE SNR-8000 3.2                                 REC # / TYPE / VERS
260 DORNE-MARGOL. TYPE T                                    ANT # / TYPE
 -2448097.0000 -4681830.0000  3562701.0000                  APPROX POSITION XYZ
        1.1991        0.0000        0.0000                  ANTENNA: DELTA H/E/N
     1     1     0                                          WAVELENGTH FACT L1/2
     5    L1    L2    C1    P2    P1                        # / TYPES OF OBSERV
     0                                                      INTERVAL
  1995     6    15     0     0    0.000000                  TIME OF FIRST OBS
  1995     6    15    16    30    0.000000                  TIME OF LAST OBS
     0                                                      # OF SATELLITES
                                                            END OF HEADER
 95  6 15  0  0  0.0000000  0  7G17G23G 5G26G 6G20G16
 -22753310.43744 -17729829.09444  21196792.0784   21196793.8234
 -14256489.62044 -11108924.52244  22503954.8444   22503958.0884
   4425456.97144                  25463631.6304
 -12655500.66244  -9861401.13244  22691092.7664   22691094.2864
 -27927917.78544 -21762000.82544  20190150.1374   20190150.8354
  -6121335.83844  -4769870.79944  22854781.6784   22854785.4444
 -10884180.19044  -8481149.80844  23229705.3014   23229707.8454
 95  6 15  0  0 30.0000000  0  7G17G23G 5G26G 6G20G16
 -22789245.80044 -17757830.64944  21189953.8134   21189955.6224
 -14341382.61644 -11175074.83444  22487800.4124   22487803.5684
   4531059.05544                  25483727.3334
 -12709995.44644  -9903864.53944  22680722.2944   22680723.6054
 -27925819.68744 -21760365.95044  20190549.4144   20190549.9954
  -6022788.44744  -4693080.71244  22873534.3454   22873537.9984
 -10790592.98344  -8408224.74744  23247513.9474   23247516.7744
 95  6 15  0  1  0.0000000  0  7G17G23G 5G26G 6G20G16
 -22825008.15944 -17785697.39744  21183148.5284   21183150.0614
 -14425988.69544 -11241001.57644  22471700.3334   22471703.5154
   4636534.59244                  25503799.1234
 -12764117.06544  -9946037.16544  22670423.4924   22670424.8614
 -27923260.66344 -21758371.91244  20191036.3274   20191036.9324
  -5924097.94744  -4616179.12044  22892314.8164   22892318.1984
 -10696837.37444  -8335168.44544  23265355.3004   23265356.7284
 95  6 15  0  1 30.0000000  0  7G17G23G 5G26G 6G20G16
 -22860583.39344 -17813418.33344  21176378.9284   21176380.5554
 -14510293.33744 -11306693.43444  22455657.4564   22455660.5614
   4741899.35944                  25523849.1644
 -12817847.06444  -9987904.62944  22660198.7314   22660200.4174
 -27920230.33044 -21756010.61644  20191612.9124   20191613.5424
  -5825265.07444  -4539166.57444  22911122.1344   22911126.2364
 -10602906.66844  -8261975.72444  23283229.7854   23283232.6454
 95  6 15  0  2  0.0000000  0  7G17G23G 5G26G 6G20G16
 -22895926.31244 -17840958.24844  21169653.0824   21169654.8684
 -14594263.31744 -11372124.50844  22439678.5804   22439681.7454
   4847160.43944                  25543880.4364
 -12871136.48344 -10029428.80344  22650058.3834   22650059.5224
 -27916725.58444 -21753279.65144  20192279.9604   20192280.5964
  -5726264.26144  -4462023.16744  22929961.4414   22929965.6674
 -10508768.31644  -8188621.19244  23301143.5134   23301145.5914
 95  6 15  0  2 30.0000000  0  7G17G23G 5G26G 6G20G16
 -22931040.89844 -17868320.23644  21162970.9984   21162972.6844
 -14677905.24944 -11437299.97144  22423762.0284   22423764.9134
   4952286.41044                  25563885.7994
 -12923984.37444 -10070608.92744  22640001.3544   22640002.8884
 -27912758.49644 -21750188.42444  20193034.8934   20193035.4614
  -5627089.42444  -4384744.16744  22948833.5734   22948838.4624
 -10414424.05944  -8115106.21344  23319096.6944   23319098.6514
 95  6 15  0  3  0.0000000  0  6G17G23G26G 6G20G16
 -22965926.21044 -17895503.56944  21156332.5094   21156334.3164
 -14761230.92244 -11502228.99244  22407905.6604   22407908.7184
 -12976413.57644 -10111462.79444  22630024.2684   22630026.4214
 -27908319.42044 -21746729.41344  20193879.6964   20193880.3514
  -5527744.11944  -4307332.33744  22967738.5234   22967742.7394
 -10319876.56544  -8041432.87644  23337088.8244   23337091.5864
 95  6 15  0  3 30.0000000  0  6G17G23G26G 6G20G16
 -23000594.63944 -17922517.90144  21149735.6234   21149737.3824
 -14844268.19744 -11566933.29144  22392104.1024   22392107.1754
 -13028442.80244 -10152005.00044  22620123.6424   22620125.5394
 -27903425.59944 -21742916.05244  20194810.7924   20194811.4584
  -5428258.85344  -4229811.44844  22986669.9154   22986673.9144
 -10225148.80344  -7967619.05744  23355114.4704   23355116.3674
 95  6 15  0  4  0.0000000  0  6G17G23G26G 6G20G16
 -23035021.38144 -17949343.91544  21143184.3774   21143186.0344
 -14926972.02144 -11631377.75644  22376366.0474   22376369.1804
 -13080036.41544 -10192207.77544  22610305.4964   22610307.3714
 -27898032.18244 -21738713.39844  20195837.0914   20195837.7054
  -5328593.36744  -4152150.12344  23005635.6894   23005640.2934
 -10130193.89844  -7893628.25444  23373183.8704   23373185.3174
 95  6 15  0  4 30.0000000  0  6G17G23G26G 6G20G16
 -23069261.58544 -17976024.57344  21136668.5814   21136670.3084
 -15009379.37344 -11695591.22244  22360684.2414   22360687.4694
 -13131237.24344 -10232104.47844  22600562.4444   22600564.0534
 -27892145.99044 -21734126.76244  20196957.2424   20196958.0294
  -5228799.75144  -4074388.96944  23024625.6844   23024630.2454
 -10035040.64544  -7819482.89344  23391290.9354   23391292.0124
 95  6 15  0  5  0.0000000  0  6G17G23G26G 6G20G16
 -23103313.91744 -18002558.83744  21130188.5644   21130190.3614
 -15091476.11144 -11759562.64344  22345061.6494   22345064.8054
 -13182030.17444 -10271683.35244  22590896.8594   22590898.0834
 -27885753.94344 -21729145.95244  20198173.6484   20198174.2364
  -5128878.25144  -3996528.15144  23043640.4734   23043645.0984
  -9939670.38444  -7745168.44044  23409439.2364   23409441.5354
 95  6 15  0  5 30.0000000  0  6G17G23G26G 6G20G16
 -23137186.32744 -18028952.89744  21123742.7794   21123744.6494
 -15173247.92144 -11823280.86044  22329501.0844   22329504.2654
 -13232397.27244 -10310930.40344  22581312.2064   22581313.8854
 -27878877.26244 -21723787.50844  20199482.2584   20199482.9244
  -5028825.11844  -3918564.77944  23062679.9094   23062684.1024
  -9844080.87544  -7670683.13944  23427628.9374   23427630.4824
 95  6 15  0  6  0.0000000  0  6G17G23G26G 6G20G16
 -23170887.39544 -18055213.45144  21117329.8944   21117331.5494
 -15254688.64644 -11886741.09644  22314003.3744   22314006.3624
 -13282346.46744 -10349851.80944  22571806.8894   22571808.2154
 -27871529.29444 -21718061.82944  20200880.5424   20200881.2274
  -4928645.60444  -3840502.91144  23081743.5274   23081748.1944
  -9748287.12144  -7596038.69144  23445857.7014   23445859.9964
 95  6 15  0  6 30.0000000  0  6G17G23G26G 6G20G16
 -23204376.20444 -18081308.60744  21110956.9154   21110958.5624
 -15335785.69144 -11949933.53644  22298570.9874   22298574.1824
 -13331860.25744 -10388433.95344  22562384.7444   22562386.3514
 -27863698.30444 -21711959.77244  20202370.7454   20202371.5864
  -4828332.45044  -3762336.92244  23100832.5494   23100837.5904
  -9652282.25044  -7521229.71344  23464127.5744   23464129.2894
 95  6 15  0  7  0.0000000  0  6G17G23G26G 6G20G16
 -23237660.88344 -18107244.70244  21104623.2254   21104624.8234
 -15416566.07944 -12012879.23244  22283198.9914   22283202.0664
 -13380972.99344 -10426703.56944  22553038.9904   22553041.0734
 -27855417.41644 -21705507.14144  20203946.4764   20203947.0674
  -4727893.99244  -3684073.29544  23119945.6144   23119949.5984
  -9556115.80144  -7446294.84044  23482427.9714   23482430.2034
 95  6 15  0  7 30.0000000  0  6G17G23G26G 6G20G16
 -23270725.26444 -18133009.13844  21098331.1114   21098332.7214
 -15497037.59444 -12075584.25244  22267885.8444   22267888.8784
 -13429689.69044 -10464664.58844  22543768.4674   22543770.3054
 -27846677.98744 -21698697.20244  20205609.6114   20205610.2814
  -4627325.63344  -3605708.44844  23139083.3024   23139086.8104
  -9459818.89944  -7371258.33844  23500752.0434   23500755.0754
 95  6 15  0  8  0.0000000  0  6G17G23G26G 6G20G16
 -23303531.02844 -18158572.05644  21092088.5904   21092090.0354
 -15577182.50044 -12138034.76544  22252634.6104   22252637.6504
 -13477980.06844 -10502293.42144  22534579.3724   22534581.3284
 -27837437.02444 -21691496.46044  20207368.1794   20207368.9734
  -4526596.25344  -3527218.13244  23158251.5954   23158255.7864
  -9363371.05944  -7296104.20244  23519105.3614   23519105.8394
 95  6 15  0  8 30.0000000  0  7G17G23G21G26G 6G20G16
 -23336064.23644 -18183922.59244  21085897.4194   21085899.3324
 -15656981.69344 -12200215.89344  22237449.1584   22237452.2294
        -0.24654                  25617427.1484
 -13525828.01744 -10539577.49744  22525473.7164   22525475.1914
 -27827678.72444 -21683892.59944  20209225.0524   20209225.7224
  -4425673.27944  -3448576.96544  23177456.5814   23177461.1924
  -9266751.38744  -7220816.17644  23537492.0284   23537492.8954
 95  6 15  0  9  0.0000000  0  7G17G23G21G26G 6G20G16
 -23368399.14244 -18209118.60444  21079744.2834   21079745.8714
 -15736479.15444 -12262161.89944  22222321.3874   22222324.5174
   -100415.07344                  25598318.5924
 -13573286.09944 -10576557.78144  22516442.7094   22516444.1974
 -27817465.52644 -21675934.27544  20211168.6004   20211169.4134
  -4324608.84044  -3369825.55444  23196688.7054   23196693.0504
  -9170013.37744  -7145435.95744  23555900.3904   23555902.8234
 95  6 15  0  9 30.0000000  0  7G17G23G21G26G 6G20G16
 -23400550.99944 -18234171.98144  21073626.0544   21073627.7084
 -15815666.76144 -12323866.46944  22207252.2964   22207255.4324
   -200779.46844                  25579219.4194
 -13620329.46344 -10613214.91044  22507490.7814   22507492.4014
 -27806807.21144 -21667629.10644  20213196.7934   20213197.5444
  -4223419.22444  -3290976.61344  23215944.3044   23215949.4694
  -9073137.96044  -7069948.62744  23574335.5744   23574337.6534
 95  6 15  0 10  0.0000000  0  8G17G23G22G21G26G 6G20G16
 -23432509.15044 -18259074.41944  21067544.6434   21067546.4064
 -15894501.57444 -12385296.14344  22192250.5644   22192253.6554
         0.17354         1.41654  24181140.7244
   -301081.22344                  25560132.3304
 -13666919.35444 -10649518.67844  22498625.1674   22498626.6464
 -27795689.86544 -21658966.25244  20215312.4104   20215313.2634
  -4122098.31744  -3212025.36644  23235225.1884   23235229.5724
  -8976071.09644  -6994312.14444  23592806.5554   23592809.1764
 95  6 15  0 10 30.0000000  0  8G17G23G22G21G26G 6G20G16
 -23464291.81144 -18283840.11244  21061496.7094   21061498.3414
 -15972993.76344 -12446458.83344  22177313.8454   22177316.9264
    -53576.14044    -41746.35244  24170945.7324   24170950.9484
   -401344.05244                  25541052.7904
 -13713065.45444 -10685476.64544  22489844.1874   22489845.3294
 -27784125.52744 -21649955.09644  20217512.9624   20217513.7474
  -4020682.18044  -3132999.90544  23254523.9264   23254528.6314
  -8878822.34944  -6918533.92944  23611312.5544   23611315.3244
 95  6 15  0 11  0.0000000  0  8G17G23G22G21G26G 6G20G16
 -23495931.58444 -18308494.46544  21055475.8394   21055477.4444
 -16051194.66844 -12507394.53844  22162432.8614   22162435.5224
   -106740.33644    -83172.95544  24160829.0064   24160832.6884
   -501589.29944   -390848.06744  25521976.8124
 -13758783.34544 -10721100.92744  22481144.1964   22481145.8584
 -27772136.04744 -21640612.66044  20219794.6164   20219795.3144
  -3919230.08344  -3053946.43844  23273830.0774   23273833.8494
  -8781433.08844  -6842646.22344  23629844.9964   23629846.6284
 95  6 15  0 11 30.0000000  0  8G17G23G22G21G26G 6G20G16
 -23527399.05844 -18333014.55944  21049487.9934   21049489.4424
 -16129101.53944 -12568101.12844  22147607.7144   22147610.8764
   -159457.15944   -124250.96344  24150797.1874   24150800.3584
   -601788.05844                  25502909.2934
 -13804045.19444 -10756369.86044  22472530.8444   22472532.8144
 -27759702.20044 -21630923.96344  20222160.6884   20222161.3264
  -3817728.06144  -2974854.06844  23293145.1914   23293149.7344
  -8683893.21144  -6766641.14944  23648406.4494   23648409.6494
 95  6 15  0 12  0.0000000  0  8G17G23G22G21G26G 6G20G16
 -23558669.76444 -18357381.33244  21043536.8604   21043538.5794
 -16206708.20044 -12628573.79444  22132839.4514   22132842.5174
   -211707.52544   -164965.46944  24140854.1944   24140856.7894
   -701943.77944                  25483849.8844
 -13848865.72244 -10791294.90544  22464001.2674   22464003.1964
 -27746814.74744 -21620881.80444  20224613.0904   20224613.7864
  -3716173.85044  -2895721.03744  23312470.2274   23312474.3984
  -8586219.14144  -6690531.51644  23666992.8804   23666995.9324
 95  6 15  0 12 30.0000000  0  8G17G23G22G21G26G 6G20G16
 -23589718.89144 -18381575.44244  21037628.6534   21037630.3454
 -16284014.69244 -12688812.56644  22118128.6344   22118131.6204
   -263480.70844   -205308.20244  24131002.0984   24131003.6304
   -802026.93644                  25464804.7444
 -13893236.53444 -10825869.52344  22455558.2184   22455559.7464
 -27733440.31344 -21610460.17444  20227158.1884   20227158.9304
  -3614537.59344  -2816524.07144  23331811.1614   23331814.6444
  -8488411.48344  -6614317.79344  23685605.2404   23685607.3884
 95  6 15  0 13  0.0000000  0  8G17G23G22G21G26G 6G20G16
 -23620583.29744 -18405625.60744  21031755.4674   21031756.9514
 -16361037.99944 -12748830.68244  22103471.5854   22103474.7564
   -314816.70844   -245310.24844  24121233.4034   24121236.0584
   -902057.61944                  25445769.6174
 -13937190.26344 -10860119.14844  22447194.4764   22447195.7514
 -27719598.11644 -21599674.05644  20229792.2654   20229793.0174
  -3512833.81544  -2737274.49344  23351164.6764   23351169.2244
  -8390500.35144  -6538023.42644  23704236.8304   23704239.7494
 95  6 15  0 13 30.0000000  0  8G17G23G22G21G26G 6G20G16
 -23651227.64544 -18429504.30044  21025923.9294   21025925.6094
 -16437725.92844 -12808587.45844  22088878.1324   22088881.1514
   -365676.25944   -284940.99544  24111554.9284   24111556.1064
  -1002008.33744                  25426748.9304
 -13980709.58044 -10894030.27044  22438912.9574   22438914.9224
 -27705254.59644 -21588497.30144  20232521.7004   20232522.4974
  -3411024.96044  -2657943.05244  23370538.4934   23370543.5614
  -8292471.28744  -6461637.19344  23722891.5444   23722893.8304
 95  6 15  0 14  0.0000000  0  8G23G22G21G17G26G 6G20G16
 -16514029.82144 -12868044.98444  22074357.8514   22074360.9484
   -416034.04444   -324180.87244  24101972.0144   24101973.5984
  -1101848.57244                  25407750.2684
 -23681629.76044 -18453194.24444  21020138.7634   21020140.3084
 -14023766.67444 -10927581.21744  22430718.8854   22430720.8804
 -27690353.16544 -21576885.80944  20235357.3594   20235358.0744
  -3309073.63844  -2578500.58044  23389939.5994   23389944.4184
  -8194287.38344  -6385130.26144  23741575.2494   23741577.1694
 95  6 15  0 14 30.0000000  0  8G17G23G22G21G26G 6G20G16
 -23711833.90444 -18476729.92344  21014390.8974   21014392.5124
 -16589988.42444 -12927233.45944  22059903.3294   22059906.2434
   -465935.74944   -363065.25544  24092475.7664   24092477.3944
  -1201605.20444                  25388767.0524
 -14066376.48644 -10960783.63044  22422610.9244   22422612.3914
 -27674925.43544 -21564864.21444  20238293.2574   20238293.9094
  -3207006.29444  -2498967.71144  23409362.2774   23409366.9544
  -8095973.74944  -6308522.26344  23760283.9434   23760285.4094
 95  6 15  0 15  0.0000000  0  8G23G22G21G17G26G 6G20G16
 -16665605.92544 -12986156.14044  22045514.0724   22045517.0514
   -515374.49644   -401588.95044  24083068.1944   24083071.3714
  -1301298.81844                  25369795.4104
 -23741847.86944 -18500117.41144  21008679.3504   21008680.8564
 -14108539.30744 -10993637.74144  22414587.4364   22414588.6284
 -27659002.64244 -21552456.86144  20241323.3094   20241324.2244
  -3104848.36644  -2419364.25944  23428802.2944   23428806.4184
  -7997543.06344  -6231823.06144  23779014.3794   23779017.5794
 95  6 15  0 15 30.0000000  0  8G23G22G21G17G26G 6G20G16
 -16740889.01444 -13044818.24344  22031188.0984   22031191.0644
   -564343.42244   -439746.49944  24073749.7584   24073753.8644
  -1400925.45944  -1091627.00144  25350836.8274
 -23771655.05144 -18523343.77344  21003007.0844   21003008.5394
 -14150240.51044 -11026132.15044  22406651.9804   22406653.7404
 -27642602.04244 -21539677.19344  20244444.2214   20244445.0804
  -3002606.61444  -2339695.49644  23448258.5634   23448264.7284
  -7898996.30244  -6155033.39344  23797767.2974   23797770.4184
 95  6 15  0 16  0.0000000  0  8G23G22G21G17G26G 6G20G16
 -16815849.74544 -13103229.14744  22016923.5334   22016926.5654
   -612866.79344   -477556.91944  24064516.0674   24064517.8994
  -1500486.59644  -1169206.81444  25331891.0134
 -23801261.17344 -18546413.46444  20997373.7174   20997375.2734
 -14191469.37044 -11058258.49744  22398806.6694   22398808.1974
 -27625737.69344 -21526536.16144  20247653.3964   20247654.3434
  -2900296.75144  -2259973.65244  23467727.4544   23467732.8804
  -7800302.52944  -6078129.21044  23816547.9034   23816549.3964
 95  6 15  0 16 30.0000000  0  8G23G22G21G17G26G 6G20G16
 -16890482.07044 -13161384.16144  22002721.2644   22002724.0994
   -660929.45544   -515008.32744  24055370.3184   24055371.0024
  -1599961.92744                  25312961.3454
 -23830649.92944 -18569313.77944  20991781.1384   20991782.4794
 -14232205.28444 -11090000.73644  22391054.3944   22391057.0244
 -27608406.10044 -21513031.04344  20250951.6044   20250952.4624
  -2797925.82044  -2180204.23444  23487208.1224   23487213.9734
  -7701457.55844  -6001107.19144  23835357.5784   23835361.0834
 95  6 15  0 17  0.0000000  0  8G23G22G21G17G26G 6G20G16
 -16964796.53644 -13219291.48744  21988579.7494   21988582.4644
   -708546.26044   -552112.29844  24046308.8894   24046311.7754
  -1699370.00644                  25294044.0594
 -23859839.28544 -18592058.72044  20986226.4474   20986227.9324
 -14272474.07144 -11121378.98044  22383391.4984   22383393.3754
 -27590628.18144 -21499178.13944  20254334.5834   20254335.3694
  -2695529.30744  -2100414.88144  23506693.6914   23506698.7844
  -7602497.05844  -5923995.16244  23854189.2214   23854192.3634
 95  6 15  0 17 30.0000000  0  8G23G22G21G17G26G 6G20G16
 -17038755.13444 -13276921.51244  21974505.9494   21974508.7794
   -755704.55844   -588859.01944  24037335.1324   24037337.4484
  -1798685.79944                  25275144.5544
 -23888805.82644 -18614630.03444  20980714.2824   20980716.0994
 -14312245.95144 -11152370.02344  22375823.0114   22375824.5754
 -27572373.07744 -21484953.40344  20257808.3494   20257809.1504
  -2593069.28844  -2020576.04544  23526191.4864   23526196.9804
  -7503389.15644  -5846768.23944  23873048.8294   23873052.1634
 95  6 15  0 18  0.0000000  0  8G23G22G21G17G26G 6G20G16
 -17112364.73444 -13334279.60044  21960498.5044   21960501.3904
   -802413.92244   -625255.91444  24028446.5814   24028448.1214
  -1897924.97144  -1478897.93544  25256260.1114   25256270.5364
 -23917572.80244 -18637045.84144  20975240.2524   20975241.8624
 -14351545.53444 -11182993.03944  22368344.8594   22368346.4804
 -27553636.24844 -21470353.29144  20261373.9734   20261374.7384
  -2490562.92044  -1940701.09444  23545697.8654   23545702.2414
  -7404155.57844  -5769443.43744  23891932.3644   23891933.5684
 95  6 15  0 18 30.0000000  0  8G23G22G21G17G26G 6G20G16
 -17185606.23744 -13391350.86144  21946561.2194   21946563.8804
   -848637.34344   -661274.15244  24019650.4714   24019652.0364
  -1997066.20444                  25237393.7744
 -23946123.20744 -18659292.89044  20969807.1104   20969808.8674
 -14390365.99944 -11213242.71944  22360957.5794   22360959.0234
 -27534404.02544 -21455367.15444  20265033.6104   20265034.5094
  -2387990.89844  -1860774.98444  23565216.7104   23565220.8554
  -7304812.15744  -5692032.99444  23910836.7134   23910839.8404
 95  6 15  0 19  0.0000000  0  8G23G22G21G17G26G 6G20G16
 -17258480.95744 -13448136.31044  21932693.6254   21932696.3994
   -894368.73444   -696909.00744  24010948.0154   24010950.6114
  -2096113.38144  -1633329.83744  25218545.5054
 -23974458.74144 -18681372.50944  20964414.8184   20964416.3274
 -14428714.50844 -11243124.63644  22353660.0524   22353661.5454
 -27514690.81144 -21440006.22144  20268784.9694   20268785.6344
  -2285350.68144  -1780795.73044  23584748.4884   23584752.6474
  -7205346.72144  -5614527.50244  23929764.3824   23929767.5634
 95  6 15  0 19 30.0000000  0  8G23G22G21G17G26G 6G20G16
 -17330996.60644 -13504641.95644  21918894.1164   21918896.9584
   -939610.56544   -732162.35644  24002338.9024   24002341.2054
  -2195061.43144  -1710431.95844  25199716.3304   25199722.3004
 -24002591.45544 -18703294.08844  20959061.6644   20959063.2394
 -14466587.51644 -11272636.04844  22346453.0004   22346454.1274
 -27494485.99944 -21424262.22944  20272629.8734   20272630.6514
  -2182645.87344  -1700766.16344  23604292.4384   23604297.1494
  -7105751.06444  -5536920.55444  23948716.2324   23948719.6864
 95  6 15  0 20  0.0000000  0  8G23G22G21G17G26G 6G20G16
 -17403145.28244 -13560861.65544  21905164.6724   21905167.0514
   -984339.24244   -767015.85044  23993827.0834   23993829.9254
  -2293872.91844  -1787427.67544  25180913.0244   25180922.7044
 -24030506.16144 -18725045.79044  20953749.5094   20953751.0464
 -14503976.23244 -11301770.08844  22339338.2614   22339338.9774
 -27473757.35344 -21408110.05544  20276574.4204   20276575.1864
  -2079880.52544  -1620689.39844  23623848.5094   23623854.5874
  -7006019.75944  -5459207.86744  23967695.0124   23967698.6284
 95  6 15  0 20 30.0000000  0  8G23G22G21G17G26G 6G20G16
 -17474970.61644 -13616829.40544  21891496.7174   21891499.3334
  -1028593.96544   -801500.04144  23985405.8104   23985407.3304
  -2392586.78244                  25162127.8214
 -24058249.88044 -18746664.25944  20948470.1044   20948471.5144
 -14540914.82444 -11330553.38244  22332308.9084   22332310.1634
 -27452559.76644 -21391592.47044  20280608.2674   20280609.0904
  -1977094.67544  -1540596.67444  23643408.0044   23643413.8524
  -6906190.00944  -5381418.48644  23986692.0694   23986693.8714
 95  6 15  0 21  0.0000000  0  8G23G22G21G17G26G 6G20G16
 -17546489.96844 -13672558.73544  21877887.0964   21877889.9734
  -1072402.12744   -835636.25944  23977069.6014   23977071.2354
  -2491234.20844                  25143355.8274
 -24085855.11444 -18768174.81344  20943216.8074   20943218.4654
 -14577409.28744 -11358990.59844  22325364.3604   22325365.6674
 -27430901.95844 -21374716.27444  20284729.5444   20284730.6254
  -1874308.13244  -1460503.39444  23662967.7444   23662973.2764
  -6806284.76744  -5303570.29044  24005703.1874   24005706.1194
 95  6 15  0 21 30.0000000  0  8G23G22G21G17G26G 6G20G16
 -17617627.28044 -13727990.37744  21864350.2054   21864353.0684
  -1115711.42744   -869383.73544  23968828.3444   23968829.7934
  -2589752.06144  -2017982.12244  25124608.2094
 -24113259.13844 -18789528.57844  20938001.9464   20938003.6484
 -14613391.27544 -11387028.48144  22318517.1564   22318518.0984
 -27408706.41444 -21357421.06344  20288953.2634   20288954.3074
  -1771461.35244  -1380363.18944  23682539.0684   23682543.5604
  -6706264.82644  -5225632.70644  24024736.6964   24024738.9224
 95  6 15  0 22  0.0000000  0  8G23G22G21G17G26G 6G20G16
 -17688402.66944 -13783139.99544  21850881.9704   21850884.5694
  -1158546.63644   -902761.81244  23960676.9694   23960680.5384
  -2688170.72744  -2094671.67244  25105879.4364   25105889.3654
 -24140483.81344 -18810742.59344  20932821.4284   20932823.0984
 -14648892.35044 -11414691.63444  22311761.5934   22311762.6574
 -27386015.47344 -21339739.82944  20293271.1584   20293272.1814
  -1668585.12344  -1300200.03044  23702115.9954   23702121.1154
  -6606160.40244  -5147629.32544  24043785.9074   24043790.6614
 95  6 15  0 22 30.0000000  0  8G23G22G21G17G26G 6G20G16
 -17758827.53044 -13838016.47644  21837480.4974   21837483.4584
  -1200920.53144   -935780.41944  23952613.5114   23952613.7094
  -2786524.83244                  25087163.5264
 -24167543.24344 -18831827.84944  20927672.4464   20927674.0464
 -14683909.81944 -11441977.94844  22305097.8394   22305098.9094
 -27362850.01744 -21321688.84244  20297679.4474   20297680.3324
  -1565684.40344  -1220017.81744  23721697.2764   23721701.7884
  -6505982.94644  -5069568.98944  24062849.1044   24062852.2804
 95  6 15  0 23  0.0000000  0  8G23G22G21G17G26G 6G20G16
 -17828853.33144 -13892582.00544  21824154.9654   21824157.9034
  -1242796.56244   -968411.07044  23944644.2744   23944647.5244
  -2884759.55844  -2247857.22644  25068469.5634
 -24194386.13644 -18852744.37544  20922564.2284   20922565.6894
 -14718402.09644 -11468855.02644  22298534.0024   22298535.3444
 -27339158.33144 -21303227.80344  20302187.9294   20302188.8314
  -1462720.58944  -1139786.44044  23741290.5984   23741295.6474
  -6405692.48644  -4991420.60444  24081933.9364   24081937.0904
 95  6 15  0 23 30.0000000  0  8G23G22G21G17G26G 6G20G16
 -17898499.94844 -13946852.05644  21810901.4504   21810904.5344
  -1284190.37444  -1000665.98244  23936767.2164   23936769.2434
  -2982883.30444  -2324317.02344  25049796.6284   25049805.5644
 -24221020.47044 -18873498.39144  20917495.9114   20917497.4804
 -14752394.13544 -11495342.31244  22292065.4464   22292066.2574
 -27314967.72044 -21284377.99444  20306791.1944   20306792.1734
  -1359716.79544  -1059523.88744  23760891.6434   23760896.8844
  -6305293.64944  -4913187.78444  24101039.1394   24101043.0264
 95  6 15  0 24  0.0000000  0  8G23G22G21G17G26G 6G20G16
 -17967794.98444 -14000848.15444  21797714.9244   21797717.7814
  -1325110.57244  -1032551.84844  23928980.5754   23928983.2414
  -3080910.73544                  25031142.3074
 -24247463.45344 -18894103.30144  20912464.0284   20912465.6194
 -14785894.56944 -11521446.52044  22285690.6224   22285691.6724
 -27290299.28244 -21265155.85644  20311485.4834   20311486.3914
  -1256678.00644   -979234.10844  23780499.5044   23780506.5034
  -6204787.70344  -4834871.51044  24120164.9594   24120169.5244
 95  6 15  0 24 30.0000000  0  8G23G22G21G17G26G 6G20G16
 -18036746.31744 -14054576.43244  21784594.0034   21784596.9454
  -1365560.23744  -1064071.03844  23921283.1414   23921286.3864
  -3178846.20444  -2477014.81744  25012506.0434   25012516.7164
 -24273721.75944 -18914564.31044  20907467.0404   20907468.4694
 -14818900.50744 -11547165.41344  22279409.9174   22279410.6984
 -27265149.64244 -21245558.75144  20316271.3564   20316272.1364
  -1153598.04144   -898912.19844  23800115.0434   23800120.9414
  -6104185.63544  -4756480.27144  24139308.8974
 95  6 15  0 25  0.0000000  0  8G23G22G21G17G26G 6G20G16
 -18105327.45044 -14108016.23444  21771543.5824   21771546.2374
  -1405520.75244  -1095209.07844  23913679.0914   23913680.6974
  -3276649.14544                  24993894.0194
 -24299758.10844 -18934852.36444  20902512.6324   20902514.1394
 -14851392.24644 -11572483.63144  22273226.8994   22273227.8824
 -27239498.42844 -21225570.81244  20321152.6914   20321153.6464
  -1050465.06044   -818549.00644  23819740.6344   23819747.0654
  -6003464.41644                  24158475.7294
 95  6 15  0 25 30.0000000  0  8G23G22G21G17G26G 6G20G16
 -18173594.04044 -14161210.94344  21758552.7664   21758555.4504
  -1445033.91344  -1125998.55944  23906159.7844   23906160.8554
  -3374380.33644  -2629378.50144  24975296.1884   24975306.3654
 -24325613.46444 -18954999.38344  20897592.4214   20897593.9594
 -14883407.79944 -11597430.79544  22267134.7854   22267135.9104
 -27213387.67744 -21205224.79244  20326121.3434   20326122.3444
   -947339.31544   -738191.43144  23839365.0434   23839369.5494
  -5902677.32244                  24177655.2434
 95  6 15  0 26  0.0000000  0  7G23G22G21G17G26G 6G20
 -18241533.48044 -14214150.73244  21745624.2264   21745627.1964
  -1484089.59544  -1156431.51744  23898727.8804   23898730.9234
  -3472028.38044  -2705467.52544  24956714.3574   24956722.7964
 -24351274.36844 -18974994.88044  20892709.1394   20892710.8474
 -14914936.83344 -11621998.85744  22261134.8844   22261135.8294
 -27186803.22144 -21184509.65444  20331180.1554   20331181.1274
   -844218.05344   -657837.38544  23858988.5974   23858994.0164
 95  6 15  0 26 30.0000000  0  7G23G22G21G17G26G 6G20
 -18309119.28144 -14266814.95144  21732763.0864   21732765.7154
  -1522661.82044  -1186487.78144  23891387.8784   23891390.9594
  -3569560.89944  -2781466.67144  24938154.1534   24938163.0884
 -24376709.90244 -18994814.76644  20887868.8244   20887870.6114
 -14945959.78844 -11646172.56644  22255231.3684   22255232.0974
 -27159728.56244 -21163412.53844  20336332.3834   20336333.3884
   -741104.50044   -577489.29844  23878610.5554   23878616.8664
 95  6 15  0 27  0.0000000  0  7G23G22G21G17G26G 6G20
 -18376359.05444 -14319209.54044  21719967.8014   21719970.4844
  -1560761.52344  -1216175.85344  23884137.5404   23884139.2694
  -3666990.53944  -2857385.57844  24919614.2274   24919622.6664
 -24401934.39544 -19014470.20544  20883068.7784   20883070.2214
 -14976487.24344 -11669960.17144  22249422.1564   22249423.3884
 -27132180.69244 -21141946.68944  20341574.5664   20341575.4734
   -638025.63244   -497168.28644  23898226.3654   23898233.5214
 95  6 15  0 27 30.0000000  0  7G23G22G21G17G26G 6G20
 -18443199.98644 -14371293.34144  21707248.2504   21707251.2854
  -1598325.91044  -1245446.78744  23876989.3394   23876992.5034
  -3764268.98244  -2933186.70344  24901102.6934   24901106.8074
 -24426921.69744 -19033940.81644  20878314.1374   20878315.5664
 -15006462.36344 -11693317.38744  22243718.0074   22243719.4184
 -27104108.86244 -21120072.55644  20346916.4464   20346917.3234
   -534911.38644   -416819.71044  23917848.1604   23917852.2944
 95  6 15  0 28  0.0000000  0  7G23G26G22G21G17G 6G20
 -18509664.78244 -14423084.04644  21694600.4234   21694603.1704
 -15035914.49744 -11716267.07844  22238113.5224   22238114.7454
  -1635367.91344  -1274310.69544  23869940.2374   23869942.3824
  -3861408.38944  -3008879.39044  24882617.8364   24882624.6494
 -24451709.84544 -19053256.24444  20873596.9524   20873598.4434
 -27075556.62444 -21097824.08144  20352349.8084   20352350.7394
   -431770.05144   -336449.98844  23937475.4174   23937479.6814
 95  6 15  0 28 30.0000000  0  7G23G26G22G21G17G 6G20
 -18575762.58044 -14474588.77444  21682022.4104   21682025.0684
 -15064838.74344 -11738805.43044  22232609.2944   22232610.7554
  -1671889.62544  -1302769.13444  23862990.8364   23862994.3804
  -3958413.92844  -3084467.89544  24864157.5594   24864166.7434
 -24476310.68444 -19072425.71744  20868915.5994   20868917.1344
 -27046518.73044 -21075197.17544  20357875.5734   20357876.3484
   -328600.90244   -256058.62144  23957108.1284   23957114.8064
 95  6 15  0 29  0.0000000  0  7G23G26G22G21G17G 6G20
 -18641541.89244 -14525845.35744  21669505.0404   21669507.9404
 -15093290.86144 -11760975.88344  22227194.8934   22227196.1344
  -1707935.49644  -1330856.80744  23856131.1984   23856132.7814
  -4055349.51844  -3160001.82744  24845711.0944   24845721.2714
 -24500783.36044 -19091495.32644  20864258.4364   20864260.2904
 -27017029.89044 -21052218.88444  20363487.0904   20363487.9514
   -225442.89644   -175675.92444  23976738.7294   23976744.0364
 95  6 15  0 29 30.0000000  0  7G23G26G22G21G17G 6G20
 -18707014.75544 -14576863.13644  21657045.9204   21657048.6714
 -15121295.38844 -11782797.57344  22221865.8344   22221867.1544
  -1743508.23644  -1358575.83344  23849361.9534   23849364.7754
  -4152216.54144  -3235482.35144  24827277.5504   24827284.1534
 -24525131.69044 -19110468.03944  20859625.1304   20859626.8134
 -26987090.73144 -21028889.69544  20369184.2424   20369185.1504
   -122312.49444    -95314.72644  23996363.3884   23996370.6044
 95  6 15  0 30  0.0000000  0  7G23G26G22G21G17G 6G20
 -18772093.20744 -14627573.57444  21644661.9394   21644664.5024
 -15148774.02744 -11804209.47644  22216636.9214   22216637.7144
  -1778533.30244  -1385868.08444  23842696.7154   23842699.9064
  -4248939.94844  -3310850.96444  24808872.0424   24808880.2344
 -24549268.56944 -19129275.98944  20855032.1764   20855033.7674
 -26956603.81444 -21005133.68444  20374985.8084   20374986.7754
    -19159.39544    -14935.86244  24015992.9894   24015999.0234
 95  6 15  0 30 30.0000000  0  7G23G22G21G17G26G 6G20
 -18836776.94244 -14677976.45044  21632352.9414   21632355.4294
  -1813046.54944  -1412761.52044  23836128.8494   23836130.4734
  -4345542.28044  -3386125.23544  24790489.0134   24790497.2044
 -24573206.42144 -19147928.85444  20850476.8654   20850478.4174
 -15175738.64444 -11825220.83744  22211505.5584   22211506.2264
 -26925573.19944 -20980954.00744  20380890.8464   20380891.7674
     83984.64144     65435.95244  24035620.4614   24035627.8164
 95  6 15  0 31  0.0000000  0  7G23G22G21G17G26G 6G20
 -18901074.72744 -14728078.58944  21620117.4724   21620119.9944
  -1847077.91544  -1439279.44844  23829653.1964   23829655.3944
  -4442045.29144  -3461322.10544  24772124.9444   24772135.6174
 -24596965.78844 -19166442.63444  20845955.4664   20845957.0064
 -15202212.39344 -11845849.70344  22206467.8994   22206468.7744
 -26894042.21444 -20956384.43044  20386891.0434   20386892.0894
    187087.04744    145775.30644  24055240.2444   24055247.7524
 95  6 15  0 31 30.0000000  0  7G23G26G22G21G17G 6G20
 -18964972.67444 -14777869.15844  21607958.0264   21607960.7014
 -15228153.83844 -11866063.79144  22201531.2604   22201531.7224
  -1880624.12244  -1465419.36344  23823269.4474   23823271.0374
  -4538408.67344  -3536410.23844  24753787.3834   24753792.2954
 -24620520.53544 -19184796.97344  20841473.1224   20841474.7134
 -26862009.27244 -20931423.72344  20392986.6284   20392987.5914
    290157.85644    226090.03344  24074854.1384   24074858.6204
 95  6 15  0 32  0.0000000  0  7G23G22G21G17G26G 6G20
 -19028490.05044 -14827363.17944  21595871.1044   21595873.4974
  -1913701.31044  -1491193.81344  23816975.2874   23816976.9434
  -4634636.58544  -3611392.77244  24735475.8014   24735483.2714
 -24643874.40544 -19202994.78344  20837029.1204   20837030.5144
 -15253550.68444 -11885853.51844  22196698.3134   22196699.7274
 -26829499.88144 -20906091.76044  20399172.8534   20399174.0144
    393189.94744    306374.61944  24094460.6044   24094467.2734
 95  6 15  0 32 30.0000000  0  7G23G26G22G21G17G 6G20
 -19091649.53944 -14876578.31244  21583852.1664   21583854.7784
 -15278410.67344 -11905224.91344  22191967.7304   22191968.7804
  -1946313.97144  -1516606.27144  23810769.3084   23810772.5274
  -4730719.22544  -3686262.12144  24717191.1834   24717198.9314
 -24667020.34044 -19221030.56544  20832624.6674   20832626.2694
 -26796534.96344 -20880404.84244  20405445.8524   20405446.9534
    496175.62244    386622.99844  24114058.3214   24114064.8064
 95  6 15  0 33  0.0000000  0  7G23G22G21G17G26G 6G20
 -19154459.02944 -14925520.71644  21571899.8694   21571902.4194
  -1978441.33644  -1541640.57144  23804655.7674   23804659.6684
  -4826632.24944  -3760999.27644  24698939.7234   24698945.2564
 -24689940.87644 -19238890.71444  20828263.1564   20828264.6024
 -15302721.85344 -11924168.67044  22187341.2764   22187342.2884
 -26763097.37644 -20854349.60844  20411808.9844   20411809.9874
    599114.76244    466835.15544  24133647.3544   24133654.1684
 95  6 15  0 33 30.0000000  0  7G23G26G22G21G17G 6G20
 -19216916.27344 -14974188.65844  21560014.5744   21560017.0104
 -15326484.80944 -11942685.23944  22182819.5304   22182820.4504
  -2010071.53844  -1566287.49244  23798636.4814   23798639.3974
  -4922379.06744  -3835606.95744  24680719.5204   24680726.5454
 -24712631.55144 -19256571.74744  20823944.9894   20823946.3444
 -26729155.35544 -20827901.30744  20418268.0324   20418268.9864
    702007.81744    547011.38844  24153227.5254   24153234.5884
 95  6 15  0 34  0.0000000  0  7G23G22G21G17G26G 6G20
 -19279020.29944 -15022581.37644  21548196.5794   21548199.2344
  -2041211.54644  -1590552.43244  23792710.8104   23792713.1934
  -5018001.96344  -3910118.08044  24662522.6444   24662528.5784
 -24735107.90944 -19274085.77944  20819667.8724   20819669.4904
 -15349739.51144 -11960805.77044  22178394.4834   22178395.0424
 -26694707.43044 -20801058.79744  20424823.2344   20424824.2164
    804844.89244    627143.98044  24172796.9474   24172802.7534
 95  6 15  0 34 30.0000000  0  7G23G26G22G21G17G 6G20
 -19340745.98644 -15070679.27344  21536450.6044   21536453.1164
 -15372493.41344 -11978536.07044  22174064.4234   22174065.6844
  -2071859.81644  -1614434.15844  23786878.6624   23786880.1434
  -5113516.53244  -3984544.75644  24644346.4094   24644350.7754
 -24757380.20044 -19291440.80144  20815429.7054   20815431.0614
 -26659734.18844 -20773806.94544  20431478.4454   20431479.5374
    907636.28544    707240.97444  24192358.3494   24192365.8224
 95  6 15  0 35  0.0000000  0  7G23G22G21G17G26G 6G20
 -19402085.90144 -15118476.57444  21524778.0744   21524780.5514
  -2102015.87144  -1637932.37744  23781140.1214   23781141.6314
  -5208941.72644  -4058901.87944  24626187.7084   24626195.1714
 -24779455.96344 -19308642.69044  20811228.6714   20811230.0364
 -15394745.59044 -11995875.36544  22169829.8734   22169831.2754
 -26624234.53944 -20746144.90644  20438233.7164   20438234.8614
   1010399.50344    787316.04644  24211913.0984   24211919.3184
 95  6 15  0 35 30.0000000  0  7G23G26G22G21G17G 6G20
 -19463009.82744 -15165949.73844  21513184.4694   21513186.9324
 -15416468.55944 -12012802.34144  22165696.1414   22165697.0074
  -2131649.17844  -1661023.26044  23775500.7964   23775504.0094
  -5304254.09544  -4133171.03244  24608049.8054   24608056.2294
 -24801317.07344 -19325677.31344  20807068.8684   20807070.3584
 -26588194.54244 -20718061.82044  20445092.0224   20445093.0724
   1113182.34144    867406.38344  24231472.2784   24231479.6194
 95  6 15  0 36  0.0000000  0  7G23G26G22G21G17G 6G20
 -19523529.19944 -15213107.65844  21501667.9514   21501670.6124
 -15437652.13844 -12029309.02344  22161665.0014   22161665.5964
  -2160758.49244  -1683705.86744  23769962.0184   23769964.2034
  -5399431.86844  -4207335.34244  24589937.8814   24589945.6824
 -24822958.62544 -19342540.85344  20802950.6204   20802952.0644
 -26551635.82544 -20689574.53844  20452048.7954   20452049.8714
   1215993.81744    947519.03244  24251036.9644   24251046.3964
 95  6 15  0 36 30.0000000  0  7G23G26G22G21G17G 6G20
 -19583650.30344 -15259955.23544  21490227.3384   21490229.7734
 -15458271.66644 -12045376.18344  22157741.0624   22157741.6254
  -2189334.09744  -1705972.56144  23764523.9354   23764527.1344
  -5494446.40644  -4281372.43744  24571857.2064   24571864.2184
 -24844383.18144 -19359235.30444  20798873.4844   20798874.7804
 -26514569.21644 -20660691.49544  20459102.3674   20459103.3284
   1318823.70244   1027646.03644  24270604.6824   24270609.4234
 95  6 15  0 37  0.0000000  0  7G23G26G22G21G17G 6G20
 -19643375.53544 -15306494.34244  21478862.0374   21478864.3844
 -15478310.54944 -12060990.89144  22153927.6064   22153928.6594
  -2217374.24244  -1727821.98244  23759188.0264   23759190.9864
  -5589281.91744  -4355270.07244  24553810.1974   24553818.3884
 -24865580.23444 -19375752.48244  20794839.8344   20794841.4064
 -26477007.88844 -20631422.95644  20466250.1964   20466251.2194
   1421648.12344   1107768.78344  24290171.5934   24290177.3404
 95  6 15  0 37 30.0000000  0  7G23G26G22G21G17G 6G20
 -19702735.16344 -15352748.55844  21467566.2034   21467568.3954
 -15497807.41744 -12076183.24444  22150217.6614   22150218.7034
  -2244920.17044  -1749286.34444  23753946.0384   23753947.6594
  -5683971.36944  -4429053.89744  24535791.7424   24535796.7634
 -24886590.86244 -19392124.39144  20790841.8574   20790843.1964
 -26438994.19644 -20601801.92744  20473483.9164   20473484.9454
   1524404.66744   1187838.64444  24309725.6674   24309731.6334
 95  6 15  0 38  0.0000000  0  7G23G26G22G21G17G 6G20
 -19761708.67544 -15398701.90244  21456343.8134   21456346.4084
 -15516749.83044 -12090943.55744  22146613.1734   22146614.2754
  -2271959.11144  -1770355.64144  23748800.8994   23748805.0784
  -5778515.85944  -4502724.68844  24517800.4384   24517805.3804
 -24907403.56444 -19408342.07244  20786881.1714   20786882.4564
 -26400505.65944 -20571810.89344  20480808.0524   20480809.0864
   1627076.42444   1267842.42144  24329263.5204   24329269.9194
 95  6 15  0 38 30.0000000  0  7G23G26G22G21G17G 6G20
 -19820272.56444 -15444336.06444  21445199.4214   21445201.7154
 -15535131.65244 -12105267.04544  22143115.1834   22143116.0724
  -2298483.14244  -1791023.72444  23743753.4104   23743755.8474
  -5872923.63044  -4576289.01444  24499834.8894   24499842.4554
 -24928015.52344 -19424403.33244  20782958.7314   20782960.1764
 -26361530.96844 -20541441.03544  20488224.6584   20488225.7514
   1729658.56044   1347776.36444  24348784.1424   24348790.1034
 95  6 15  0 39  0.0000000  0  7G23G26G22G21G17G 6G20
 -19878436.72744 -15489658.75244  21434131.2684   21434133.3354
 -15552961.95844 -12119160.78144  22139722.3314   22139723.3304
  -2324502.30344  -1811298.37744  23738802.6664   23738805.6954
  -5967220.16844  -4649766.63344  24481891.1074   24481895.9354
 -24948429.83244 -19440310.57944  20779074.1564   20779075.5914
 -26322066.61044 -20510689.61644  20495734.6384   20495735.8564
   1832151.44644   1427640.75544  24368288.2224   24368295.2624
 95  6 15  0 39 30.0000000  0  7G23G26G22G21G17G 6G20
 -19936212.11644 -15534678.49744  21423136.8864   21423139.1404
 -15570237.10344 -12132621.93244  22136434.8004   22136435.5204
  -2349998.75844  -1831165.74544  23733950.4934   23733952.4084
  -6061400.16144  -4723153.46244  24463968.8424   24463976.1874
 -24968648.32844 -19456065.24444  20775226.6564   20775228.0074
 -26282098.76244 -20479545.85944  20503340.2604   20503341.2934
   1934577.62544   1507453.17044  24387779.8064   24387787.9974
 95  6 15  0 40  0.0000000  0  7G23G26G22G21G17G 6G20
 -19993590.03744 -15579388.52244  21412218.1814   21412220.6254
 -15586941.18244 -12145638.10144  22133255.8164   22133256.7084
  -2374963.33144  -1850618.65744  23729200.0034   23729202.7384
  -6155452.44944  -4796440.75744  24446071.0314   24446077.4574
 -24988656.52544 -19471656.04044  20771419.0754   20771420.4684
 -26241623.51444 -20448006.73044  20511042.3854   20511043.1994
   2036955.24344   1587227.74044  24407261.5104   24407265.3094
 95  6 15  0 40 30.0000000  0  7G23G26G22G21G17G 6G20
 -20050605.82844 -15623816.37544  21401368.3914   21401370.6984
 -15603097.16444 -12158227.18144  22130181.6294   22130182.7244
  -2399426.09544  -1869680.55344  23724545.1204   23724546.6004
  -6249393.18244  -4869641.14644  24428194.6024   24428202.4714
 -25008484.78544 -19487106.62644  20767646.1594   20767647.7004
 -26200677.52144 -20416100.79044  20518834.1444   20518835.1724
   2139262.95044   1666947.79144  24426730.1864   24426735.6234
 95  6 15  0 41  0.0000000  0  7G23G26G22G21G17G 6G20
 -20107275.52944 -15667974.54844  21390584.5544   21390586.8914
 -15618701.30144 -12170386.25044  22127212.1234   22127212.8024
  -2423385.28944  -1888350.05244  23719985.3754   23719988.1994
  -6343192.98344  -4942731.66744  24410345.1644   24410351.1214
 -25028128.13644 -19502413.12644  20763907.7904   20763909.3414
 -26159254.25844 -20383822.94944  20526716.7144   20526717.7684
   2241499.15144   1746612.18144  24446185.2434   24446189.1844
 95  6 15  0 41 30.0000000  0  7G23G26G22G21G17G 6G20
 -20163574.72144 -15711844.01544  21379870.9574   21379873.1594
 -15633751.52544 -12182113.71044  22124348.4794   22124348.7464
  -2446838.09144  -1906624.96044  23715522.5504   23715525.6254
  -6436813.39244  -5015682.43744  24392529.4844   24392538.9164
 -25047575.83944 -19517567.17644  20760207.1764   20760208.7694
 -26117342.45944 -20351164.43244  20534692.3464   20534693.5474
   2343667.43444   1826223.64944  24465626.8824   24465632.7624
 95  6 15  0 42  0.0000000  0  7G23G26G22G21G17G 6G20
 -20219502.02844 -15755423.70344  21369228.3794   21369230.6124
 -15648271.72644 -12193428.15544  22121585.0584   22121585.9514
  -2469813.08344  -1924527.56344  23711150.6464   23711152.5644
  -6530256.19044  -5088494.80044  24374747.7464   24374751.9354
 -25066842.12644 -19532579.86544  20756540.8204   20756542.3144
 -26074946.94644 -20318128.99344  20542759.9434   20542761.0374
   2445743.55044   1905763.21244  24485051.5754   24485060.5104
 95  6 15  0 42 30.0000000  0  7G23G26G22G21G17G 6G20
 -20275076.82044 -15798728.70844  21358652.8374   21358655.2774
 -15662277.85144 -12204342.02344  22118919.9174   22118920.7874
  -2492313.05644  -1942060.00344  23706869.0524   23706871.6544
  -6623519.54644  -5161167.35444  24357000.1934   24357004.0464
 -25085944.62944 -19547464.92944  20752905.9064   20752907.2584
 -26032066.17644 -20284715.43644  20550919.8654   20550921.0714
   2547716.41344   1985222.43444  24504457.0044   24504462.6184
 95  6 15  0 43  0.0000000  0  7G23G26G22G21G17G 6G20
 -20330279.09344 -15841743.43644  21348148.1624   21348150.5764
 -15675763.98844 -12214850.70644  22116353.8754   22116354.8754
  -2514321.00244  -1959209.03244  23702680.6704   23702683.5274
  -6716587.39244  -5233687.56244  24339289.5394   24339295.2454
 -25104864.97444 -19562208.05344  20749305.2434   20749306.7044
 -25988678.48644 -20250906.87544  20559176.4264   20559177.7064
   2649595.50144   2064608.51244  24523844.2774   24523849.2834
 95  6 15  0 43 30.0000000  0  7G23G26G22G21G17G 6G20
 -20385088.87144 -15884452.32144  21337718.2834   21337720.8814
 -15688738.49944 -12224960.71244  22113885.0524   22113885.9934
  -2535832.99144  -1975971.61944  23698587.6624   23698589.7774
  -6809485.20044  -5306075.29644  24321612.0734   24321617.1224
 -25123609.61044 -19576814.26344  20745738.3174   20745739.9374
 -25944785.21044 -20216704.34744  20567529.0464   20567530.1744
   2751382.02044   2143922.45344  24543213.3234   24543220.3474
 95  6 15  0 44  0.0000000  0  7G23G26G22G21G17G 6G20
 -20439508.83044 -15926857.45144  21327362.3664   21327364.5704
 -15701185.08944 -12234659.34144  22111516.2794   22111517.3694
  -2556829.60244  -1992332.61844  23694592.1154   23694593.9474
  -6902218.99444  -5378335.20344  24303965.1824   24303969.4294
 -25142161.71544 -19591270.44944  20742208.0674   20742209.5784
 -25900392.96244 -20182113.00744  20575976.5454   20575977.6854
   2853089.84744   2223175.08844  24562568.1804   24562576.8684
 95  6 15  0 44 30.0000000  0  7G23G26G22G21G17G 6G20
 -20493536.02044 -15968956.52444  21317081.2824   21317083.5144
 -15713092.30344 -12243937.67544  22109250.2844   22109251.4914
  -2577302.01944  -2008285.15044  23690695.7814   23690699.5674
  -6994794.51444  -5450471.80044  24286347.9374   24286352.8414
 -25160511.91844 -19605569.30144  20738716.1364   20738717.5464
 -25855506.13844 -20147136.28844  20584518.2044   20584519.2344
   2954719.73044   2302366.97744  24581907.3984   24581915.8374
 95  6 15  0 45  0.0000000  0  7G23G26G22G21G17G 6G20
 -20547140.10744 -16010725.90944  21306880.7374   21306882.8734
 -15724431.35744 -12252773.28644  22107092.5794   22107093.6824
  -2597234.46444  -2023816.94544  23686902.9684   23686904.3424
  -7087190.20344  -5522468.26744  24268765.6594   24268768.8434
 -25178633.09244 -19619689.68844  20735267.8044   20735269.1044
 -25810109.72744 -20111762.48744  20593156.7704   20593157.7914
   3056288.79144   2381511.43044  24601235.7544   24601241.5924
 95  6 15  0 45 30.0000000  0  7G23G26G22G21G17G 6G20
 -20600330.53644 -16052172.96244  21296758.8274   21296761.0424
 -15735202.91244 -12261166.69544  22105042.9074   22105043.9844
  -2616651.01644  -2038946.75144  23683208.5034   23683211.5634
  -7179427.18644  -5594341.04244  24251213.3324   24251220.0484
 -25196527.99844 -19633633.76944  20731862.6684   20731863.8434
 -25764210.14444 -20075996.60244  20601891.2994   20601892.3604
   3157803.67344   2460613.73744  24620553.8174   24620563.9944
 95  6 15  0 46  0.0000000  0  7G23G26G22G21G17G 6G20
 -20653132.89544 -16093317.62544  21286710.9324   21286713.2954
 -15745416.80344 -12269125.55244  22103099.2074   22103099.9614
  -2635579.98044  -2053696.66944  23679606.5064   23679609.6244
  -7271532.64944  -5666111.36644  24233686.5124   24233691.8474
 -25214222.93944 -19647422.03044  20728495.2584   20728496.6794
 -25717829.02644 -20039855.50344  20610717.3794   20610718.5274
   3259236.96744   2539652.40344  24639855.9854   24639863.7804
 95  6 15  0 46 30.0000000  0  7G23G26G22G21G17G 6G20
 -20705522.60644 -16134140.74444  21276741.5674   21276743.7264
 -15755046.78144 -12276629.41344  22101266.6204   22101267.6084
  -2653993.07044  -2068044.53944  23676102.1234   23676105.2574
  -7363495.75044  -5737770.74244  24216186.3704   24216192.8194
 -25231717.00144 -19661053.76444  20725166.2354   20725167.7744
 -25670927.25044 -20003308.69844  20619642.5064   20619643.7764
   3360589.75344   2618628.31444  24659142.9254   24659149.8694
 95  6 15  0 47  0.0000000  0  7G23G26G22G21G17G 6G20
 -20757506.25744 -16174647.45344  21266849.3574   21266851.6604
 -15764086.26144 -12283673.15044  22099546.5914   22099548.1794
  -2671888.40744  -2081989.48744  23672696.6654   23672699.8354
  -7455325.21744  -5809326.01044  24198711.5884   24198717.5004
 -25249015.47044 -19674533.08144  20721874.4664   20721876.0104
 -25623512.75344 -19966362.36944  20628665.1744   20628666.3344
   3461857.27444   2697537.83744  24678413.8224   24678422.5104
 95  6 15  0 47 30.0000000  0  7G23G26G22G21G17G 6G20
 -20809079.30844 -16214834.21844  21257035.2694   21257037.3364
 -15772521.49344 -12290246.04244  22097941.3564   22097942.2424
  -2689255.66744  -2095526.69544  23669391.8594   23669393.1404
  -7547026.61644  -5880781.48244  24181261.1794   24181268.1804
 -25266115.34644 -19687857.66244  20718620.5094   20718621.9024
 -25575582.68644 -19929014.29244  20637785.9524   20637787.2194
   3563029.95244   2776373.46544  24697666.5514   24697674.0434
 95  6 15  0 48  0.0000000  0  7G23G26G22G21G20G17G 6
 -20860232.76444 -16254694.02544  21247301.0964   21247302.9754
 -15780340.80944 -12296339.00844  22096453.5684   22096455.0674
  -2706065.76744  -2108621.62744  23666193.0174   23666194.0574
  -7638563.86544  -5952109.00944  24163841.6494   24163849.3694
   3664095.00444   2855125.18944  24716898.5564   24716910.2234
 -25283011.40244 -19701023.41844  20715405.5644   20715406.9474
 -25527144.88244 -19891270.57544  20647003.4344   20647004.5614
 95  6 15  0 48 30.0000000  0  7G23G26G22G21G17G 6G20
 -20911005.01144 -16294256.77744  21237639.4134   21237641.7014
 -15787562.76544 -12301966.49444  22095079.1094   22095080.4714
  -2722329.85544  -2121293.86044  23663098.3094
  -7729928.02344  -6023301.68344  24146455.5564   24146461.2394
 -25299702.95044 -19714029.81644  20712229.0784   20712230.3254
 -25478230.50944 -19853155.50844  20656311.6184   20656312.7044
   3765039.96844   2933783.37544  24736108.1784   24736114.8474
 95  6 15  0 49  0.0000000  0  7G23G26G22G21G20G17G 6
 -20961393.62544 -16333520.59744  21228050.7254   21228052.5994
 -15794197.32244 -12307136.26944  22093816.4414   22093817.3554
  -2738066.29944  -2133556.10244  23660103.3234   23660110.0884
  -7821092.67444  -6094338.90244  24129107.4844   24129114.1664
   3865881.71244   3012361.10744  24755297.8564   24755303.4024
 -25316167.41044 -19726859.26744  20709096.1214   20709097.4664
 -25428853.06744 -19814679.61244  20665707.6864   20665708.9104
 95  6 15  0 49 30.0000000  0  7G23G26G22G21G17G 6G20
 -21011405.09244 -16372490.53644  21218533.9264   21218535.9834
 -15800269.88344 -12311868.12144  22092660.9844   22092662.0294
  -2753285.84244  -2145415.52344  23657207.4694   23657212.2574
  -7912053.12744  -6165217.04244  24111798.2714   24111804.4704
 -25332400.91344 -19739508.74344  20706006.5634   20706007.9034
 -25379018.62644 -19775847.61444  20675190.9164   20675192.2244
   3966612.88944   3090852.70244  24774466.9714   24774475.4114
 95  6 15  0 50  0.0000000  0  7G23G26G22G21G17G 6G20
 -21061111.78544 -16411222.99144  21209075.0394   21209077.2324
 -15805866.04944 -12316228.75444  22091595.6514   22091596.9324
  -2768063.29744  -2156930.45144  23654395.2214   23654400.3144
  -8002870.90044  -6235983.93144  24094516.2554   24094521.6004
 -25348473.33744 -19752032.70444  20702948.3024   20702949.6494
 -25328799.95044 -19736716.21344  20684747.3324   20684748.5304
   4067176.99744   3169214.06644  24793603.7184   24793612.1574
 95  6 15  0 50 30.0000000  0  7G23G26G22G21G17G 6G20
 -21110474.62244 -16449687.50444  21199681.5464   21199683.6134
 -15810958.63944 -12320196.98444  22090626.7074   22090627.7044
  -2782372.48044  -2168080.47644  23651672.3264   23651675.5044
  -8093527.14744  -6306624.99544  24077264.9634   24077271.1854
 -25364357.86544 -19764410.25444  20699925.6144   20699926.8784
 -25278149.62944 -19697248.46144  20694385.7134   20694387.1824
   4167606.75944   3247470.77044  24812714.9844   24812722.6564
 95  6 15  0 51  0.0000000  0  7G23G26G22G21G20G17G 6
 -21159457.52344 -16487855.96944  21190360.2994   21190362.3034
 -15815549.08544 -12323773.94044  22089753.2804   22089754.8554
  -2796212.11944  -2178864.61244  23649038.6474   23649039.6524
  -8184023.19144  -6377141.23044  24060043.8014   24060049.6874
   4267893.30244   3325615.90044  24831798.9504   24831810.3684
 -25380058.03644 -19776644.15544  20696937.8544   20696939.1694
 -25227048.89844 -19657429.74044  20704109.8324   20704111.2504
 95  6 15  0 51 30.0000000  0  7G23G26G22G21G17G 6G20
 -21208051.85744 -16525721.65944  21181113.1614   21181115.2544
 -15819622.60944 -12326948.09744  22088978.1014   22088979.3274
  -2809566.48644  -2189270.59544  23646497.6644   23646499.5574
  -8274367.62844  -6447539.33444  24042851.6764   24042855.3344
 -25395591.73444 -19788748.33044  20693982.0254   20693983.3844
 -25175481.81144 -19617247.62044  20713922.7874   20713924.0724
   4368027.12544                  24850854.2554
 95  6 15  0 52  0.0000000  0  7G23G26G22G21G20G17G 6
 -21256214.93444 -16563251.30044  21171947.9014   21171950.1054
 -15823126.69644 -12329678.54144  22088311.0864   22088312.1644
  -2822395.23844  -2199267.03344  23644056.4614   23644058.5604
  -8364518.20844  -6517786.39244  24025696.4664   24025702.4564
   4468036.32644   3481570.95044  24869885.2824
 -25410939.40444 -19800707.54744  20691061.2704   20691062.7304
 -25123402.64444 -19576666.48644  20723833.1054   20723834.4334
 95  6 15  0 52 30.0000000  0  7G23G26G22G21G17G 6G20
 -21303929.71144 -16600431.61844  21162868.1994   21162870.2044
 -15826029.25444 -12331940.25744  22087759.0404   22087759.9344
  -2834676.77344  -2208837.05744  23641719.2974   23641722.3584
  -8454451.58044  -6587864.17544  24008582.6824   24008587.2044
 -25426074.58944 -19812501.19644  20688181.2304   20688182.6854
 -25070792.92144 -19535671.92744  20733844.4794   20733845.7924
   4567931.61044   3559411.15144  24888894.4344   24888901.4484
 95  6 15  0 53  0.0000000  0  7G23G26G22G21G20G17G 6
 -21351227.79644 -16637287.24444  21153867.6384   21153869.7544
 -15828343.25644 -12333743.35644  22087318.7054   22087319.0574
  -2846441.03344  -2218003.99044  23639480.5994   23639483.0134
  -8544191.37244  -6657791.12544  23991505.7484   23991511.7104
   4667686.62144   3637142.05744  24907877.3544   24907887.0344
 -25441016.74144 -19824144.42644  20685338.0184   20685339.5284
 -25017676.83744 -19494282.80844  20743952.2384   20743953.6524
 95  6 15  0 53 30.0000000  0  7G23G26G22G21G17G 6G20
 -21398131.39744 -16673835.47144  21144942.1504   21144944.2654
 -15830063.38444 -12335083.69844  22086991.2584   22086991.8634
  -2857683.59844  -2226764.44844  23637341.5514   23637342.8784
  -8633751.56344  -6727578.13244  23974462.7904   23974467.5684
 -25455764.76944 -19835636.39144  20682531.5204   20682532.9024
 -24964063.01144 -19452505.83244  20754154.6934   20754155.8014
   4767304.41244   3714766.04844  24926834.2844   24926845.4544
 95  6 15  0 54  0.0000000  0  7G23G26G22G21G17G 6G20
 -21444646.30544 -16710080.81644  21136090.6514   21136092.5874
 -15831187.84244 -12335959.88244  22086777.3414   22086777.9664
  -2868397.35444  -2235112.81844  23635302.4934   23635304.6264
  -8723121.67044  -6797217.04244  23957455.8214   23957460.0704
 -25470283.61344 -19846949.77144  20679768.3574   20679769.9224
 -24909960.62744 -19410348.16044  20764450.0764   20764451.4534
   4866799.54044   3792294.42744  24945768.2864
 95  6 15  0 54 30.0000000  0  7G23G26G22G21G17G 6G20
 -21490799.03544 -16746043.95244  21127308.0254   21127309.9944
 -15831746.17044 -12336394.91144  22086670.9964   22086671.9544
  -2878608.83444  -2243069.83244  23633359.2314   23633361.8264
  -8812342.95944  -6866739.96144  23940477.9484   23940482.6214
 -25484580.98444 -19858090.57444  20677047.9494   20677049.4984
 -24855388.49144 -19367824.45244  20774834.8114   20774836.1854
   4966153.62244   3869712.89244  24964674.5754
 95  6 15  0 55  0.0000000  0  7G23G26G22G21G17G 6G20
 -21536584.88244 -16781721.20844  21118595.2184   21118597.3504
 -15831748.05344 -12336396.35744  22086670.8714   22086671.6064
  -2888333.89944  -2250647.81144  23631508.7144   23631510.4754
  -8901423.61344  -6936153.31544  23923526.1714   23923529.7764
 -25498661.75844 -19869062.60644  20674368.2384   20674369.6454
 -24800345.31244 -19324933.70344  20785309.2454   20785310.4094
   5065355.23044                  24983552.4524
 95  6 15  0 55 30.0000000  0  7G23G26G22G21G17G 6G20
 -21581986.80844 -16817099.30644  21109955.5604   21109957.6854
 -15831192.40844 -12335963.36744  22086776.3454   22086777.2904
  -2897556.97544  -2257834.64544  23629753.6484   23629756.4894
  -8990343.22744  -7005441.21244  23906605.2314   23906609.5474
 -25512515.16744 -19879857.46744  20671731.9754   20671733.4464
 -24744830.90244 -19281675.75244  20795873.2764   20795874.4374
   5164414.47344   4024201.24244  25002403.1814
 95  6 15  0 56  0.0000000  0  7G23G26G22G21G17G 6G20
 -21626985.50044 -16852163.19444  21101392.6804   21101394.7594
 -15830080.16344 -12335096.66444  22086987.9904   22086988.6624
  -2906286.87744  -2264637.15244  23628092.2924   23628095.0564
  -9079076.47144  -7074583.84744  23889719.6114   23889726.2804
 -25526142.80544 -19890476.40044  20669138.6384   20669140.0374
 -24688836.03344 -19238043.41844  20806528.7704   20806530.0684
   5263332.02744   4101279.51844  25021226.8004
 95  6 15  0 56 30.0000000  0  7G23G26G22G21G17G 6G20
 -21671550.52444 -16886889.15844  21092912.1404   21092914.1884
 -15828392.72844 -12333781.76144  22087309.1994   22087310.1684
  -2914515.83144  -2271049.33644  23626526.6754   23626529.8934
  -9167602.23944  -7143564.83844  23872873.5054   23872878.3084
 -25539554.26144 -19900926.87544  20666586.7364   20666588.1254
 -24632336.15044 -19194017.56844  20817280.3254   20817281.5004
   5362112.61444   4178251.10744  25040024.1154   25040030.5524
 95  6 15  0 57  0.0000000  0  7G23G26G22G21G17G 6G20
 -21715674.98744 -16921271.82844  21084515.4784   21084517.5524
 -15826122.92044 -12332013.07044  22087740.8844   22087742.4224
  -2922228.50644  -2277059.24544  23625058.4494   23625060.7274
  -9255886.17144  -7212357.36144  23856073.6714   23856078.2234
 -25552756.77144 -19911214.53644  20664074.5264   20664076.0224
 -24575341.29344 -19149606.02144  20828125.9304   20828127.5084
   5460767.50044   4255124.70544  25058797.7444
 95  6 15  0 57 30.0000000  0  7G23G26G22G21G17G 6G20
 -21759387.55244 -16955333.53944  21076197.1784   21076199.0974
 -15823281.17244 -12329798.70644  22088281.5704   22088283.0164
  -2929421.67144  -2282664.32744  23623689.9114   23623693.0244
  -9343945.69244  -7280975.04144  23839316.6954   23839320.4114
 -25565778.80444 -19921361.57044  20661596.5104   20661597.8284
 -24517866.27944 -19104820.32944  20839063.0884   20839064.2844
   5559279.76844                  25077544.3864
 95  6 15  0 58  0.0000000  0  7G23G26G22G21G17G 6G20
 -21802673.02044 -16989062.44844  21067960.2224   21067962.1944
 -15819835.41844 -12327113.69144  22088937.2524   22088938.4444
  -2936073.86544  -2287847.83444  23622424.1024   23622426.7934
  -9431765.99144  -7349406.28544  23822605.1504   23822609.4594
 -25578592.50844 -19931346.27144  20659157.7524   20659159.1774
 -24459880.70644 -19059636.78544  20850097.4474   20850098.8674
   5657673.14144                  25096268.2154
 95  6 15  0 58 30.0000000  0  7G23G26G22G21G17G 6G20
 -21845551.90544 -17022474.53144  21059800.7354   21059802.7094
 -15815791.75644 -12323962.77244  22089707.0814   22089708.0774
  -2942195.59244  -2292618.06344  23621259.0334   23621261.6434
  -9519377.08844  -7417674.51544  23805933.1444   23805938.0624
 -25591213.15644 -19941180.53744  20656756.3134   20656757.6584
 -24401407.99244 -19014073.65744  20861224.5254   20861225.7924
   5755931.32544   4485121.47644  25114966.4074
 95  6 15  0 59  0.0000000  0  7G23G26G22G21G17G 6G20
 -21888055.37844 -17055594.08544  21051712.5254   21051714.3964
 -15811167.10044 -12320359.13444  22090586.9534   22090587.8204
  -2947811.71344  -2296994.23344  23620190.3694   23620192.5224
  -9606812.54744  -7485805.91444  23789294.0234   23789297.4524
 -25603651.74444 -19950872.93544  20654389.5274   20654390.6924
 -24342470.32644 -18968148.23444  20872439.9204   20872441.1454
   5854032.26144                  25133634.8454
 95  6 15  0 59 30.0000000  0  7G23G26G22G21G17G 6G20
 -21930173.25444 -17088413.17844  21043697.6754   21043699.5624
 -15805942.06144 -12316287.66244  22091581.1254   22091581.9744
  -2952923.03344  -2300977.11144  23619217.8474   23619220.1244
  -9694082.29144  -7553808.20044  23772687.1004   23772691.2794
 -25615890.63044 -19960409.72144  20652060.3934   20652061.6284
 -24283053.91844 -18921849.75744  20883746.5954   20883748.1254
   5951974.52944                  25152272.7514
 95  6 15  1  0  0.0000000  0  7G23G26G22G21G17G 6G20
 -21971912.94644 -17120937.58344  21035754.7584   21035756.7594
 -15800143.22444 -12311769.08144  22092684.6764   22092685.7284
  -2957548.93444  -2304581.72844  23618337.7374   23618339.3054
  -9781203.35744  -7621694.60044  23756108.5274   23756112.3364
 -25627937.21544 -19969796.66144  20649768.1514   20649769.3774
 -24223182.26344 -18875196.54844  20895139.7554   20895141.3554
   6049752.19544   4714071.81444  25170879.2804
 95  6 15  1  0 30.0000000  0  7G23G26G22G21G17G 6G20
 -22013261.18344 -17153156.94944  21027886.5364   21027888.3734
 -15793766.60344 -12306800.27344  22093898.1594   22093899.2154
  -2961678.52944  -2307799.61544  23617551.7814   23617554.9794
  -9868165.49644  -7689457.16144  23739559.9534   23739564.6304
 -25639788.15544 -19979031.14744  20647512.9404   20647514.3384
 -24162851.33944 -18828185.46444  20906620.3464   20906621.9444
   6147365.75844                  25189454.7874
 95  6 15  1  1  0.0000000  0  7G23G26G22G21G17G 6G20
 -22054218.31544 -17185071.56144  21020092.6754   21020094.5894
 -15786816.06044 -12301384.25444  22095220.6004   22095221.7414
  -2965314.36244  -2310632.73944  23616859.9744   23616862.6704
  -9954959.99944  -7757089.08544  23723043.2604   23723047.8714
 -25651434.68444 -19988106.35844  20645296.7864   20645298.2084
 -24102059.46944 -18780815.20444  20918188.8094   20918190.3074
   6244806.09944                  25207997.6574
 95  6 15  1  1 30.0000000  0  7G23G26G22G21G17G 6G20
 -22094773.78044 -17216673.18544  21012375.0944   21012377.0244
 -15779296.99844 -12295525.23944  22096651.5494   22096652.0834
  -2968436.02644  -2313065.23544  23616266.0354   23616266.5944
 -10041565.61344  -7824573.85644  23706562.7534   23706567.0854
 -25662872.61944 -19997019.03144  20643120.0744   20643121.5664
 -24040805.07744 -18733084.52844  20929845.1424   20929846.4034
   6342078.02944   4941857.12444  25226508.4854
 95  6 15  1  2  0.0000000  0  7G23G26G22G21G17G 6G20
 -22134928.13444 -17247962.25244  21004733.9394   21004735.6744
 -15771218.37044 -12289230.18544  22098188.7844   22098189.4314
  -2971050.22744  -2315102.30144  23615768.0854   23615771.0254
 -10127976.03844  -7891906.55544  23690119.4804   23690124.4014
 -25674097.34244 -20005765.56544  20640984.1124   20640985.5564
 -23979087.07844 -18684992.60944  20941589.6584   20941590.8974
   6439180.55944                  25244986.4274
 95  6 15  1  2 30.0000000  0  7G23G26G22G21G17G 6G20
 -22174689.94044 -17278945.44044  20997167.5354   20997169.4544
 -15762585.41944 -12282503.19944  22099831.5254   22099832.7604
  -2973185.66744  -2316766.29944  23615362.1234   23615365.6734
 -10214190.62744  -7959086.65644  23673713.1594   23673717.3694
 -25685125.95244 -20014359.29044  20638885.2254   20638886.6784
 -23916917.77244 -18636549.02144  20953420.1964   20953421.6754
   6536079.65344                  25263425.4684
 95  6 15  1  3  0.0000000  0  7G23G26G22G21G17G 6G20
 -22214049.94744 -17309615.53744  20989677.4674   20989679.5624
 -15753385.81244 -12275334.66544  22101582.1194   22101583.1804
  -2974814.81144  -2318035.78844  23615052.1224   23615054.8394
 -10300185.95844  -8026095.92144  23657348.9734   23657354.2494
 -25695950.04444 -20022793.64544  20636825.4644   20636826.8984
 -23854282.18044 -18587742.09144  20965339.2524   20965340.6524
   6632786.22644                  25281828.7614
 95  6 15  1  3 30.0000000  0  7G26G22G23G21G17G 6G20
 -15743605.90244 -12267713.94344  22103443.0654   22103443.6464
  -2975908.05644  -2318887.70444  23614844.0914   23614846.0054
 -22253005.22644 -17339970.26744  20982264.5464   20982266.2174
 -10385950.79844  -8092925.58344  23641028.2094   23641033.2124
 -25706564.26744 -20031064.46244  20634805.6244   20634807.0304
 -23791172.03444 -18538565.37544  20977348.6684   20977350.1944
   6729309.16044                  25300197.1134
 95  6 15  1  4  0.0000000  0  7G26G 6G22G21G23G17G20
 -15733256.03444 -12259649.09944  22105412.6764   22105413.5774
 -23727612.39644 -18489038.41144  20989443.6394   20989445.0714
  -2976487.64944  -2319339.34544  23614733.4554   23614735.6684
 -10471507.55044  -8159593.06644  23624747.1694   23624751.2774
 -22291577.39444 -17370026.46744  20974924.4184   20974926.2614
 -25716984.95244 -20039184.47444  20632822.4964   20632823.9624
   6825615.31944                  25318523.3444
 95  6 15  1  4 30.0000000  0  7G26G 6G22G23G21G17G20
 -15722330.26844 -12251135.50744  22107491.9524   22107492.6014
 -23663603.73444 -18439161.56744  21001624.1354   21001625.7494
  -2976533.52444  -2319375.11244  23614724.7774   23614728.4124
 -22329761.33344 -17399780.15044  20967658.1884   20967660.1564
 -10556843.04744  -8226088.16444  23608508.2754   23608512.0434
 -25727211.14744 -20047152.93044  20630876.6264   20630878.1704
   6921699.00844                  25336807.6384
 95  6 15  1  5  0.0000000  0  7G26G 6G22G21G23G17G20
 -15710853.34844 -12242192.44844  22109675.9494   22109676.4824
 -23599163.16744 -18388948.17044  21013886.8664   21013888.2664
  -2976058.73344  -2319005.17044  23614815.4894   23614819.3114
 -10641984.88844  -8292432.35044  23592306.5394   23592309.8744
 -22367580.40144 -17429249.51644  20960461.5184   20960463.4504
 -25737243.59044 -20054970.41244  20628967.6534   20628969.1754
   7017549.07044                  25355047.7494
 95  6 15  1  5 30.0000000  0  7G26G 6G22G21G23G17G20
 -15698836.45144 -12232828.62044  22111962.6314   22111963.5204
 -23534306.20744 -18338410.31244  21026228.5684   21026230.1704
  -2975103.01344  -2318260.49144  23614997.1754   23614999.6354
 -10726949.65444  -8358638.55844  23576138.3824   23576141.5604
 -22405034.78244 -17458434.71144  20953334.1514   20953335.9534
 -25747076.20444 -20062632.18444  20627096.4364   20627097.7764
   7113167.73844                  25373243.4344
 95  6 15  1  6  0.0000000  0  7G26G 6G22G21G20G23G17
 -15686284.82544 -12223048.12944  22114351.1694   22114351.9774
 -23469026.75744 -18287543.24544  21038650.9894   21038652.4094
  -2973696.79144  -2317164.75844  23615265.0144   23615266.4914
 -10811735.47544  -8424705.34444  23560003.8594   23560007.4124
   7208571.43044                  25391398.1074
 -22442107.75744 -17487322.70644  20946279.4134   20946281.1574
 -25756703.29544 -20070133.80744  20625264.6514   20625265.9574
 95  6 15  1  6 30.0000000  0  7G26G 6G22G23G21G17G20
 -15673188.89244 -12212843.49444  22116843.2124   22116844.5904
 -23403304.86444 -18236331.41744  21051157.4374   21051158.9664
  -2971839.65244  -2315717.67244  23615618.4374   23615620.2924
 -22478786.16244 -17515903.24744  20939299.6264   20939301.3444
 -10896333.33344  -8490625.67744  23543905.4934   23543908.6844
 -25766110.12844 -20077463.80544  20623474.8344   20623476.0274
   7303793.40744                  25409518.9964
 95  6 15  1  7  0.0000000  0  7G 6G26G22G21G20G23G17
 -23337116.95944 -18184756.46244  21063752.4794   21063754.0384
 -15659520.91044 -12202193.10944  22119444.1284   22119444.8264
  -2969521.51244  -2313911.35644  23616059.6964   23616062.7374
 -10980734.05644  -8556392.38844  23527844.3764   23527849.1574
   7398877.28444                  25427613.9044
 -22515048.24144 -17544159.37944  20932399.1694   20932400.8664
 -25775277.31244 -20084607.05544  20621730.0104   20621731.3314
 95  6 15  1  7 30.0000000  0  7G 6G26G22G21G23G17G20
 -23270451.17944 -18132809.13644  21076438.8434   21076440.2304
 -15645253.08544 -12191075.31644  22122159.3644   22122160.3594
  -2966725.15844  -2311732.41244  23616591.8574   23616594.0344
 -11064929.56544  -8621999.21944  23511822.2484   23511826.1824
 -22550882.59844 -17572082.21644  20925580.1804   20925581.7234
 -25784211.55544 -20091568.79844  20620029.6464   20620031.1064
   7493840.17144   5839329.84344  25445684.3354
 95  6 15  1  8  0.0000000  0  7G26G 6G22G21G20G23G17
 -15630374.10944 -12179481.29644  22124990.5544   22124991.9574
 -23203285.53144 -18080472.30644  21089219.9354   21089221.6254
  -2963417.43644  -2309154.98544  23617221.2734   23617224.1234
 -11148916.95644  -8687443.85444  23495840.0844   23495843.1594
   7588675.19444                  25463731.1434
 -22586287.87644 -17599670.70944  20918842.7504   20918844.4264
 -25792921.49944 -20098355.76144  20618372.1944   20618373.7774
 95  6 15  1  8 30.0000000  0  7G 6G26G22G21G23G17G20
 -23135614.43644 -18027741.61844  21102097.2644   21102098.7714
 -15614867.22244 -12167397.99244  22127941.3414   22127941.8794
  -2959569.35544  -2306156.53344  23617953.4824   23617956.9234
 -11232689.80044  -8752721.30244  23479898.5924   23479901.6024
 -22621257.60544 -17626919.81044  20912188.2294   20912189.8044
 -25801399.32944 -20104961.85544  20616758.9324   20616760.5144
   7683367.07644                  25481749.6744
 95  6 15  1  9  0.0000000  0  7G26G 6G22G21G20G23G17
 -15598737.12044 -12154829.07144  22131010.9074   22131011.4684
 -23067449.57844 -17974626.17544  21115068.7374   21115070.1244
  -2955191.11744  -2302744.96644  23618786.3664   23618790.1814
 -11316252.90544  -8817835.31744  23463996.7334   23464000.6074
   7777885.02744                  25499736.9414
 -22655795.21644 -17653832.19644  20905615.9064   20905617.5804
 -25809659.24344 -20111398.14444  20615187.2654   20615188.7934
 95  6 15  1  9 30.0000000  0  7G26G 6G22G23G21G17G20
 -15581995.67744 -12141783.77544  22134196.5304   22134196.9524
 -22998799.03244 -17921132.28344  21128132.6404   21128134.2254
  -2950275.93244  -2298914.98344  23619721.5474   23619724.6624
 -22689907.52844 -17680413.18444  20899124.3704   20899126.1084
 -11399595.04944  -8882777.17044  23448137.0164   23448140.7074
 -25817701.82344 -20117665.07744  20613656.6914   20613658.0774
   7872197.09044                  25517683.9754
 95  6 15  1 10  0.0000000  0  7G26G 6G22G21G20G23G17
 -15564679.16444 -12128290.38144  22137491.3704   22137492.5354
 -22929704.69544 -17867292.58344  21141280.7994   21141282.2674
  -2944860.75644  -2294695.39444  23620752.2574   23620754.9224
 -11482720.83844  -8947550.41944  23432318.9764   23432322.4234
   7966260.82944                  25535583.7424
 -22723621.23444 -17706683.57344  20892708.8254   20892710.4774
 -25825539.89544 -20123772.65544  20612165.1204   20612166.2544
 95  6 15  1 10 30.0000000  0  7G26G 6G22G21G23G17G20
 -15546777.52344 -12114341.04044  22140898.1194   22140898.9454
 -22860183.66544 -17813120.38544  21154510.3554   21154511.8744
  -2938964.25244  -2290100.77544  23621874.6374   23621878.4224
 -11565612.93144  -9012141.57844  23416544.9554   23416549.3534
 -22756931.20444 -17732639.36244  20886370.1594   20886371.7674
 -25833156.09244 -20129707.34344  20610715.8124   20610717.0644
   8060079.87744                  25553437.0774
 95  6 15  1 11  0.0000000  0  7G26G22G21G 6G23G17G20
 -15528280.90844 -12099928.08644  22144418.0914   22144418.6624
  -2932571.44844  -2285119.37744  23623090.9234   23623094.5404
 -11648257.13244  -9076539.57244  23400818.2844   23400821.8514
 -22790235.86344 -17758615.64044  21167820.8254   21167822.4084
 -22789847.32644 -17758288.25644  20880106.4164   20880108.0754
 -25840539.17244 -20135460.38044  20609310.8734   20609312.0734
   8153673.41644                  25571248.1884
 95  6 15  1 11 30.0000000  0  7G26G22G21G23G17G 6G20
 -15509212.75244 -12085069.76544  22148046.6584   22148047.1964
  -2925686.33944  -2279754.40544  23624401.5404   23624403.8474
 -11730663.74144  -9140752.43744  23385136.6074   23385139.7944
 -22822400.67544 -17783654.47044  20873911.6634   20873913.3824
 -25847706.20844 -20141045.07744  20607946.9724   20607948.2384
 -22719886.98544 -17703798.36944  21181207.6444   21181209.2914
   8247029.29144                  25589012.7994
 95  6 15  1 12  0.0000000  0  7G26G22G21G 6G23G17G20
 -15489570.33144 -12069763.98144  22151784.4624   22151784.9234
  -2918319.97744  -2274014.43244  23625803.0224   23625806.0064
 -11812830.72744  -9204778.61044  23369500.7084   23369504.4964
 -22649129.55644 -17648662.74744  21194672.4834   21194674.2294
 -22854580.01144 -17808729.24644  20867788.1004   20867789.8794
 -25854666.03044 -20146468.30344  20606622.7634   20606624.1464
   8340163.61444                  25606736.5014
 95  6 15  1 12 30.0000000  0  7G26G22G21G23G17G 6G20
 -15469371.16544 -12054024.35544  22155628.3224   22155629.2634
  -2910461.93644  -2267891.31844  23627298.1204   23627302.0444
 -11894782.88644  -9268637.37944  23353906.0764   23353909.1574
 -22886387.70644 -17833514.43744  20861735.3024   20861736.9374
 -25861435.73144 -20151743.39044  20605334.3224   20605335.7424
 -22577946.26844 -17593195.29144  21208218.2384   21208219.6304
   8433086.95544                  25624419.6284
 95  6 15  1 13  0.0000000  0  7G26G22G21G 6G23G17G20
 -15448654.51244 -12037881.49244  22159570.3264   22159571.4134
  -2902120.12944  -2261391.25544  23628885.6044   23628888.8074
 -11976542.01244  -9332345.73544  23338347.7124   23338351.2504
 -22506349.40644 -17537405.56744  21221842.8884   21221844.3794
 -22917847.37744 -17858028.44344  20855748.6714   20855750.4424
 -25868044.73144 -20156893.25144  20604076.6104   20604078.0924
   8525778.88044                  25642058.4354
 95  6 15  1 13 30.0000000  0  7G22G21G26G23G17G 6G20
  -2893323.04244  -2254536.41444  23630559.7514   23630562.3454
 -12058124.95944  -9395916.78944  23322822.5344   23322826.5094
 -15427445.01944 -12021354.61244  22163606.3424   22163607.4224
 -22948949.40344 -17882263.76144  20849830.0864   20849831.8264
 -25874519.75844 -20161938.71844  20602844.9804   20602846.3104
 -22434343.49044 -17481297.09444  21235545.0774   21235546.6494
   8618222.86244                  25659649.7734
 95  6 15  1 14  0.0000000  0  7G22G21G26G 6G23G17G20
  -2884059.04544  -2247317.77544  23632322.4774   23632325.0964
 -12139529.49744  -9459348.83544  23307331.8014   23307334.9474
 -15405717.39744 -12004423.98644  22167741.0274   22167741.4884
 -22361892.53344 -17424841.84144  21249331.9584   21249333.5164
 -22979660.91444 -17906194.78144  20843985.8054   20843987.4614
 -25880831.68844 -20166857.09244  20601643.4654   20601644.6984
   8710437.38044                  25677198.3484
 95  6 15  1 14 30.0000000  0  6G22G21G26G 6G23G17
  -2874312.74044  -2239723.27544  23634177.0434   23634180.2304
 -12220749.07344  -9522636.72944  23291876.4674   23291879.6944
 -15383456.76244 -11987078.03044  22171976.9614   22171978.0404
 -22288994.70244 -17368038.38144  21263204.1284   21263205.7364
 -23009988.10744 -17929826.33144  20838214.9234   20838216.4384
 -25886957.61544 -20171630.53144  20600477.5644   20600478.9304
 95  6 15  1 15  0.0000000  0  6G22G21G26G 6G23G17
  -2864083.88444  -2231752.79144  23636124.0764   23636126.6214
 -12301758.43344  -9585760.83844  23276460.9644   23276463.2684
 -15360631.07144 -11969291.76344  22176320.5904   22176322.2354
 -22215656.63444 -17310891.87244  21277159.8514   21277161.4684
 -23039918.94844 -17953149.03744  20832519.1204   20832520.6644
 -25892879.10244 -20176244.66944  20599350.8534   20599352.1224
 95  6 15  1 15 30.0000000  0  6G22G21G26G 6G23G17
  -2853392.97644  -2223422.24044  23638158.2584   23638161.4484
 -12382565.30644  -9648727.16344  23261083.6844   23261087.5984
 -15337239.13744 -11951064.27844  22180771.7934   22180772.8624
 -22141891.01344 -17253412.21344  21291197.0234   21291198.9824
 -23069457.67544 -17976166.19444  20826898.0344   20826899.7314
 -25898593.29844 -20180697.28244  20598263.4084   20598264.6884
 95  6 15  1 16  0.0000000  0  6G22G21G26G 6G23G17
  -2842203.68644  -2214703.33744  23640287.9904   23640291.5314
 -12463120.63844  -9711497.47444  23245754.4384   23245757.6084
 -15313233.21844 -11932358.35444  22185340.1124   22185341.0734
 -22067667.38144 -17195575.65844  21305321.1734   21305322.8714
 -23098585.25844 -17998862.98644  20821355.2524   20821356.8004
 -25904041.42544 -20184942.56344  20597226.5574   20597227.8744
 95  6 15  1 16 30.0000000  0  6G22G21G26G 6G23G17
  -2830521.38344  -2205600.30444  23642510.7724   23642513.1734
 -12543406.14244  -9774057.53544  23230476.4824   23230480.4354
 -15288612.73444 -11913173.55044  22190025.1384   22190025.6964
 -21993008.17944 -17137399.69244  21319528.3724   21319530.1584
 -23127309.39044 -18021245.40744  20815889.1414   20815890.6124
 -25909228.14144 -20188984.15044  20596239.4654   20596240.9014
 95  6 15  1 17  0.0000000  0  6G22G21G26G 6G23G17
  -2818397.08344  -2196152.82044  23644817.9084   23644821.1514
 -12623473.20244  -9836447.37644  23215240.2314   23215244.4764
 -15263428.05244 -11893549.11144  22194817.5174   22194818.4604
 -21917956.96044 -17078918.26044  21333810.1204   21333811.8554
 -23155660.84444 -18043337.42944  20810493.9044   20810495.5684
 -25914189.54144 -20192850.17544  20595295.3714   20595296.6964
 95  6 15  1 17 30.0000000  0  6G22G21G26G 6G23G17
  -2805833.81044  -2186363.30544  23647208.2424   23647211.9524
 -12703332.56344  -9898675.38344  23200043.3964   23200047.2044
 -15237687.75144 -11873491.72644  22199715.7244   22199716.3714
 -21842502.97844 -17020122.99644  21348168.6494   21348170.0654
 -23183646.07444 -18065144.07344  20805168.5484   20805170.0214
 -25918924.02044 -20196539.37844  20594394.5004   20594395.7964
 95  6 15  1 18  0.0000000  0  6G22G21G26G 6G23G17
  -2792792.50144  -2176201.28144  23649690.3984   23649693.7074
 -12782959.36344  -9960722.16844  23184890.8494   23184894.9274
 -15211360.56444 -11852977.02744  22204725.6064   22204726.8994
 -21766619.16244 -16960992.79944  21362608.7924   21362610.3524
 -23211242.39944 -18086647.67444  20799917.1874   20799918.7904
 -25923415.24144 -20200039.03144  20593539.6404   20593541.0844
 95  6 15  1 18 30.0000000  0  6G22G21G26G 6G23G17
  -2779291.90044  -2165681.38444  23652259.4684   23652262.0764
 -12862397.14544 -10022621.65044  23169774.1624   23169778.4414
 -15184484.55444 -11832034.67344  22209840.1044   22209841.2384
 -21690335.43544 -16901550.98144  21377125.0964   21377126.7764
 -23238460.28144 -18107856.38344  20794737.7074   20794739.3024
 -25927699.73744 -20203377.60144  20592724.3404   20592725.7254
 95  6 15  1 19  0.0000000  0  6G22G21G26G 6G23G17
  -2765326.71744  -2154799.46344  23654917.1644   23654920.1704
 -12941650.01644 -10084377.04244  23154692.9264   23154696.1534
 -15157062.12044 -11810666.55144  22215058.2634   22215059.5104
 -21613648.63744 -16841795.07544  21391718.3114   21391720.1294
 -23265294.02244 -18128765.76344  20789631.3704   20789632.7704
 -25931776.62244 -20206554.39244  20591948.6434   20591950.0704
 95  6 15  1 19 30.0000000  0  6G22G21G26G 6G23G17
  -2750868.51944  -2143533.38644  23657668.0984   23657671.1544
 -13020683.21944 -10145961.26944  23139653.3534   23139656.6084
 -15129064.69644 -11788850.36544  22220385.9354   22220387.1694
 -21536545.20144 -16781714.51944  21406390.5564   21406392.3914
 -23291724.19844 -18149360.68044  20784601.9364   20784603.4304
 -25935635.94644 -20209561.65544  20591214.4114   20591215.7744
 95  6 15  1 20  0.0000000  0  6G22G21G26G 6G23G17
  -2735907.35144  -2131875.38244  23660515.1364   23660517.9114
 -13099488.30644 -10207367.73944  23124657.1124   23124659.6164
 -15100501.52944 -11766593.34144  22225821.2344   22225822.2404
 -21459035.65944 -16721317.52044  21421140.2304   21421141.8834
 -23317738.69344 -18169631.68944  20779651.5264   20779653.0124
 -25939271.34444 -20212394.42544  20590522.6394   20590524.0234
 95  6 15  1 20 30.0000000  0  6G22G21G26G 6G23G17
  -2720457.13344  -2119836.29944  23663455.4664   23663457.0294
 -13178067.63244 -10268598.29044  23109703.9114   23109707.1044
 -15071380.25444 -11743901.43144  22231363.0304   22231363.9164
 -21381124.50744 -16660607.58244  21435966.1524   21435967.8744
 -23343332.81344 -18189575.13044  20774781.1424   20774782.8354
 -25942667.85544 -20215041.05744  20589876.4534   20589877.6274
 95  6 15  1 21  0.0000000  0  6G22G21G26G 6G23G17
  -2704530.21844  -2107425.75444  23666486.4234   23666489.5864
 -13256413.04344 -10329646.58244  23094795.3684   23094798.5774
 -15041698.11644 -11720772.49544  22237011.5154   22237012.2324
 -21302802.92644 -16599577.81944  21450870.4764   21450872.2694
 -23368521.83144 -18209202.90844  20769987.7074   20769989.2724
 -25945824.03744 -20217500.41844  20589275.6314   20589276.9054
 95  6 15  1 21 30.0000000  0  6G22G21G26G 6G23G17
  -2688113.27644  -2094633.38444  23669610.2524   23669613.3214
 -13334510.80644 -10390501.88644  23079933.3624   23079936.4124
 -15011457.76344 -11697208.57044  22242765.8584   22242766.2834
 -21224040.41244 -16538204.47444  21465858.4044   21465860.0634
 -23393294.06644 -18228505.92444  20765273.5804   20765275.0804
 -25948726.53344 -20219762.10044  20588723.1854   20588724.4564
 95  6 15  1 22  0.0000000  0  6G22G21G26G 6G23G17
  -2671208.70844  -2081461.04444  23672827.3634   23672830.4834
 -13412356.16544 -10451160.52344  23065119.9864   23065123.0854
 -14980664.70544 -11673213.97844  22248625.8094   22248626.4774
 -21144826.32144 -16476479.25744  21480932.3364   21480934.2794
 -23417654.16544 -18247487.79344  20760638.0344   20760639.5824
 -25951376.36244 -20221826.89744  20588218.9384   20588220.0814
 95  6 15  1 22 30.0000000  0  6G22G21G26G 6G23G17
  -2653828.67144  -2067918.19544  23676134.4574   23676137.7814
 -13489937.73944 -10511613.60044  23050356.5684   23050359.7914
 -14949302.14544 -11648775.61744  22254593.8494   22254594.5874
 -21065151.89444 -16414395.33744  21496093.8014   21496095.8804
 -23441612.25344 -18266156.40344  20756078.9364   20756080.3734
 -25953786.24344 -20223704.72244  20587760.3264   20587761.6054
 95  6 15  1 23  0.0000000  0  6G22G21G26G 6G23G17
  -2635986.72244  -2054015.41644  23679529.4564   23679532.5754
 -13567252.65344 -10571858.90144  23035644.1444   23035646.9974
 -14917379.36044 -11623900.71844  22260668.2954   22260669.1224
 -20985022.30644 -16351956.74244  21511341.9014   21511343.8844
 -23465187.22144 -18284526.47944  20751592.7934   20751594.1344
 -25955982.29544 -20225415.92644  20587342.3644   20587343.7184
 95  6 15  1 23 30.0000000  0  6G22G21G26G 6G23G17
  -2617696.89544  -2039763.61844  23683010.0174   23683012.7154
 -13644306.07344 -10631900.45444  23020981.2324   23020984.4414
 -14884902.62044 -11598594.16644  22266848.4824   22266849.0354
 -20904466.38144 -16289185.93844  21526671.3704   21526673.2924
 -23488392.71544 -18302608.65644  20747176.8644   20747178.3544
 -25957992.49044 -20226982.30644  20586959.7644   20586960.9784
 95  6 15  1 24  0.0000000  0  6G22G21G26G 6G23G17
  -2598963.97544  -2025166.59844  23686575.1184   23686578.2854
 -13721096.65344 -10691737.20044  23006368.1764   23006371.7164
 -14851844.85844 -11572834.86944  22273139.0294   22273139.5584
 -20823491.26144 -16226088.49144  21542080.4444   21542082.5804
 -23511224.32744 -18320399.49144  20742832.1794   20742833.4404
 -25959811.81244 -20228399.95644  20586613.8554   20586615.0044
 95  6 15  1 24 30.0000000  0  6G22G21G26G 6G23G17
  -2579794.54644  -2010229.42544  23690223.1284   23690226.2654
 -13797644.68444 -10751384.93344  22991801.6534   22991804.7854
 -14818210.16444 -11546626.01044  22279539.5864   22279540.3774
 -20742114.18044 -16162677.82144  21557565.9864   21557567.9654
 -23533686.93444 -18337902.79644  20738557.6044   20738559.0204
 -25961439.13344 -20229667.99544  20586304.3204   20586305.7124
 95  6 15  1 25  0.0000000  0  6G22G21G26G 6G23G17
  -2560203.48544  -1994963.71444  23693951.0714   23693953.8834
 -13873989.23744 -10810874.10844  22977273.6904   22977276.6064
 -14784033.48544 -11519994.83544  22286043.6754   22286044.1624
 -20660363.86144 -16098976.31344  21573122.6674   21573124.3334
 -23555803.13044 -18355136.16844  20734349.0024   20734350.5434
 -25962887.64144 -20230796.70344  20586028.4684   20586029.7454
 95  6 15  1 25 30.0000000  0  6G22G21G26G 6G23G17
  -2540174.43444  -1979356.70844  23697762.5554   23697766.1494
 -13950142.98844 -10870214.60244  22962781.8934   22962785.1424
 -14749316.41744 -11492942.57744  22292649.6894   22292649.9114
 -20578248.18844 -16034990.11144  21588748.8224   21588750.4914
 -23577558.03144 -18372088.01344  20730209.1444   20730210.5364
 -25964141.27444 -20231773.55644  20585789.8284   20585791.2204
 95  6 15  1 26  0.0000000  0  6G22G21G26G 6G23G17
  -2519665.53744  -1963375.77444  23701665.1404   23701668.2994
 -14026080.96644 -10929386.98144  22948331.2754   22948334.9304
 -14714035.75744 -11465451.15644  22299363.2824   22299363.7084
 -20495734.02544 -15970693.40144  21604450.7624   21604452.6904
 -23598908.59444 -18388724.78944  20726146.1844   20726147.6874
 -25965146.06244 -20232556.50544  20585598.8654   20585599.9754
 95  6 15  1 26 30.0000000  0  6G22G21G26G 6G23G17
  -2498724.49544  -1947058.12344  23705650.2154   23705652.3894
 -14101836.11344 -10988416.89344  22933915.6374   22933918.7264
 -14678247.93144 -11437564.54444  22306173.5324   22306174.6544
 -20412885.75644 -15906136.35044  21620216.3104   21620218.2824
 -23619904.78044 -18405085.42844  20722150.6974   20722152.1944
 -25965938.51044 -20233173.99744  20585448.0324   20585449.2564
 95  6 15  1 27  0.0000000  0  6G22G21G26G 6G23G17
  -2477340.51044  -1930395.32744  23709719.7154   23709722.8104
 -14177380.15244 -11047282.30444  22919540.1184   22919543.2014
 -14641942.37244 -11409274.49444  22313082.3504   22313083.0444
 -20329684.24044 -15841304.04744  21636048.9814   21636050.8824
 -23640520.57944 -18421149.66444  20718227.6884   20718229.1774
 -25966493.76844 -20233606.66744  20585342.4164   20585343.5544
 95  6 15  1 27 30.0000000  0  6G22G21G26G23G17G 6
  -2455480.56944  -1913361.64844  23713879.1404   23713882.2994
 -14252672.52744 -11105951.62244  22905212.3554   22905215.5854
 -14605084.94244 -11380554.41544  22320096.2704   22320096.6074
 -23660721.52144 -18436890.63344  20714383.6194   20714385.0264
 -25966780.76844 -20233830.30844  20585287.1654   20585288.3394
 -20246108.41644 -15776180.08644  21651952.9894   21651954.8764
 95  6 15  1 28  0.0000000  0  7G22G21G26G23G17G 6G28
  -2433155.25444  -1895965.34044  23718127.4674   23718130.6564
 -14327710.62844 -11164422.78844  22890932.9444   22890936.0944
 -14567676.87444 -11351405.27344  22327214.4374   22327215.0244
 -23680523.08044 -18452320.39644  20710615.5344   20710616.9324
 -25966808.26744 -20233851.74244  20585282.1724   20585283.2644
 -20162162.51244 -15710767.74644  21667927.3274   21667929.4264
        -0.26414        -0.11614  24030081.208    24030080.197
 95  6 15  1 28 30.0000000  0  7G22G21G26G23G17G 6G28
  -2410397.16344  -1878231.80144  23722458.2844   23722462.8424
 -14402527.76044 -11222721.77644  22876695.5534   22876698.5494
 -14529743.00544 -11321846.41544  22334432.9504   22334433.9064
 -23699968.31044 -18467472.50044  20706915.1614   20706916.7084
 -25966612.84944 -20233699.47544  20585319.2484   20585320.5534
 -20077867.96244 -15645083.73644  21683968.0974   21683970.0814
   -103210.786 4    -80423.867 4  24010440.921    24010439.818
 95  6 15  1 29  0.0000000  0  7G22G21G23G17G26G 6G28
  -2387179.52244  -1860140.19644  23726876.3334   23726880.1864
 -14477117.66844 -11280843.72344  22862501.5074   22862504.8994
 -23719038.31344 -18482332.21944  20703286.2054   20703287.5514
 -25966192.97744 -20233372.30544  20585399.3554   20585400.4744
 -14491261.94744 -11291861.18944  22341755.7574   22341756.7754
 -19993180.96444 -15579093.92544  21700083.4714   21700085.6034
   -206264.125 4   -160725.141 4  23990830.557    23990829.320
 95  6 15  1 29 30.0000000  0  7G22G21G23G17G26G 6G28
  -2363488.07044  -1841679.35744  23731384.8934   23731387.6344
 -14551466.91944 -11338778.14844  22848353.3534   22848355.8074
 -23737733.02344 -18496899.50244  20699728.7574   20699730.0034
 -25965547.09244 -20232869.02244  20585522.3194   20585523.6024
 -14452219.20944 -11261438.27244  22349185.4344   22349186.1054
 -19908084.75144 -15512785.24544  21716276.7094   21716278.9474
   -309143.524 4   -240890.876 4  23971253.165    23971252.103
 95  6 15  1 30  0.0000000  0  7G22G21G23G17G26G 6G28
  -2339356.03944  -1822875.23344  23735977.1614   23735980.5044
 -14625585.00844 -11396532.45844  22834249.1904   22834252.6314
 -23756067.05744 -18511185.74144  20696239.7594   20696241.0604
 -25964689.83644 -20232201.03344  20585685.5384   20585686.8354
 -14412628.85444 -11230588.64544  22356719.3474   22356720.1644
 -19822572.34844 -15446152.26244  21732549.4474   21732551.6624
   -411850.931 4   -320922.596 4  23951708.478    23951707.534
 95  6 15  1 30 30.0000000  0  7G22G21G23G17G26G 6G28
  -2314782.84844  -1803727.34144  23740653.2604   23740655.3064
 -14699448.91344 -11454088.69544  22820193.3094   22820196.1554
 -23774015.37744 -18525171.42344  20692824.4344   20692825.7264
 -25963603.45844 -20231354.51044  20585891.8824   20585893.1514
 -14372476.26444 -11199300.91844  22364360.1654   22364360.7414
 -19736627.96444 -15379182.66744  21748904.3474   21748906.2914
   -514371.334 4   -400808.584 4  23932199.388    23932198.087
 95  6 15  1 31  0.0000000  0  7G22G21G23G17G26G 6G28
  -2289766.56944  -1784234.17544  23745414.0324   23745416.1874
 -14773032.15844 -11511426.22244  22806190.9364   22806193.8794
 -23791554.57444 -18538838.31044  20689486.8904   20689488.1004
 -25962272.21744 -20230317.18344  20586145.5374   20586146.7564
 -14331765.37644 -11167578.15144  22372106.9614   22372107.4224
 -19650249.34944 -15311874.71444  21765341.4914   21765343.3374
   -616699.986 4   -480545.183 4  23912727.050    23912725.687
 95  6 15  1 31 30.0000000  0  7G22G21G23G17G26G 6G28
  -2264353.69344  -1764431.99944  23750249.9764   23750252.4964
 -14846367.55644 -11568570.64644  22792235.6344   22792238.0944
 -23808721.93044 -18552215.45044  20686219.9114   20686221.1544
 -25960726.61744 -20229112.82544  20586439.6554   20586440.9134
 -14290541.18344 -11135455.40944  22379951.4644   22379952.4714
 -19563497.10444 -15244275.62544  21781849.8094   21781851.7774
   -718879.842 4   -560165.811 4  23893282.778    23893281.703
 95  6 15  1 32  0.0000000  0  7G22G21G23G17G26G 6G28
  -2238542.92644  -1744319.75444  23755161.2174   23755164.0344
 -14919459.87344 -11625525.64044  22778326.5034   22778329.0194
 -23825509.98444 -18565297.02644  20683025.1804   20683026.3444
 -25958958.97944 -20227735.44744  20586775.9284   20586777.1954
 -14248796.23744 -11102926.88744  22387895.4024   22387896.3874
 -19476373.99944 -15176387.55444  21798428.8384   21798430.8464
   -820909.681 4   -639669.561 4  23873867.120    23873866.055
 95  6 15  1 32 30.0000000  0  7G22G23G21G17G26G 6G28
  -2212308.24444  -1723877.19644  23760153.3224   23760156.1034
 -23841914.18744 -18578079.49844  20679903.5954   20679904.8014
 -14992293.83844 -11682279.32444  22764466.7494   22764469.5344
 -25956955.93844 -20226174.64444  20587157.0104   20587158.2744
 -14206524.74444 -11069988.07044  22395939.3834   22395940.0524
 -19388886.13644 -15108215.26044  21815077.3584   21815079.4774
   -922779.656 4   -719048.718 4  23854481.768    23854480.786
 95  6 15  1 33  0.0000000  0  7G22G23G21G17G26G 6G28
  -2185612.60944  -1703075.46744  23765233.6764   23765235.5694
 -23857927.55444 -18590557.42344  20676856.3654   20676857.4954
 -15064848.91944 -11738815.69044  22750659.7554   22750662.9184
 -25954703.55444 -20224419.54844  20587585.7634   20587587.1014
 -14163710.05744 -11036625.97644  22404086.6754   22404087.2594
 -19301014.29244 -15039743.75944  21831798.7394   21831801.1454
  -1024467.473 4   -798285.963 4  23835131.041    23835130.053
 95  6 15  1 33 30.0000000  0  7G22G23G21G17G26G 6G28
  -2158495.64944  -1681945.43644  23770393.7854   23770396.7104
 -23873597.61944 -18602767.84344  20673874.3994   20673875.5964
 -15137172.50244 -11795171.67444  22736897.2194   22736900.2814
 -25952250.50044 -20222508.08544  20588052.5654   20588053.8744
 -14120373.63644 -11002857.34844  22412333.4474   22412333.9314
 -19212798.15744 -14971003.98444  21848585.9584   21848587.7204
  -1126001.916 4   -877403.677 4  23815810.027    23815808.898
 95  6 15  1 34  0.0000000  0  7G23G22G21G17G26G 6G28
 -23889005.09244 -18614773.64744  20670942.4624   20670943.8404
  -2131042.65344  -1660553.53344  23775617.9154   23775620.9454
 -15209342.78844 -11851408.21044  22723163.3994   22723165.6704
 -25949663.27144 -20220492.07044  20588544.6994   20588545.8964
 -14076598.48844 -10968746.85044  22420663.4194   22420663.8774
 -19124315.80044 -14902056.75944  21865423.7274   21865425.5124
  -1227449.679 4   -956453.854 4  23796505.003    23796503.968
 95  6 15  1 34 30.0000000  0  7G23G22G21G17G26G 6G28
 -23903989.32344 -18626449.65044  20668090.9244   20668092.3664
  -2103090.52544  -1638772.72844  23780937.1794   23780940.7614
 -15281192.07944 -11907394.62644  22709491.0444   22709493.6224
 -25946776.76244 -20218242.84644  20589094.1634   20589095.4964
 -14032229.83244 -10934173.88544  22429106.7534   22429107.1234
 -19035414.18044 -14832782.83744  21882341.2794   21882343.1114
  -1328644.510 4  -1035306.924 4  23777248.209    23777247.368
 95  6 15  1 35  0.0000000  0  8G23G22G21G17G26G 6G28G 1
 -23918628.14244 -18637856.50044  20665305.3704   20665306.6634
  -2074738.29344  -1616680.14244  23786332.5374   23786335.7324
 -15352834.48144 -11963219.85244  22695857.8194   22695860.5774
 -25943685.12544 -20215833.78444  20589682.4374   20589683.6614
 -13987349.45244 -10899202.17144  22437647.1004   22437647.9354
 -18946182.17644 -14763251.46944  21899321.4594   21899323.6574
  -1429675.526 4  -1114032.365 4  23758022.445    23758021.608
        -0.49954         0.91154  25161736.7504
 95  6 15  1 35 30.0000000  0  8G23G22G21G17G26G 6G28G 1
 -23932870.03544 -18648954.06244  20662595.2224   20662596.5064
  -2045962.05844  -1594257.15444  23791808.5264   23791812.3044
 -15424248.25244 -12018866.91544  22682268.1494   22682271.2194
 -25940340.21644 -20213227.36144  20590319.1314   20590320.4074
 -13941914.75144 -10863798.51444  22446293.1344   22446294.1624
 -18856584.62744 -14693435.25944  21916371.4274   21916373.4434
  -1530499.831 4  -1192596.727 4  23738836.365    23738835.452
   -109590.96744                  25140882.2594
 95  6 15  1 36  0.0000000  0  8G23G22G21G17G26G 6G28G 1
 -23946767.01244 -18659782.85344  20659950.5984   20659951.9624
  -2016812.62944  -1571543.37844  23797355.5574   23797359.6844
 -15495491.03544 -12074380.73144  22668711.1704   22668713.9634
 -25936788.03544 -20210459.42844  20590994.8594   20590996.1394
 -13896000.96544 -10828021.55544  22455030.0444   22455031.3284
 -18766680.32444 -14623380.02344  21933479.7584   21933481.8124
  -1631178.807 4  -1271047.846 4  23719677.845    23719676.847
   -219327.22344                  25119999.7384
 95  6 15  1 36 30.0000000  0  8G23G22G21G17G26G 6G28G 1
 -23960303.07944 -18670330.41244  20657374.7774   20657376.1484
  -1987267.01144  -1548520.87244  23802977.9154   23802982.8554
 -15566539.05344 -12129742.76444  22655191.1094   22655194.0634
 -25933034.27644 -20207534.41844  20591709.4964   20591710.6424
 -13849587.44844 -10791855.19044  22463862.1734   22463862.7364
 -18676443.92444 -14553066.00844  21950651.0624   21950653.0834
  -1731701.627 4  -1349377.283 4  23700548.737    23700547.931
   -329202.37444                  25099090.9194
 95  6 15  1 37  0.0000000  0  8G23G22G21G17G26G 6G28G 1
 -23973395.87244 -18680532.56444  20654883.2514   20654884.4554
  -1957245.19244  -1525127.29744  23808690.9374   23808693.9114
 -15637302.99744 -12184883.44144  22641725.0474   22641727.4344
 -25928995.45444 -20204387.27744  20592477.9174   20592479.2164
 -13802584.29444 -10755229.36444  22472806.8864   22472807.7354
 -18585791.43544 -14482427.76344  21967901.9284   21967904.3374
  -1831976.998 4  -1427513.898 4  23681466.864    23681465.704
   -439109.17244   -342160.40444  25078176.2364
 95  6 15  1 37 30.0000000  0  8G23G22G21G17G26G 6G28G 1
 -23986125.65244 -18690451.84944  20652460.8524   20652462.1864
  -1926807.88244  -1501409.95644  23814483.2904   23814486.8544
 -15707810.54344 -12239824.33044  22628307.9584   22628310.6884
 -25924734.53544 -20201067.07344  20593288.6244   20593289.7744
 -13755072.91744 -10718207.51644  22481847.9984   22481848.4774
 -18494800.67044 -14411525.93044  21985216.7454   21985219.0954
  -1932066.675 4  -1505505.826 4  23662420.445    23662419.690
   -549092.82644                  25057247.1794
 95  6 15  1 38  0.0000000  0  8G23G22G21G17G26G 6G28G 1
 -23998495.00644 -18700090.29044  20650107.0044   20650108.1344
  -1895942.14544  -1477358.75244  23820356.1864   23820360.6774
 -15778031.61144 -12294541.98044  22614945.1554   22614947.9034
 -25920238.76444 -20197563.87244  20594144.1914   20594145.3314
 -13707045.94844 -10680783.91544  22490987.2694   22490987.9004
 -18403463.99244 -14340354.53544  22002597.5894   22002599.8794
  -2031957.517 4  -1583342.813 4  23643411.866    23643411.022
   -659131.00744   -513605.28344  25036307.2054
 95  6 15  1 38 30.0000000  0  8G23G22G21G17G26G 6G28G 1
 -24010497.08444 -18709442.54244  20647823.0844   20647824.2614
  -1864654.07544  -1452978.47744  23826310.3404   23826315.1104
 -15847960.48444 -12349031.95344  22601638.4084   22601640.9944
 -25915499.63244 -20193871.04044  20595045.9684   20595047.3464
 -13658488.73944 -10642947.12744  22500227.4134   22500228.0214
 -18311778.67044 -14268911.49344  22020044.5564   22020047.2384
  -2131631.573 4  -1661010.878 4  23624444.836    23624443.604
   -769192.13744                  25015362.5804
 95  6 15  1 39  0.0000000  0  8G23G22G21G17G26G 6G28G 1
 -24022116.55244 -18718496.65244  20645611.9684   20645613.0864
  -1832943.78744  -1428269.19344  23832344.7594   23832347.6614
 -15917600.78144 -12403297.05744  22588386.2374   22588389.3484
 -25910494.69144 -20189971.08644  20595998.3614   20595999.5714
 -13609406.03444 -10604700.87144  22509567.3744   22509568.1124
 -18219758.31844 -14197207.39444  22037555.5614   22037558.3454
  -2231076.594 4  -1738500.462 4  23605520.809    23605519.688
   -879258.89344   -685132.92044  24994417.5624
 95  6 15  1 39 30.0000000  0  8G23G22G21G17G26G 6G28G 1
 -24033385.10744 -18727277.31944  20643467.7464   20643468.8964
  -1800852.46144  -1403263.00644  23838451.6484   23838454.8354
 -15986990.54744 -12457366.95544  22575181.6644   22575183.8644
 -25905248.82444 -20185883.39644  20596996.8984   20596998.2944
 -13559847.08644 -10566083.52044  22518998.3204   22518999.3224
 -18127427.56044 -14125261.40844  22055125.4244   22055128.3234
  -2330325.520 4  -1815837.244 4  23586634.228    23586633.549
   -989366.13644   -770930.46844  24973464.7884
 95  6 15  1 40  0.0000000  0  8G23G22G21G17G26G 6G28G 1
 -24044275.01744 -18735762.94344  20641395.4374   20641396.6504
  -1768370.76344  -1377952.61744  23844632.6804   23844634.0504
 -16056132.99644 -12511244.14144  22562024.2754   22562027.0754
 -25899742.57844 -20181592.81344  20598044.5274   20598045.6804
 -13509788.13244 -10527076.55144  22528523.9464   22528524.8814
 -18034752.40844 -14053047.06444  22072760.9504   22072763.7204
  -2429355.648 4  -1893003.558 4  23567789.272    23567788.556
  -1099504.19644   -856751.95344  24952506.1344
 95  6 15  1 40 30.0000000  0  8G23G22G21G17G26G 6G28G 1
 -24054769.05244 -18743940.09844  20639398.3634   20639399.4404
  -1735492.04444  -1352332.86244  23850889.2454   23850891.6854
 -16125026.98344 -12564927.72144  22548914.0284   22548916.3634
 -25893983.78544 -20177105.43944  20599140.4314   20599141.6344
 -13459222.32044 -10487674.62644  22538146.5484   22538147.6264
 -17941717.36644 -13980552.29444  22090465.0484   22090467.6854
  -2528158.088 4  -1969992.451 4  23548988.210    23548987.037
  -1209679.58444   -942602.52044  24931540.6114
 95  6 15  1 41  0.0000000  0  8G23G22G21G17G26G 6G28G 1
 -24064879.64444 -18751818.46444  20637474.2154   20637475.4574
  -1702206.49644  -1326396.11244  23857223.4384   23857226.5734
 -16193658.48844 -12618406.76444  22535853.9274   22535856.7994
 -25887968.36444 -20172418.09644  20600285.0764   20600286.3494
 -13408141.89544 -10447871.70544  22547866.7174   22547867.4604
 -17848312.80044 -13907769.58544  22108239.3994   22108242.0024
  -2626733.571 4  -2046804.464 4  23530229.655    23530228.661
  -1319906.77044  -1028493.60544  24910564.0964   24910570.4674
 95  6 15  1 41 30.0000000  0  8G23G22G21G17G26G 6G28G 1
 -24074614.98044 -18759404.42344  20635621.7474   20635622.9434
  -1668502.44644  -1300133.26344  23863636.8684   23863640.0264
 -16262019.17344 -12671674.80044  22522845.1824   22522848.1134
 -25881694.43944 -20167529.32144  20601478.9894   20601480.0314
 -13356530.26744 -10407654.85944  22557688.4014   22557689.0324
 -17754513.29144 -13834679.13244  22126088.9744   22126091.1994
  -2725072.630 4  -2123432.280 4  23511516.118    23511515.588
  -1430183.97044  -1114423.54044  24889578.7624   24889585.7384
 95  6 15  1 42  0.0000000  0  8G23G22G21G17G26G 6G28G 1
 -24084058.81144 -18766763.23544  20633824.6524   20633825.9104
  -1634455.84344  -1273603.46944  23870115.8504   23870118.8884
 -16330198.23644 -12724801.31544  22509871.1354   22509874.0894
 -25875257.18044 -20162513.27644  20602703.7994   20602704.9774
 -13304457.00144 -10367078.28544  22567597.6384   22567597.5554
 -17660413.80944 -13761354.91844  22143995.7024   22143997.7494
  -2823258.509 4  -2199940.753 4  23492832.256    23492831.074
  -1540600.81744  -1200462.27144  24868566.9824
 95  6 15  1 42 30.0000000  0  8G23G22G21G17G26G 6G28G 1
 -24093181.03244 -18773871.43544  20632088.6844   20632089.7294
  -1600018.51544  -1246769.24544  23876669.4054   23876672.4654
 -16398157.43344 -12777756.50844  22496938.9724   22496941.9914
 -25868606.68444 -20157331.07144  20603969.2914   20603970.5624
 -13251886.74344 -10326114.45344  22577601.5094   22577602.4134
 -17566003.45544 -13687788.45444  22161961.4704   22161964.0234
  -2921249.185 4  -2276297.077 4  23474185.077    23474184.320
  -1651114.05344  -1286576.17244  24847536.1874
 95  6 15  1 43  0.0000000  0  8G23G22G21G17G26G 6G28G 1
 -24101855.40644 -18780630.67144  20630438.0574   20630439.2734
  -1565046.08344  -1219518.02644  23883324.3304   23883326.9654
 -16465756.65944 -12830431.20744  22484075.1954   22484078.3474
 -25861590.04944 -20151863.56744  20605304.6344   20605306.0184
 -13198690.06244 -10284662.49744  22587724.2794   22587724.5904
 -17471160.85344 -13613885.19144  22180009.4644   22180011.6594
  -3018901.322 4  -2352389.647 4  23455602.655    23455601.635
  -1761582.28644                  24826514.5394
 95  6 15  1 43 30.0000000  0  8G23G22G21G17G26G 6G28G 1
 -24110194.02444 -18787128.28844  20628851.2294   20628852.3654
  -1529671.47444  -1191953.42344  23890056.1974   23890059.6224
 -16533134.47144 -12882933.38344  22471253.5574   22471256.3724
 -25854327.52644 -20146204.46144  20606686.6464   20606687.9164
 -13144995.43944 -10242822.53644  22597941.9654   22597942.5444
 -17376018.74844 -13539748.55044  22198114.4434   22198117.3294
  -3116331.152 4  -2428308.961 4  23437062.075    23437061.318
  -1872119.33344  -1458787.32644  24805479.6854
 95  6 15  1 44  0.0000000  0  8G23G22G21G17G26G 6G28G 1
 -24118212.74044 -18793376.62944  20627325.2584   20627326.4844
  -1493919.00444  -1164094.39644  23896859.0984   23896863.7054
 -16600295.19544 -12935266.39244  22458473.3684   22458475.7654
 -25846822.68244 -20140356.53444  20608114.8184   20608116.0314
 -13090829.30044 -10200615.16444  22608249.4184   22608250.6084
 -17280600.38244 -13465396.62944  22216271.7854   22216274.3594
  -3213550.515 4  -2504064.305 4  23418561.913    23418561.059
  -1982744.15444  -1544988.12644  24784428.9414   24784435.6234
 95  6 15  1 44 30.0000000  0  8G23G22G21G17G26G 6G28G 1
 -24125915.45744 -18799378.73544  20625859.5274   20625860.7134
  -1457799.58244  -1135949.45444  23903732.4544   23903736.7654
 -16667227.22344 -12987421.20544  22445736.4824   22445739.6734
 -25839070.34044 -20134315.74944  20609589.9784   20609591.0524
 -13036199.14144 -10158046.21844  22618645.2074   22618646.0954
 -17184891.09444 -13390818.03644  22234484.8654   22234486.9974
  -3310550.703 4  -2579648.848 4  23400103.612    23400102.674
  -2093451.53444                  24763361.3814
 95  6 15  1 45  0.0000000  0  8G23G22G21G17G26G 6G28G 1
 -24133271.69144 -18805110.85744  20624459.7144   20624460.9724
  -1421313.65844  -1107518.90144  23910675.8524   23910678.8974
 -16733906.34944 -13039378.94944  22433047.8604   22433050.0714
 -25831062.38644 -20128075.78944  20611113.7704   20611114.8284
 -12981077.44444 -10115094.25244  22629134.4384   22629135.5494
 -17088845.08144 -13315977.04944  22252761.7684   22252764.4524
  -3407310.927 4  -2655046.393 4  23381690.473    23381689.281
  -2204213.27144  -1717560.72244  24742283.2494
 95  6 15  1 45 30.0000000  0  8G23G22G21G17G26G 6G28G 1
 -24140280.47144 -18810572.22944  20623125.9504   20623127.0534
  -1384475.97844  -1078814.26044  23917685.8464   23917689.0264
 -16800339.64444 -13091145.12244  22420406.1704   22420408.7034
 -25822804.04644 -20121640.72744  20612685.4184   20612686.5554
 -12925470.64944 -10071764.28444  22639716.0784   22639716.9344
 -16992459.99944 -13240871.87044  22271103.2244   22271106.1854
  -3503836.807 4  -2730261.353 4  23363322.212    23363321.549
  -2315018.15944  -1803901.86644  24721198.3154   24721206.1454
 95  6 15  1 46  0.0000000  0  8G23G22G21G17G26G 6G28G 1
 -24146948.85944 -18815768.36344  20621856.8804   20621857.9694
  -1347296.83344  -1049843.55044  23924760.9544   23924764.4174
 -16866521.83644 -13142715.61844  22407811.8754   22407814.4654
 -25814330.39944 -20115037.89244  20614297.9344   20614299.1034
 -12869395.84644 -10028069.64144  22650386.6824   22650387.3734
 -16895751.76644 -13165514.88144  22289506.2054   22289508.3754
  -3600137.418 4  -2805300.762 4  23344996.992    23344995.867
  -2425864.09744                  24700104.4954
 95  6 15  1 46 30.0000000  0  8G23G22G21G17G26G 6G28G 1
 -24153263.30544 -18820688.69944  20620655.3834   20620656.5234
  -1309769.70444  -1020601.68644  23931902.2144   23931906.0084
 -16932459.23444 -13194095.36744  22395264.7014   22395267.4054
 -25805653.87444 -20108276.96844  20615948.8574   20615950.0744
 -12812838.91444  -9983999.31344  22661149.1434   22661150.3744
 -16798726.74144 -13089911.03944  22307969.6074   22307972.3444
  -3696203.184 4  -2880157.195 4  23326716.121    23326715.138
  -2536719.43344  -1976655.39144  24679009.5774   24679015.6914
 95  6 15  1 47  0.0000000  0  8G23G22G21G17G26G 6G28G 1
 -24159203.17244 -18825317.15544  20619525.0704   20619526.1354
  -1271869.69644   -991069.25944  23939113.7704   23939117.7504
 -16998133.56044 -13245270.13044  22382767.1224   22382769.3794
 -25796752.59444 -20101340.91444  20617642.8404   20617644.1174
 -12755777.97444  -9939536.24744  22672007.6384   22672008.1824
 -16701384.72144 -13014060.18544  22326493.2664   22326496.4194
  -3792014.785 4  -2954815.539 4  23308483.974    23308482.813
  -2647553.85144  -2063019.57044  24657918.3954
 95  6 15  1 47 30.0000000  0  8G23G22G21G17G26G 6G28G 1
 -24164787.12144 -18829668.27344  20618462.3344   20618463.4864
  -1233597.86844   -961247.12144  23946397.0104   23946400.6604
 -17063552.07144 -13296245.54644  22370318.5454   22370320.7434
 -25787630.54244 -20094232.82944  20619378.6704   20619379.9464
 -12698224.67644  -9894689.52844  22682959.3734   22682959.7694
 -16603751.09744 -12937982.10244  22345072.2094   22345074.5374
  -3887574.315 4  -3029277.492 4  23290299.214    23290298.441
  -2758372.79844  -2149371.74244  24636829.0634   24636838.7434
 95  6 15  1 48  0.0000000  0  8G23G22G21G17G26G 6G28G 1
 -24170033.05344 -18833756.00144  20617464.1954   20617465.3574
  -1194979.68144   -931155.06544  23953746.0994   23953749.2994
 -17128735.36744 -13347037.67544  22357914.4874   22357916.7174
 -25778302.50044 -20086964.22844  20621153.8334   20621155.0564
 -12640188.71944  -9849466.71744  22694003.5384   22694004.3934
 -16505850.90944 -12861696.31644  22363702.1184   22363704.7754
  -3982895.779 4  -3103553.932 4  23272160.540    23272159.231
  -2869201.02344  -2235731.09644  24615739.5584   24615745.0304
 95  6 15  1 48 30.0000000  0  8G23G22G21G17G26G 6G28G 1
 -24174928.22344 -18837570.40644  20616532.6624   20616533.9184
  -1155984.22744   -900769.06644  23961166.5024   23961169.8144
 -17193675.75844 -13397640.52644  22345556.5274   22345558.3844
 -25768705.17944 -20079485.80144  20622980.0614   20622981.3964
 -12581642.45044  -9803846.25544  22705144.2484   22705144.2124
 -16407662.19844 -12785185.69944  22382387.0534   22382389.9984
  -4077951.802 4  -3177623.534 4  23254071.434    23254070.787
  -2980021.83744  -2322084.69044  24594650.6794   24594659.3674
 95  6 15  1 49  0.0000000  0  8G23G22G21G17G26G 6G28G 1
 -24179498.53944 -18841131.68244  20615662.9504   20615664.0454
  -1116635.37044   -870107.65444  23968654.0514   23968657.3784
 -17258386.05844 -13448064.08944  22333242.4544   22333245.0954
 -25758845.01344 -20071802.56444  20624856.3664   20624857.5804
 -12522616.59344  -9757852.09844  22716376.8564   22716377.3054
 -16309204.99344 -12708465.87244  22401122.5614   22401124.6084
  -4172759.202 4  -3251499.405 4  23236030.536    23236029.402
  -3090865.10144  -2408455.78644  24573557.3594   24573564.2514
 95  6 15  1 49 30.0000000  0  8G23G22G21G17G26G 6G28G 1
 -24183745.19844 -18844440.76644  20614854.8444   20614855.6624
  -1076934.34144   -839171.84744  23976208.9184   23976212.5224
 -17322871.27744 -13498312.26044  22320971.3804   22320973.7634
 -25748723.94844 -20063916.02444  20626782.2854   20626783.6974
 -12463122.49844  -9711493.06744  22727698.2564   22727698.7394
 -16210474.18444 -12631532.83944  22419910.7034   22419913.5054
  -4267316.202 4  -3325180.176 4  23218036.712    23218035.950
  -3201732.58944  -2494845.72144  24552459.8774
 95  6 15  1 50  0.0000000  0  8G23G22G21G17G26G 6G28G 1
 -24187671.88344 -18847500.51444  20614107.5764   20614108.5974
  -1036878.25844   -807959.37344  23983831.7024   23983834.8714
 -17387130.92244 -13548384.66344  22308743.1374   22308745.7164
 -25738343.62544 -20055827.46444  20628757.6634   20628758.7674
 -12403172.00244  -9664778.41244  22739106.2034   22739106.4854
 -16111463.86044 -12554382.00544  22438751.8144   22438754.8744
  -4361622.901 4  -3398665.890 4  23200090.901    23200089.816
  -3312625.03944  -2581255.17844  24531357.2564   24531363.7494
 95  6 15  1 50 30.0000000  0  8G23G22G21G17G26G 6G28G 1
 -24191270.90644 -18850304.93944  20613422.8134   20613423.7684
   -996454.34144   -776460.27844  23991524.3854   23991528.5864
 -17451143.72544 -13598264.72644  22296561.7524   22296563.9924
 -25727703.03644 -20047536.09944  20630782.3564   20630783.5894
 -12342768.41244  -9617710.69544  22750600.5454   22750601.1944
 -16012159.74644 -12477002.24244  22457648.7994   22457651.9824
  -4455668.062 4  -3471947.810 4  23182194.244    23182193.708
  -3423538.67444  -2667681.13244  24510251.4354   24510258.1914
 95  6 15  1 51  0.0000000  0  8G23G22G21G17G26G 6G28G 1
 -24194535.38144 -18852848.67744  20612801.5284   20612802.4564
   -955681.50344   -744689.28244  23999283.1404   23999286.9124
 -17514897.75944 -13647943.15144  22284429.8634   22284432.7534
 -25716824.92144 -20039059.65344  20632852.5874   20632853.7714
 -12281922.71744  -9570298.48144  22762179.2594   22762180.6224
 -15912553.89244 -12399387.36044  22476603.2484   22476606.3094
  -4549455.009 4  -3545028.541 4  23164347.949    23164346.773
  -3534483.94744  -2754131.73144  24489138.8824   24489148.3154
 95  6 15  1 51 30.0000000  0  8G23G22G21G17G26G 6G28G 1
 -24197456.78844 -18855125.08844  20612245.5934   20612246.5504
   -914546.84844   -712636.35344  24007110.8394   24007117.4154
 -17578384.99344 -13697413.67344  22272348.3704   22272351.2704
 -25705703.38044 -20030393.51744  20634969.0104   20634970.2624
 -12220611.96144  -9522523.87644  22773846.2974   22773846.7314
 -15812641.70844 -12321533.77444  22495615.8424   22495619.1964
  -4642972.007 4  -3617898.913 4  23146551.689    23146551.037
  -3645454.27944  -2840601.83944  24468022.2444   24468030.6844
 95  6 15  1 52  0.0000000  0  8G23G22G21G17G26G 6G28G 1
 -24200025.27744 -18857126.49844  20611756.7334   20611757.7444
   -873049.59444   -680300.89844  24015007.6924   24015011.9704
 -17641591.99544 -13746665.83244  22260320.6624   22260323.5894
 -25694330.93544 -20021531.87544  20637133.1134   20637134.3894
 -12158830.11344  -9474382.18744  22785603.1074   22785603.7104
 -15712432.03944 -12243448.37544  22514685.2394   22514688.1954
  -4736213.893 4  -3690554.912 4  23128808.195    23128807.691
  -3756457.29644  -2927097.42844  24446898.5794   24446905.9244
 95  6 15  1 52 30.0000000  0  8G23G22G21G17G26G 6G28G 1
 -24202233.55944 -18858847.22644  20611336.5874   20611337.4184
   -831196.70344   -647688.31544  24022972.0664   24022975.2624
 -17704516.08444 -13795697.54544  22248346.6664   22248349.1884
 -25682704.46144 -20012472.28844  20639345.3854   20639346.7574
 -12096570.79144  -9425868.44044  22797450.7124   22797451.9304
 -15611931.23244 -12165136.12144  22533809.8244   22533812.6974
  -4829173.550 4  -3762990.981 4  23111118.972    23111117.870
  -3867485.53544  -3013612.73144  24425770.6354   24425776.4804
 95  6 15  1 53  0.0000000  0  8G23G22G21G17G26G 6G28G 1
 -24204083.04844 -18860288.37044  20610984.5924   20610985.5454
   -788991.24244   -614800.99744  24031003.2654   24031006.4114
 -17767166.05144 -13844515.65644  22236424.6784   22236426.8784
 -25670818.73644 -20003210.68444  20641607.0524   20641608.4314
 -12033833.35844  -9376982.12644  22809389.1944   22809389.1384
 -15511154.05244 -12086608.52544  22552986.9304   22552989.3494
  -4921843.789 4  -3835201.552 4  23093484.479    23093483.511
  -3978513.45444  -3100127.69644  24404642.3884   24404651.3234
 95  6 15  1 53 30.0000000  0  8G23G22G21G17G26G 6G28G 1
 -24205587.54844 -18861460.69744  20610698.3714   20610699.2264
   -746429.68044   -581636.20844  24039102.7534   24039106.3084
 -17829546.64444 -13893123.87444  22224554.0634   22224556.6904
 -25658675.31244 -19993748.27644  20643917.9464   20643919.1314
 -11970625.45344  -9327729.22344  22821417.1824   22821417.7464
 -15410110.74444 -12007873.53444  22572214.9074   22572218.0654
  -5014222.013 4  -3907184.572 4  23075905.119    23075904.304
  -4089527.54744  -3186631.94744  24383516.8754   24383523.1054
 95  6 15  1 54  0.0000000  0  8G23G22G21G17G26G 6G28G 1
 -24206749.36744 -18862365.99944  20610477.2504   20610478.0764
   -703518.81544   -548199.23844  24047268.4224   24047274.9114
 -17891659.13144 -13941523.17444  22212734.3624   22212737.0634
 -25646273.05544 -19984084.18344  20646278.0714   20646279.1824
 -11906968.22644  -9278126.19144  22833530.7224   22833532.1674
 -15308785.55244 -11928918.90544  22591496.5904   22591499.7584
  -5106308.023 4  -3978939.876 4  23058381.607    23058380.942
  -4200517.43744  -3273117.31844  24362395.8474   24362404.5354
 95  6 15  1 54 30.0000000  0  8G23G22G21G17G26G 6G28G 1
 -24207567.43844 -18863003.44444  20610321.6294   20610322.4744
   -660253.29044   -514485.90144  24055501.7044   24055505.9904
 -17953506.62344 -13989715.97944  22200965.1164   22200967.2574
 -25633607.42944 -19974214.86544  20648688.4554   20648689.3544
 -11842852.87544  -9228166.18444  22845731.6264   22845732.3774
 -15207167.98044 -11849736.44244  22610833.7774   22610836.6774
  -5198086.200 4  -4050455.305 4  23040916.949    23040915.980
  -4311453.09544  -3359560.44344  24341285.9694   24341295.4014
 95  6 15  1 55  0.0000000  0  8G23G22G21G17G26G 6G28G 1
 -24208047.61444 -18863377.59544  20610230.2064   20610231.0014
   -616640.75644   -480502.18644  24063800.8444   24063805.3714
 -18015094.32144 -14037706.34944  22189245.2904   22189247.2744
 -25620681.43444 -19964142.66644  20651148.2524   20651149.3144
 -11778288.44844  -9177856.24344  22858017.7614   22858018.3184
 -15105265.78544 -11770332.19844  22630225.0754   22630228.2304
  -5289561.411 4  -4121734.686 4  23023510.037    23023508.992
  -4422347.23844  -3445971.15844  24320182.6934   24320190.0384
 95  6 15  1 55 30.0000000  0  8G23G22G21G17G26G 6G28G 1
 -24208189.85044 -18863488.41644  20610203.2574   20610204.0444
   -572684.67444   -446250.74844  24072165.7044   24072168.8374
 -18076427.43844 -14085498.34544  22177573.9584   22177576.3364
 -25607502.30544 -19953873.21544  20653656.1354   20653657.1884
 -11713285.40144  -9127204.53544  22870387.0574   22870387.4174
 -15003077.01344 -11690704.64444  22649671.0194   22649674.3784
  -5380739.164 4  -4192782.270 4  23006159.256    23006158.437
  -4533217.53244  -3532363.33444  24299084.4244   24299092.8634
 95  6 15  1 56  0.0000000  0  8G23G22G21G17G26G 6G28G 1
 -24207973.17744 -18863319.56244  20610244.4044   20610245.2074
   -528379.05544   -411726.97044  24080596.7474   24080599.9534
 -18137502.19344 -14133089.01344  22165951.8034   22165953.9844
 -25594055.49144 -19943395.18644  20656214.9844   20656216.1654
 -11647827.41944  -9076198.31944  22882843.7894   22882844.7234
 -14900596.87744 -11610850.04944  22669172.5364   22669175.1354
  -5471604.239 4  -4263586.203 4  22988868.201    22988867.347
  -4644054.80144  -3618729.82244  24277992.8084   24278000.1734
 95  6 15  1 56 30.0000000  0  8G23G22G21G17G26G 6G28G 1
 -24207384.89844 -18862861.15144  20610356.3514   20610357.1444
   -483723.98944   -376930.89644  24089094.3854   24089096.8304
 -18198296.78644 -14180461.37644  22154383.0144   22154385.3734
 -25580319.12444 -19932691.53244  20658828.9934   20658830.0724
 -11581891.42644  -9024819.63044  22895391.0894   22895392.3554
 -14797826.01244 -11530768.92744  22688729.4984   22688732.8754
  -5562136.229 4  -4334130.601 4  22971640.514    22971639.658
  -4754848.79244  -3705062.51644  24256909.2574   24256915.1664
 95  6 15  1 57  0.0000000  0  8G23G22G21G17G26G 6G28G 1
 -24206492.28844 -18862165.59544  20610526.1044   20610526.9334
   -438783.21144   -341912.18744  24097646.1104   24097649.4614
 -18258862.45844 -14227655.36944  22142857.7374   22142860.2104
 -25566341.62244 -19921799.98244  20661488.6314   20661489.8384
 -11515537.88144  -8973115.56244  22908017.5954   22908017.8504
 -14694826.49944 -11450509.63344  22708329.5784   22708332.1394
  -5652394.862 4  -4404461.990 4  22954464.988    22954463.996
  -4865666.28944  -3791413.55944  24235821.1214   24235827.2264
 95  6 15  1 57 30.0000000  0  8G23G22G21G17G26G 6G28G 1
 -24205345.16844 -18861271.71744  20610744.3404   20610745.3094
   -393590.77744   -306697.35744  24106246.0214   24106250.0114
 -18319246.25144 -14274707.64244  22131366.9054   22131368.9274
 -25552155.87644 -19910746.16444  20664188.1574   20664189.2684
 -11448809.86944  -8921119.71044  22920715.3994   22920716.1134
 -14591637.02244 -11370102.30844  22727965.8524   22727968.0654
  -5742415.801 4  -4474608.157 4  22937334.506    22937333.504
  -4976534.91244  -3877804.45144  24214723.8094   24214730.0874
 95  6 15  1 58  0.0000000  0  8G23G22G21G17G26G 6G28G 1
 -24203843.86744 -18860101.85344  20611030.0754   20611030.9484
   -348043.97044   -271206.42144  24114913.4604   24114918.0784
 -18379328.02344 -14321524.57744  22119933.7084   22119936.0354
 -25537641.58944 -19899436.34244  20666950.1304   20666951.2694
 -11381580.70344  -8868733.33844  22933508.8184   22933509.1294
 -14488146.87644 -11289460.70044  22747659.5534   22747662.0804
  -5832079.472 4  -4544475.925 4  22920272.030    22920271.124
  -5087331.54544  -3964139.23544  24193639.5124   24193647.7044
 95  6 15  1 58 30.0000000  0  8G23G22G21G17G26G 6G28G 1
 -24202031.52444 -18858689.62144  20611374.9564   20611375.7374
   -302179.06244   -235467.58444  24123641.1894   24123644.5404
 -18439134.33644 -14368126.86944  22108552.9284   22108555.2124
 -25522834.06144 -19887898.01844  20669768.1054   20669769.3734
 -11313895.87244  -8815991.90544  22946388.9724   22946389.8104
 -14384408.18744 -11208625.43344  22767400.3364   22767403.8764
  -5921420.514 4  -4614092.282 4  22903271.065    22903269.996
  -5198076.40144  -4050433.68744  24172565.1574   24172570.4634
 95  6 15  1 59  0.0000000  0  8G23G22G21G17G26G 6G28G 1
 -24199895.72444 -18857025.34744  20611781.3384   20611782.2754
   -255976.77944   -199465.86144  24132433.3574   24132437.4994
 -18498665.86144 -14414515.03144  22097224.4524   22097226.6784
 -25507740.94744 -19876137.16044  20672639.8884   20672641.1794
 -11245754.97344  -8762895.09044  22959355.5154   22959356.8504
 -14280414.44544 -11127591.40244  22787189.7424   22787192.8024
  -6010431.065 4  -4683451.129 4  22886332.705    22886331.865
  -5308753.54444  -4136675.39144  24151503.7954   24151510.0304
 95  6 15  1 59 30.0000000  0  8G23G22G21G17G26G 6G28G 1
 -24197433.17244 -18855106.46244  20612249.8794   20612250.8254
   -209445.73144   -163207.95344  24141288.0274   24141293.0734
 -18557930.87444 -14460695.52744  22085946.6594   22085949.3094
 -25492385.66044 -19864172.01144  20675562.0224   20675563.3704
 -11177172.32244  -8709454.05944  22972406.4664   22972407.2734
 -14176165.46844 -11046358.52944  22807027.5774   22807030.7394
  -6099115.742 4  -4752556.049 4  22869456.605    22869455.570
  -5419357.48844  -4222860.07744  24130456.2284   24130460.5284
 95  6 15  2  0  0.0000000  0  8G23G22G21G17G26G 6G28G 1
 -24194667.24544 -18852951.18544  20612776.2294   20612777.1554
   -162620.55044   -126720.85244  24150198.5424   24150202.8754
 -18616936.01544 -14506673.52644  22074718.3524   22074720.8984
 -25476804.07244 -19852030.52744  20678526.9734   20678528.3394
 -11108168.80044  -8655685.07744  22985537.1504   22985538.3634
 -14071692.64744 -10964951.21944  22826908.3054   22826910.2364
  -6187497.629 4  -4821425.031 4  22852638.369    22852637.122
  -5529910.22544  -4309004.85044  24109418.7154   24109425.1614
 95  6 15  2  0 30.0000000  0  8G23G22G21G17G26G 6G28G 1
 -24191587.98944 -18850551.76444  20613362.2404   20613363.0484
   -115478.65144    -89986.94244  24159169.2404   24159173.2164
 -18675672.72344 -14552442.36044  22063540.8974   22063543.1114
 -25460981.36144 -19839701.15444  20681538.2264   20681539.3984
 -11038743.56044  -8601587.49244  22998748.2254   22998749.0644
 -13966981.08344 -10883357.88044  22846834.4944   22846836.8734
  -6275562.437 4  -4890046.945 4  22835880.039    22835878.810
  -5640410.02344  -4395108.36944  24088390.8534   24088396.8124
 95  6 15  2  1  0.0000000  0  7G23G21G17G26G 6G28G 1
 -24188207.99744 -18847917.99544  20614005.3674   20614006.2464
 -18734163.75244 -14598019.75244  22052410.3514   22052412.7364
 -25444929.53444 -19827193.24744  20684592.6544   20684593.9234
 -10968901.11444  -8547164.80544  23012039.2254   23012040.3844
 -13862022.69844 -10801572.21244  22866807.4774   22866810.1824
  -6363317.748 4  -4958427.698 4  22819180.512    22819179.651
  -5750882.27044  -4481190.42444  24067368.6294   24067375.3074
 95  6 15  2  1 30.0000000  0  8G23G 9G21G17G26G 6G28G 1
 -24184512.30944 -18845038.22744  20614708.6564   20614709.4684
        -0.54454                  25233458.6424
 -18792395.18644 -14643394.85544  22041329.4204   22041331.7304
 -25428610.97744 -19814477.50144  20687697.9084   20687699.1424
 -10898628.86944  -8492407.21144  23025411.2774   23025412.4864
 -13756811.01044 -10719589.17044  22886828.6774   22886831.2414
  -6450745.237 4  -5026552.982 4  22802543.753    22802542.699
  -5861312.03244  -4567239.36544  24046354.5944   24046360.3594
 95  6 15  2  2  0.0000000  0  8G23G 9G21G17G26G 6G28G 1
 -24180504.28144 -18841915.07544  20615471.3444   20615472.1834
    -63618.76544    -49571.82344  25221353.0354
 -18850368.49844 -14688568.81944  22030297.3864   22030299.7024
 -25412015.04744 -19801545.61944  20690856.1754   20690857.1974
 -10827922.24544  -8437311.15344  23038866.2544   23038867.2724
 -13651358.19944 -10637418.22344  22906895.5424   22906898.6314
  -6537839.159 4  -5094418.351 4  22785970.085    22785969.390
  -5971706.49344  -4653260.82044  24025346.9334   24025351.6234
 95  6 15  2  2 30.0000000  0  8G23G 9G21G17G26G 6G28G 1
 -24176192.05244 -18838554.88244  20616291.8874   20616292.7864
   -127185.62744    -99104.45244  25209256.3454
 -18908119.69644 -14733569.71344  22019307.6784   22019309.9194
 -25395154.19144 -19788407.29844  20694064.5044   20694065.6134
 -10756806.82944  -8381896.55744  23052399.0054   23052399.5744
 -13545687.37244 -10555077.41244  22927004.2524   22927007.4014
  -6624612.512 4  -5162033.924 4  22769457.961    22769456.801
  -6082089.09544  -4739273.03644  24004341.3664   24004347.9034
 95  6 15  2  3  0.0000000  0  8G23G 9G21G17G26G 6G28G 1
 -24171555.18544 -18834941.72944  20617174.2174   20617175.1764
   -190699.91944                  25197170.1474
 -18965651.18044 -14778399.39744  22008359.8784   22008362.2184
 -25378035.65044 -19775068.18444  20697322.0554   20697323.3204
 -10685275.86044  -8326158.14244  23066011.1774   23066011.7054
 -13439804.11044 -10472571.07044  22947153.1784   22947156.0004
  -6711061.123 4  -5229396.458 4  22753007.137    22753006.220
  -6192437.86044  -4825258.89844  23983342.8154   23983348.6734
 95  6 15  2  3 30.0000000  0  8G23G 9G21G17G26G 6G28G 1
 -24166580.87244 -18831065.62944  20618120.7654   20618121.6194
   -254140.27744   -198030.13344  25185098.0034
 -19022935.63044 -14823036.59244  21997458.9664   21997461.1284
 -25360651.23444 -19761521.89344  20700630.2704   20700631.5174
 -10613315.67844  -8270085.29244  23079704.9024   23079705.3284
 -13333704.99744 -10389896.53444  22967343.1144   22967345.5394
  -6797167.854 4  -5296492.593 4  22736621.623    22736620.604
  -6302719.31444  -4911192.30244  23962356.7354   23962363.8314
 95  6 15  2  4  0.0000000  0  8G23G 9G21G17G26G 6G28G 1
 -24161286.11144 -18826939.82544  20619128.3444   20619129.1884
   -317492.43144                  25173041.8994
 -19079972.78944 -14867481.09044  21986605.0714   21986607.5034
 -25343019.54544 -19747782.92044  20703985.3164   20703986.4744
 -10540933.03244  -8213683.24044  23093478.6814   23093479.7384
 -13227378.15844 -10307044.54244  22987576.7424   22987579.8834
  -6882932.392 4  -5363322.098 4  22720301.149    22720300.150
  -6412932.79844  -4997072.76644  23941383.2624   23941387.3324
 95  6 15  2  4 30.0000000  0  8G23G 9G21G17G26G 6G28G 1
 -24155674.46144 -18822567.09944  20620196.2424   20620196.9924
   -380737.74544                  25161006.6764
 -19136761.78744 -14911732.22344  21975798.4824   21975800.6434
 -25325133.06444 -19733845.41144  20707389.1144   20707390.2034
 -10468133.32344  -8156956.20744  23107331.6974   23107332.4104
 -13120811.84544 -10224005.95044  23007855.9054   23007858.4924
  -6968350.989 4  -5429882.040 4  22704046.420    22704045.619
  -6523063.89444  -5082889.04544  23920426.2834   23920430.7224
 95  6 15  2  5  0.0000000  0  8G23G 9G21G17G26G 6G28G 1
 -24149750.06744 -18817950.67644  20621323.7284   20621324.3934
   -443879.78944                  25148991.4794
 -19193285.78444 -14955776.86344  21965042.1384   21965044.1844
 -25306984.50744 -19719703.68744  20710842.7194   20710844.0934
 -10394922.76544  -8099909.04544  23121263.3384   23121264.3894
 -13013993.17144 -10140770.71644  23028182.8714   23028186.0784
  -7053419.741 4  -5496169.376 4  22687858.517    22687857.579
  -6633096.70444  -5168628.74044  23899487.9714   23899490.9844
 95  6 15  2  5 30.0000000  0  8G23G 9G21G17G26G 6G28G 1
 -24143525.59544 -18813100.42944  20622508.1234   20622508.8494
   -506899.37344   -394985.22044  25136999.2814
 -19249524.82944 -14999599.46044  21954340.3024   21954342.3994
 -25288552.28744 -19705340.92844  20714350.3144   20714351.6814
 -10321311.39744  -8042549.55344  23135271.1774   23135272.4674
 -12906913.88544 -10057332.40044  23048559.2304   23048562.8484
  -7138125.749 4  -5562174.052 4  22671739.299    22671738.655
  -6743032.24644  -5254292.61244  23878567.6014   23878572.9694
 95  6 15  2  6  0.0000000  0  8G23G 9G21G17G26G 6G28G 1
 -24137079.65844 -18808077.61644  20623734.8154   20623735.6524
   -569876.53944                  25125015.0174
 -19305548.15344 -15043253.96144  21943679.6754   21943681.7554
 -25269890.69744 -19690799.43244  20717901.5814   20717902.7844
 -10247377.45244  -7984938.69444  23149340.3304   23149340.8784
 -12799650.42344  -9973750.57444  23068971.0214   23068974.0994
  -7222533.299 4  -5627946.169 4  22655677.149    22655676.301
  -6852954.82144  -5339946.41044  23857649.9754   23857655.7634
 95  6 15  2  6 30.0000000  0  8G23G 9G21G17G26G 6G28G 1
 -24130390.96644 -18802865.64344  20625007.5564   20625008.4554
   -632801.92844                  25113040.6584
 -19361335.60344 -15086724.65744  21933063.6224   21933065.3174
 -25250976.14844 -19676060.82944  20721500.9364   20721502.2154
 -10173102.39744  -7927062.05844  23163474.2854   23163476.1164
 -12692213.18744  -9890033.32844  23089415.6674   23089417.6884
  -7306623.048 4  -5693470.640 4  22639675.492    22639674.717
  -6962855.93144  -5425583.46044  23836736.1894   23836742.7614
 95  6 15  2  7  0.0000000  0  8G23G 9G21G17G26G 6G28G 1
 -24123374.27944 -18797398.08444  20626342.6814   20626343.5374
   -695601.12344   -542025.12844  25101090.1834
 -19416802.38144 -15129945.47844  21922508.5394   21922510.4474
 -25231736.47244 -19661068.87944  20725161.9474   20725163.2254
 -10098404.35244  -7868855.78644  23177688.8334   23177689.2414
 -12584543.41244  -9806134.88944  23109904.2914   23109907.3954
  -7390311.469 4  -5758682.390 4  22623749.958    22623749.111
  -7072662.41044  -5511146.79444  23815840.6944   23815844.7524
 95  6 15  2  7 30.0000000  0  8G23G 9G21G17G26G 6G28G 1
 -24116050.20544 -18791691.00744  20627736.4214   20627737.3454
   -758303.23344                  25089158.5974
 -19471985.90544 -15172945.58744  21912007.4594   21912009.4784
 -25212203.39644 -19645848.31144  20728879.0404   20728880.3474
 -10023286.18744  -7810322.17144  23191983.5524   23191984.5984
 -12476682.50944  -9722087.51644  23130430.0374   23130432.5444
  -7473619.538 4  -5823597.761 4  22607897.148    22607896.328
  -7182410.79744  -5596664.84144  23794956.4104   23794960.9474
 95  6 15  2  8  0.0000000  0  8G23G 9G21G17G26G 6G28G 1
 -24108417.84644 -18785743.70844  20629188.8734   20629189.7494
   -820930.44344                  25077240.7944
 -19526911.45844 -15215744.68044  21901555.3954   21901557.1274
 -25192402.07344 -19630418.71744  20732647.2824   20732648.4404
  -9947758.74844  -7751469.63244  23206355.9974   23206357.7434
 -12368642.58444  -9637900.64044  23150989.6664   23150992.3954
  -7556563.167 4  -5888229.149 4  22592113.133    22592112.490
  -7292113.04644  -5682146.93944  23774080.3704   23774085.7964
 95  6 15  2  8 30.0000000  0  8G23G 9G21G17G26G 6G28G 1
 -24100426.14344 -18779516.40144  20630709.6794   20630710.5114
   -883448.66444                  25065343.6764
 -19581562.77544 -15258330.09444  21891155.4844   21891157.4184
 -25172314.06644 -19614765.73044  20736469.7454   20736470.9104
  -9871789.26744  -7692272.64144  23220812.3694   23220814.2014
 -12260386.43144  -9553545.28244  23171589.9084   23171593.6734
  -7639114.347 4  -5952554.737 4  22576404.500    22576403.465
  -7401723.74344  -5767557.73144  23753222.2254   23753229.0134
 95  6 15  2  9  0.0000000  0  8G23G 9G21G17G26G 6G28G 1
 -24092107.12844 -18773034.04344  20632292.7414   20632293.5344
   -945897.90444   -737061.02944  25053460.1464   25053462.5464
 -19635983.21944 -15300735.60344  21880799.7394   21880801.8184
 -25151979.92844 -19598920.95444  20740339.2334   20740340.3444
  -9795421.63344  -7632765.40744  23235344.7874   23235345.6814
 -12151937.82344  -9469039.93844  23192226.9894   23192230.0954
  -7721310.605 4  -6016603.750 4  22560762.822    22560762.262
  -7511264.35244  -5852913.89544  23732377.2984   23732381.0104
 95  6 15  2  9 30.0000000  0  8G23G 9G21G17G26G 6G28G 1
 -24083463.47244 -18766298.71844  20633937.4614   20633938.2964
  -1008271.40544                  25041590.5184
 -19690177.31144 -15342964.72544  21870486.7384   21870488.7244
 -25131392.65544 -19582878.92844  20744256.7274   20744257.8384
  -9718677.62944  -7572964.89444  23249948.6694   23249950.2434
 -12043283.19644  -9384374.07244  23212903.4394   23212906.6424
  -7803153.407 4  -6080377.342 4  22545188.737    22545187.802
  -7620725.05144  -5938207.77544  23711547.0554   23711551.3804
 95  6 15  2 10  0.0000000  0  8G23G 9G21G17G26G 6G28G 1
 -24074457.72144 -18759281.24044  20635651.1804   20635652.1454
  -1070506.70844   -834158.48844  25029747.3614
 -19744084.73044 -15384970.46344  21860228.5054   21860230.4304
 -25110491.45044 -19566592.27644  20748234.1644   20748235.3314
  -9641533.06944  -7512852.27144  23264628.9514   23264629.6054
 -11934369.33044  -9299506.20444  23233628.9154   23233631.3974
  -7884589.224 4  -6143833.807 4  22529692.014    22529691.240
  -7730035.27744  -6023384.42744  23690745.9664   23690751.1434
 95  6 15  2 10 30.0000000  0  8G23G 9G21G17G26G 6G28G 1
 -24065131.89044 -18752014.35344  20637425.8644   20637426.8864
  -1132621.91844   -882559.74344  25017927.2134   25017932.5794
 -19797710.30544 -15426756.59044  21850023.8154   21850026.2264
 -25089292.80944 -19550073.86244  20752268.1814   20752269.3194
  -9564007.18844  -7452442.49744  23279381.3314   23279381.9234
 -11825232.37244  -9214464.49844  23254396.7204   23254399.1594
  -7965637.101 4  -6206987.979 4  22514268.983    22514268.184
  -7839213.52344  -6108458.24444  23669970.0884   23669974.6344
 95  6 15  2 11  0.0000000  0  8G23G 9G21G17G26G 6G28G 1
 -24055504.72344 -18744512.66144  20639257.9924   20639258.7064
  -1194598.41044   -930852.95744  25006133.1064
 -19851040.88944 -15468312.85644  21839875.4274   21839877.1494
 -25067782.75444 -19533312.78244  20756361.4194   20756362.6454
  -9486105.53944  -7391739.93044  23294205.8234   23294206.5324
 -11715881.01044  -9129255.73044  23275205.9454   23275209.1404
  -8046289.185 4  -6269833.731 4  22498921.314    22498920.538
  -7948252.28244  -6193423.35944  23649220.5744   23649224.2484
 95  6 15  2 11 30.0000000  0  8G23G 9G21G17G26G 6G28G 1
 -24045602.91544 -18736796.95444  20641142.1084   20641142.8924
  -1256431.95344   -979034.74744  24994366.7024   24994367.6834
 -19904087.04944 -15509647.49244  21829781.1894   21829782.9614
 -25045965.79144 -19516312.55844  20760513.2124   20760514.2404
  -9407829.71744  -7330745.80644  23309101.1474   23309102.4734
 -11606343.15444  -9043901.65044  23296050.4034   23296053.5184
  -8126547.794 4  -6332372.890 4  22483648.712    22483647.903
  -8057158.29644  -6278285.03944  23628496.3614   23628501.7054
 95  6 15  2 12  0.0000000  0  8G23G 9G21G17G26G 6G28G 1
 -24035439.65044 -18728877.52244  20643076.1314   20643077.0184
  -1318105.55044  -1027091.95644  24982630.2484
 -19956844.14144 -15550756.87644  21819741.7564   21819743.4764
 -25023841.13844 -19499072.57344  20764723.0684   20764724.4104
  -9329148.16444  -7269435.51744  23324073.6664   23324074.2724
 -11496622.31044  -8958404.98644  23316929.3754   23316932.1604
  -8206401.336 4  -6394596.400 4  22468452.748    22468452.353
  -8165931.03144  -6363042.87644  23607797.4514   23607801.8864
 95  6 15  2 12 30.0000000  0  8G23G 9G21G17G26G 6G28G 1
 -24025063.82444 -18720792.45844  20645050.6814   20645051.4744
  -1379660.16544  -1075056.39344  24970917.1414
 -20009384.25444 -15591697.17444  21809743.8164   21809745.5254
 -25001466.39044 -19481637.71244  20768980.8094   20768982.0934
  -9250107.55944  -7207845.44244  23339114.7614   23339115.7874
 -11386768.85544  -8872804.98144  23337833.9684   23337837.3774
  -8285901.510 4  -6456544.558 4  22453324.497    22453323.751
  -8274632.57844  -6447745.22544  23587112.0384   23587115.8744
 95  6 15  2 13  0.0000000  0  8G23G 9G21G17G26G 6G28G 1
 -24014451.87744 -18712523.39944  20647069.8884   20647070.7924
  -1441090.32444  -1122923.91344  24959227.1584
 -20061726.63444 -15632483.40044  21799783.1264   21799785.2984
 -24978838.81944 -19464005.85144  20773286.8624   20773288.2274
  -9170710.54044  -7145977.65144  23354223.7854   23354225.0284
 -11276766.35744  -8787088.83244  23358766.8434   23358771.0284
  -8365038.195 4  -6518209.501 4  22438265.549    22438264.491
  -8383260.34744  -6532390.09044  23566440.9264   23566444.1394
 95  6 15  2 13 30.0000000  0  8G23G 9G21G17G26G 6G28G 1
 -24003522.89944 -18704007.31244  20649149.6874   20649150.6454
  -1502339.37944  -1170650.28844  24947571.9264   24947571.0804
 -20113800.33944 -15673060.27044  21789873.7814   21789875.6314
 -24955901.30844 -19446132.47944  20777651.6184   20777652.9714
  -9090879.74244  -7083771.84544  23369414.9564   23369415.9344
 -11166532.61144  -8701192.50344  23379743.6684   23379746.8644
  -8443741.802 4  -6579536.952 4  22423288.187    22423287.854
  -8491759.09244  -6616934.43144  23545794.3164   23545799.0964
 95  6 15  2 14  0.0000000  0  8G23G 9G21G17G26G 6G28G 1
 -23992272.47444 -18695240.74044  20651290.5094   20651291.2694
  -1563429.60444  -1218252.94844  24935946.0994
 -20165615.17744 -15713435.43044  21780013.7304   21780015.8704
 -24932681.69344 -19428039.28444  20782070.2104   20782071.6074
  -9010652.24344  -7021256.92844  23384681.7854   23384682.2404
 -11056070.48944  -8615118.23044  23400764.0834   23400767.9474
  -8522032.655 4  -6640542.794 4  22408390.372    22408389.459
  -8600153.38844  -6701397.35744  23525167.3614   23525171.9434
 95  6 15  2 14 30.0000000  0  8G23G 9G21G17G26G 6G28G 1
 -23980693.79144 -18686218.38044  20653493.8164   20653494.7164
  -1624400.22244  -1265762.36344  24924344.1424   24924348.3634
 -20217186.73544 -15753621.01944  21770199.8504   21770202.0834
 -24909205.18844 -19409745.91044  20786537.7504   20786539.0054
  -8930073.30744  -6958468.14644  23400015.0924   23400014.3334
 -10945411.09744  -8528890.23144  23421821.8234   23421825.5954
  -8599932.842 4  -6701244.214 4  22393566.365    22393565.632
  -8708456.73144  -6785789.44244  23504557.8064   23504562.5494
 95  6 15  2 15  0.0000000  0  8G23G 9G21G17G26G 6G28G 1
 -23968891.63544 -18677021.88644  20655739.7334   20655740.5214
  -1685366.88244  -1313268.71944  24912742.5304   24912746.5174
 -20268599.16044 -15793682.61644  21760416.4254   21760418.2244
 -24885586.73244 -19391341.92744  20791032.2374   20791033.5814
  -8849256.99044  -6895494.40844  23415394.2054   23415395.8034
 -10834670.69044  -8442599.09644  23442895.5734   23442898.7294
  -8677545.287 4  -6761721.421 4  22378796.924    22378796.453
  -8816770.01444  -6870189.25444  23483946.4614   23483950.4074
 95  6 15  2 15 30.0000000  0  8G23G 9G21G17G26G 6G28G 1
 -23956736.65244 -18667550.46444  20658052.7494   20658053.6814
  -1746160.07644  -1360639.88044  24901173.6954   24901176.8704
 -20319688.58544 -15833492.51844  21750694.4074   21750696.2184
 -24861674.26644 -19372708.84344  20795582.8024   20795583.9944
  -8768059.71044  -6832223.80344  23430845.3464   23430845.9254
 -10723714.24044  -8356139.62644  23464009.8684   23464012.7594
  -8754717.040 4  -6821855.233 4  22364111.907    22364111.125
  -8924931.88544  -6954471.08744  23463363.9454   23463367.9804
 95  6 15  2 16  0.0000000  0  8G23G 9G21G17G26G 6G28G 1
 -23944254.16344 -18657823.84144  20660428.1104   20660428.9034
  -1806786.51144  -1407881.16044  24889636.7314   24889641.1514
 -20370475.93544 -15873067.04844  21741029.9194   21741031.7054
 -24837472.28144 -19353850.16544  20800187.9644   20800189.1884
  -8686505.83444  -6768675.34644  23446364.7094   23446365.0274
 -10612570.68344  -8269534.33944  23485159.5694   23485162.7544
  -8831456.636 4  -6881652.305 4  22349508.840    22349508.242
  -9032938.22444  -7038631.75344  23442810.9124   23442814.9124
 95  6 15  2 16 30.0000000  0  8G23G 9G21G17G26G 6G28G 1
 -23931493.05544 -18647880.11744  20662856.3894   20662857.4104
  -1867271.39644  -1455012.10744  24878126.7544   24878129.0444
 -20420990.39944 -15912428.93644  21731417.3014   21731419.1594
 -24812994.67744 -19334776.71944  20804846.0404   20804847.4174
  -8604606.33144  -6704857.55144  23461949.6684   23461949.9904
 -10501278.64444  -8182813.36444  23506338.2934   23506341.6754
  -8907780.306 4  -6941125.279 4  22334984.855    22334984.210
  -9140803.57844  -7122682.54644  23422284.5404   23422287.7194
 95  6 15  2 17  0.0000000  0  8G23G 9G21G17G26G 6G28G 1
 -23918485.90344 -18637744.66844  20665331.5774   20665332.4714
  -1927599.06844  -1502020.55544  24866646.7304
 -20471242.79644 -15951586.61444  21721854.7214   21721856.3954
 -24788238.82444 -19315486.45344  20809556.9824   20809558.3234
  -8522352.13444  -6640763.38344  23477602.1214   23477601.9844
 -10389835.52844  -8095974.66744  23527545.0284   23527547.5284
  -8983686.914 4  -7000273.263 4  22320540.377    22320539.761
  -9248521.70244  -7206618.60544  23401786.5894   23401790.1514
 95  6 15  2 17 30.0000000  0  8G23G 9G21G17G26G 6G28G 1
 -23905241.76244 -18627424.55544  20667851.8434   20667852.6924
  -1987774.64044  -1548910.48544  24855195.6614   24855198.6024
 -20521256.52244 -15990558.32144  21712337.3494   21712339.2164
 -24763197.46444 -19295973.72044  20814322.2814   20814323.4444
  -8439749.43244  -6576397.65744  23493320.9074   23493321.5694
 -10278259.44144  -8009032.37244  23548777.1164   23548779.5474
  -9059182.721 4  -7059101.148 4  22306174.119    22306173.326
  -9356080.83844  -7290430.79144  23381318.5044   23381323.5994
 95  6 15  2 18  0.0000000  0  8G23G 9G21G17G26G 6G28G 1
 -23891738.28544 -18616902.35844  20670421.4054   20670422.3604
  -2047806.27544  -1595688.30044  24843772.1934   24843771.0064
 -20571022.26444 -16029336.80644  21702867.1944   21702868.9334
 -24737860.83044 -19276230.90244  20819143.5664   20819144.7984
  -8356785.83744  -6511750.69544  23509108.6224   23509108.5564
 -10166548.07344  -7921984.64644  23570035.3424   23570038.4104
  -9134256.160 4  -7117599.918 4  22291887.855    22291887.370
  -9463474.20344  -7374113.81744  23360882.2004   23360885.3994
 95  6 15  2 18 30.0000000  0  8G23G 9G21G17G26G 6G28G 1
 -23877994.88344 -18606193.21444  20673036.9014   20673037.6064
  -2107703.73244  -1642361.53344  24832373.8044   24832374.8834
 -20620563.38644 -16067940.25444  21693439.6884   21693441.5834
 -24712243.91744 -19256269.68144  20824018.2454   20824019.5484
  -8273486.15544  -6446841.85844  23524959.9704   23524960.4144
 -10054724.14844  -7834849.20844  23591315.0814   23591319.8114
  -9208923.237 4  -7175782.032 4  22277679.204    22277678.610
  -9570726.79644  -7457687.12344  23340472.6194   23340477.8114
 95  6 15  2 19  0.0000000  0  8G23G 9G21G17G26G 6G28G 1
 -23863976.83944 -18595270.06344  20675704.4254   20675705.2554
  -2167434.28644  -1688904.70144  24821007.3634   24821009.3124
 -20669865.37144 -16106357.36044  21684057.8614   21684059.8614
 -24686325.89444 -19236073.83044  20828950.4634   20828951.7694
  -8189847.18144  -6381668.65644  23540875.7874   23540876.3384
  -9942765.76344  -7747609.02144  23612619.8584   23612623.0154
  -9283164.701 4  -7233632.507 4  22263551.620    22263550.984
  -9677823.65444  -7541139.09444  23320092.5574   23320096.8734
 95  6 15  2 19 30.0000000  0  8G23G 9G21G17G26G 6G28G 1
 -23849659.55444 -18584113.73244  20678428.9014   20678429.6304
  -2226995.05144  -1735315.51744  24809673.1834   24809677.8174
 -20718914.21844 -16144577.21444  21674724.3174   21674725.9144
 -24660092.11344 -19215631.93344  20833942.5044   20833943.8224
  -8105875.60944  -6316236.25444  23556854.9824   23556856.8964
  -9830670.99544  -7660262.52144  23633950.2564   23633953.4334
  -9356973.451 4  -7291145.808 4  22249506.119    22249505.563
  -9784780.60444  -7624482.05944  23299739.3574   23299743.1434
 95  6 15  2 20  0.0000000  0  8G23G 9G21G17G26G 6G28G 1
 -23835062.41044 -18572739.32344  20681206.5224   20681207.3964
  -2286391.50244  -1781598.40144  24798370.0564
 -20767715.47144 -16182604.13744  21665437.6034   21665439.5144
 -24633554.56744 -19194953.33544  20838992.3914   20838993.7784
  -8021582.69144  -6250553.47244  23572895.3774   23572896.8694
  -9718432.97544  -7572804.42244  23655309.0094   23655312.5684
  -9430357.912 4  -7348328.486 4  22235541.497    22235540.884
  -9891634.26444  -7707744.53544  23279405.2744   23279408.4664
 95  6 15  2 20 30.0000000  0  8G23G 9G21G17G26G 6G28G 1
 -23820161.57544 -18561128.27744  20684042.1254   20684043.0364
  -2345578.09244  -1827717.65044  24787106.9844   24787111.8654
 -20816241.78044 -16220416.81944  21656203.4184   21656205.3894
 -24606684.60044 -19174015.70644  20844105.7364   20844106.9684
  -7936940.74644  -6184598.73044  23589002.1134   23589002.7694
  -9606018.55544  -7485208.88144  23676700.6684   23676704.1544
  -9503289.891 4  -7405158.575 4  22221662.880    22221662.454
  -9998349.91544  -7790899.46744  23259098.0024   23259101.5644
 95  6 15  2 21  0.0000000  0  8G23G 9G21G17G26G 6G28G 1
 -23805000.94144 -18549314.79644  20686927.0574   20686927.9094
  -2404602.15044  -1873710.36244  24775875.4494   24775882.4644
 -20864523.55344 -16258038.95644  21647015.7274   21647017.5924
 -24579537.05044 -19152861.78044  20849271.6164   20849272.9794
  -7851998.73444  -6118410.15044  23605165.9014   23605166.4154
  -9493473.52244  -7397511.55544  23698117.4554   23698121.0434
  -9575816.933 4  -7461673.135 4  22207861.674    22207860.898
 -10104964.93044  -7873975.99044  23238810.0624   23238813.3994
 95  6 15  2 21 30.0000000  0  8G23G 9G21G17G26G 6G28G 1
 -23789575.65844 -18537295.09344  20689862.4064   20689863.2354
  -2463433.77644  -1919553.04644  24764680.2154   24764686.2014
 -20912529.11244 -16295445.86044  21637880.4674   21637882.1154
 -24552085.83244 -19131471.23344  20854495.5264   20854496.9204
  -7766723.27844  -6051961.73944  23621393.4504   23621394.5614
  -9380778.65844  -7309697.44144  23719562.5934   23719567.9464
  -9647908.515 4  -7517848.373 4  22194142.817    22194142.395
 -10211435.14644  -7956939.68744  23218549.0554   23218552.2234
 95  6 15  2 22  0.0000000  0  8G23G 9G21G17G26G 6G28G 1
 -23773869.71444 -18525056.68944  20692851.1494   20692852.0754
  -2522035.18344  -1965216.38044  24753528.5044
 -20960235.16044 -16332619.37844  21628802.2694   21628804.0574
 -24524312.13844 -19109829.40444  20859780.4774   20859781.7144
  -7681088.75644  -5985233.54144  23637689.1224   23637689.6464
  -9267906.78944  -7221745.45544  23741041.4094   23741046.6314
  -9719532.637 4  -7573659.357 4  22180513.375    22180512.688
 -10317704.92644  -8039747.17844  23198326.7534   23198329.9544
 95  6 15  2 22 30.0000000  0  8G23G 9G21G17G26G 6G28G 1
 -23757894.20244 -18512608.23344  20695891.2634   20695892.0974
  -2580418.20844  -2010709.54944  24742418.4904   24742425.1894
 -21007651.05144 -16369566.80044  21619779.2444   21619781.0684
 -24496232.54444 -19087949.21244  20865124.0874   20865125.4904
  -7595120.13644  -5918245.02544  23654048.6564   23654049.3904
  -9154882.60844  -7133674.74844  23762550.0354   23762552.2234
  -9790699.263 4  -7629113.851 4  22166970.572    22166970.064
 -10423763.25244  -8122389.93744  23178144.2774   23178147.5014
 95  6 15  2 23  0.0000000  0  8G23G 9G21G17G26G 6G28G 1
 -23741684.65844 -18499977.41344  20698975.7624   20698976.4994
  -2638618.97744  -2056060.65144  24731343.0064   24731349.3744
 -21054809.24144 -16406313.41344  21610805.2664   21610807.2874
 -24467872.77044 -19065850.69644  20870520.4594   20870521.6264
  -7508853.05944  -5851023.94144  23670464.5254   23670467.3294
  -9041726.24744  -7045501.05944  23784082.6434   23784085.9294
  -9861432.817 4  -7684230.885 4  22153510.541    22153509.958
 -10529639.02744  -8204890.41544  23157996.9574   23157999.2344
 95  6 15  2 23 30.0000000  0  8G23G 9G21G17G26G 6G28G 1
 -23725213.47144 -18487142.71544  20702110.0944   20702110.8714
  -2696619.00744  -2101255.38344  24720305.5654   24720307.0534
 -21101688.87644 -16442842.96944  21601884.3374   21601886.3204
 -24439204.05244 -19043511.44344  20875976.1474   20875977.5684
  -7422261.41244  -5783549.93644  23686942.5274   23686944.0334
  -8928406.03844  -6957199.69344  23805646.9584   23805651.3874
  -9931704.138 4  -7738987.741 4  22140138.398    22140137.684
 -10635317.95744  -8287237.52744  23137886.7604   23137889.9564
 95  6 15  2 24  0.0000000  0  8G23G 9G21G17G26G 6G28G 1
 -23708515.59144 -18474131.37944  20705287.6364   20705288.5484
  -2754484.29044  -2146345.07644  24709294.2124   24709293.6874
 -21148344.58444 -16479198.04444  21593006.1094   21593007.7914
 -24410287.06944 -19020978.73944  20881478.9284   20881480.3034
  -7335403.53644  -5715868.48044  23703470.9254   23703471.2814
  -8814967.38244  -6868806.03644  23827233.4734   23827238.0644
 -10001565.225 4  -7793424.933 4  22126844.067    22126843.627
 -10740863.00944  -8369480.31644  23117802.0774   23117806.0294
 95  6 15  2 24 30.0000000  0  8G23G 9G21G17G26G 6G28G 1
 -23691574.54144 -18460930.56244  20708511.2844   20708512.4354
  -2812203.90644  -2191321.34844  24698310.4774
 -21194757.60944 -16515364.01444  21584174.0554   21584175.8064
 -24381100.03044 -18998235.60744  20887033.1264   20887034.2944
  -7248258.94644  -5647963.61744  23720054.1504   23720054.8004
  -8701389.07644  -6780303.56244  23848846.6624   23848850.0074
 -10070994.721 4  -7847525.823 4  22113632.183    22113631.581
 -10846273.61644  -8451618.33144  23097742.9164   23097747.1004
 95  6 15  2 25  0.0000000  0  8G23G 9G21G17G26G 6G28G 1
 -23674350.60644 -18447509.31344  20711788.9704   20711789.8524
  -2869733.39444  -2236149.38044  24687362.7074
 -21240895.84444 -16551315.86244  21575394.1444   21575395.7834
 -24351612.30344 -18975258.17444  20892644.2684   20892645.4684
  -7160781.77444  -5579799.57544  23736700.6394   23736701.5474
  -8587642.02844  -6691669.55744  23870492.0354   23870498.3524
 -10139951.801 4  -7901258.602 4  22100510.089    22100509.512
 -10951526.86844  -8533633.76444  23077714.0124   23077717.9964
 95  6 15  2 25 30.0000000  0  8G23G 9G21G17G26G 6G28G 1
 -23656821.21044 -18433850.03944  20715124.7714   20715125.6914
  -2927055.10644  -2280815.59544  24676454.6314
 -21286750.15444 -16587046.47144  21566668.4154   21566670.0034
 -24321816.82644 -18952040.93344  20898314.0984   20898315.2224
  -7072957.41044  -5511365.02744  23753412.7864   23753413.9794
  -8473736.98744  -6602912.50144  23892167.0074   23892171.5114
 -10208419.722 4  -7954610.217 4  22087481.052    22087480.505
 -11056603.41944  -8615511.47944  23057718.5614   23057721.0694
 95  6 15  2 26  0.0000000  0  8G23G 9G21G17G26G 6G28G 1
 -23639023.59344 -18419981.76544  20718511.5714   20718512.3464
  -2984192.35944  -2325338.03244  24665582.3964   24665584.6384
 -21332371.07244 -16622595.21744  21557986.9074   21557988.5764
 -24291753.61844 -18928615.07144  20904035.2494   20904036.5494
  -6984820.26644  -5442686.72944  23770184.5694   23770185.4784
  -8359730.69444  -6514076.52044  23913862.2344   23913866.7474
 -10276432.710 4  -8007607.347 4  22074538.545    22074537.958
 -11161526.18944  -8697269.37744  23037752.3814   23037755.6944
 95  6 15  2 26 30.0000000  0  8G23G 9G21G17G26G 6G28G 1
 -23620973.94844 -18405917.10844  20721946.2704   20721946.8704
  -3041145.86744  -2369717.23944  24654744.1734   24654745.5864
 -21377778.81544 -16657977.84544  21549346.1884   21549347.5994
 -24261432.77244 -18904988.45844  20909805.1404   20909806.5384
  -6896380.84944  -5373772.91044  23787014.2564   23787015.1964
  -8245661.53644  -6425191.56444  23935568.9024   23935573.5874
 -10344004.329 4  -8060260.550 4  22061680.278    22061679.596
 -11266305.31044  -8778915.34544  23017813.5554   23017817.5644
 95  6 15  2 27  0.0000000  0  8G23G 9G21G17G26G 6G28G 1
 -23602660.31644 -18391646.74344  20725431.2354   20725432.1764
  -3097901.15944  -2413942.04944  24643944.3824   24643945.0204
 -21422973.71844 -16693194.62844  21540745.8454   21540747.6604
 -24230849.29744 -18881157.20244  20915625.0604   20915626.4854
  -6807638.28744  -5304622.87044  23803901.2514   23803901.6384
  -8131533.28844  -6336260.57644  23957286.6684   23957291.0234
 -10411127.014 4  -8112563.935 4  22048907.103    22048906.627
 -11370906.02944  -8860422.28744  22997908.6224   22997912.2524
 95  6 15  2 27 30.0000000  0  8G23G 9G21G17G26G 6G28G 1
 -23584072.77644 -18377162.94344  20728968.2134   20728968.9734
  -3154436.23144  -2457995.28544  24633185.8534   24633183.7684
 -21467948.32544 -16728239.75144  21532187.3814   21532189.0124
 -24199976.28844 -18857100.33544  20921500.0354   20921501.3514
  -6718589.06344  -5235233.86944  23820846.6564   23820849.7654
  -8017327.03844  -6247268.80344  23979019.3044   23979025.5534
 -10477784.737 4  -8164505.016 4  22036222.559    22036221.966
 -11475295.90144  -8941764.95244  22978043.9484   22978047.1894
 95  6 15  2 28  0.0000000  0  8G23G 9G21G17G26G 6G28G 1
 -23565219.58844 -18362472.14744  20732555.9964   20732556.8304
  -3210723.76744  -2501855.64044  24622473.7884   24622480.7274
 -21512694.78344 -16763107.09444  21523672.4634   21523674.4444
 -24168794.22744 -18832802.64944  20927433.5244   20927434.7174
  -6629228.18344  -5165602.03944  23837851.6034   23837853.7934
  -7903022.03344  -6158200.07244  24000770.4704   24000771.0864
 -10543964.622 4  -8216073.760 4  22023628.928    22023628.333
 -11579462.33744  -9022933.50544  22958221.5884   22958224.7634
 95  6 15  2 28 30.0000000  0  8G23G 9G21G17G26G 6G28G 1
 -23546112.62244 -18347583.60144  20736192.0054   20736192.9424
  -3266754.51344  -2545515.86844  24611811.5814
 -21557200.51844 -16797786.86544  21515203.3344   21515205.0084
 -24137296.35544 -18808258.87944  20933427.5384   20933428.7284
  -6539571.27344  -5095739.50344  23854912.8504   23854915.9234
  -7788608.67344  -6069046.88044  24022542.9104   24022548.8234
 -10609663.653 4  -8267267.813 4  22011126.868    22011126.162
 -11683404.63844  -9103927.43244  22938441.9584   22938445.1694
 95  6 15  2 29  0.0000000  0  8G23G 9G21G17G26G 6G28G 1
 -23526790.60444 -18332527.48044  20739868.5564   20739869.2224
  -3322543.68544  -2588987.84544  24601195.5834   24601197.2334
 -21601484.34944 -16832293.71444  21506776.3974   21506778.1564
 -24105507.03644 -18783488.00344  20939476.7334   20939478.1214
  -6449661.87044  -5025680.24644  23872021.8404   23872024.6794
  -7674104.20144  -5979822.76144  24044333.0104   24044338.1254
 -10674906.776 4  -8318106.615 4  21998711.345    21998710.911
 -11787153.67244  -9184770.75444  22918699.0944   22918702.3144
 95  6 15  2 29 30.0000000  0  8G23G 9G21G17G26G 6G28G 1
 -23507243.02844 -18317295.60344  20743588.4444   20743589.3654
  -3378082.32544  -2632264.67544  24590626.7544
 -21645523.55444 -16866609.95444  21498395.9404   21498397.4794
 -24073415.02744 -18758481.26744  20945583.4904   20945584.8494
  -6359485.82544  -4955413.19244  23889181.7534   23889182.9944
  -7559506.67344  -5890526.06044  24066140.2714   24066145.0004
 -10739680.788 4  -8368579.879 4  21986385.438    21986384.730
 -11890723.31344  -9265474.28544  22898989.9724   22898992.9864
 95  6 15  2 30  0.0000000  0  8G23G 9G21G17G26G 6G28G 1
 -23487463.32544 -18301882.84744  20747352.5314   20747353.4734
  -3433374.52544  -2675349.39944  24580104.7674   24580111.4964
 -21689291.34744 -16900714.70144  21490067.1004   21490068.9844
 -24041028.10744 -18733244.73344  20951746.6834   20951748.0764
  -6269031.99344  -4884929.69144  23906394.6444   23906395.1364
  -7444818.45444  -5801158.74844  24087964.8454   24087970.8424
 -10803980.121 4  -8418683.256 4  21974149.576    21974149.182
 -11994115.11144  -9346039.25144  22879315.2404   22879318.9504
 95  6 15  2 30 30.0000000  0  8G23G 9G21G17G26G 6G28G 1
 -23467440.01144 -18286280.26744  20751162.7684   20751163.5644
  -3488440.22944  -2718257.69344  24569626.5764   24569630.0544
 -21732766.74244 -16934591.61444  21481794.1174   21481795.4944
 -24008349.79544 -18707781.14044  20957965.1674   20957966.3524
  -6178294.23644  -4814224.95044  23923661.4044   23923662.3364
  -7330046.14344  -5711725.88344  24109805.0244   24109809.7734
 -10867802.382 4  -8468414.897 4  21962004.732    21962004.114
 -12097328.48644  -9426465.17244  22859674.5774   22859678.1344
 95  6 15  2 31  0.0000000  0  8G23G 9G21G17G26G 6G28G 1
 -23447183.01544 -18270495.59744  20755017.5104   20755018.2814
  -3543307.39544  -2761011.22944  24559185.1444   24559190.1434
 -21775960.28644 -16968248.90444  21473574.5584   21473576.0854
 -23975396.44444 -18682103.23144  20964235.8944   20964237.4634
  -6087274.63944  -4743300.60344  23940981.9494   23940983.2344
  -7215206.95244  -5622240.91444  24131658.0504   24131664.0444
 -10931158.025 4  -8517782.939 4  21949948.506    21949948.022
 -12200368.51744  -9506756.03244  22840066.5214   22840069.7134
 95  6 15  2 31 30.0000000  0  8G23G 9G21G17G26G 6G28G 1
 -23426683.41644 -18254521.88244  20758918.4704   20758919.3614
  -3597988.51444  -2803619.83844  24548779.9624   24548782.7434
 -21818873.02344 -17001687.38844  21465408.5134   21465410.1964
 -23942167.50144 -18656210.57544  20970559.1584   20970560.6384
  -5995962.43844  -4672148.26544  23958357.7394   23958358.5504
  -7100290.72044  -5532695.94444  24153526.0804   24153532.5624
 -10994037.049 4  -8566779.591 4  21937983.111    21937982.551
 -12303215.07744  -9586896.13244  22820495.4554   22820498.7834
 95  6 15  2 32  0.0000000  0  8G23G 9G21G17G26G 6G28G 1
 -23405944.69744 -18238361.83744  20762864.8694   20762865.5174
  -3652464.58844  -2846068.65944  24538414.0194   24538417.1784
 -21861503.88144 -17034906.21944  21457296.0064   21457297.8154
 -23908641.23244 -18630086.24044  20976939.0674   20976940.3924
  -5904354.92644  -4600765.79844  23975790.4634   23975788.8284
  -6985281.32844  -5443078.36644  24175412.5934   24175415.6814
 -11056425.294 4  -8615393.815 4  21926111.022    21926110.410
 -12405839.47344  -9666863.11744  22800966.5914   22800970.0544
 95  6 15  2 32 30.0000000  0  8G23G 9G21G17G26G 6G28G 1
 -23384963.89444 -18222013.15844  20766857.4134   20766858.2384
  -3706720.96844  -2888346.29944  24528088.6744   24528089.8644
 -21903871.77144 -17067920.13644  21449233.6914   21449235.3894
 -23874794.33144 -18603712.05944  20983380.0684   20983381.2194
  -5812461.68644  -4529160.68444  23993276.9814   23993278.9474
  -6870172.84844  -5353383.58844  24197317.1914   24197325.0244
 -11118315.437 4  -8663619.905 4  21914333.627    21914332.964
 -12508235.60144  -9746652.23244  22781481.1394   22781484.5214
 95  6 15  2 33  0.0000000  0  8G23G 9G21G17G26G 6G28G 1
 -23363742.36844 -18205476.90144  20770895.7304   20770896.4644
  -3760741.71744  -2930440.35944  24517808.6994   24517809.9954
 -21945998.89344 -17100746.44444  21441217.0824   21441219.0074
 -23840630.11444 -18577090.62244  20989881.2004   20989882.7654
  -5720306.45244  -4457351.41844  24010813.9774   24010815.4954
  -6754955.92344  -5263604.28244  24219241.6804   24219247.4534
 -11179706.123 4  -8711456.805 4  21902651.384    21902650.764
 -12610399.50844  -9826260.39044  22762039.9674   22762043.1514
 95  6 15  2 33 30.0000000  0  7G21G17G23G26G 6G28G 1
 -21987903.42544 -17133399.30144  21433242.9864   21433244.8894
 -23806151.29844 -18550224.04444  20996442.0524   20996443.4494
 -23342281.91244 -18188754.46444  20774979.4924   20774980.1604
  -5627902.44844  -4385348.32044  24028397.3534   24028398.3794
  -6639637.38244  -5173745.78544  24241186.2204   24241190.9964
 -11240597.918 4  -8758904.966 4  21891064.023    21891063.460
 -12712336.72444  -9905691.91644  22742641.9124   22742645.0464
 95  6 15  2 34  0.0000000  0  7G21G23G17G26G 6G28G 1
 -22029588.64144 -17165881.26044  21425310.6284   21425312.1294
 -23320585.25144 -18171847.97144  20779108.3074   20779109.1454
 -23771347.90044 -18523104.54344  21003065.1724   21003066.5924
  -5535258.65344  -4313158.35244  24046027.2464   24046030.0784
  -6524242.66444  -5083827.94744  24263145.1004   24263149.9844
 -11300994.929 4  -8805967.575 4  21879570.900    21879570.344
 -12814058.59944  -9984955.64744  22723284.8874   22723287.5464
 95  6 15  2 34 30.0000000  0  7G21G17G23G26G 6G28G 1
 -22071045.32044 -17198185.13744  21417421.6554   21417423.0414
 -23736228.03644 -18495738.44344  21009748.1734   21009749.6094
 -23298638.55244 -18154746.64344  20783284.5944   20783285.4894
  -5442376.07944  -4240782.34844  24063702.1704   24063703.2924
  -6408768.61344  -4993848.28044  24285119.2194   24285125.9894
 -11360888.478 4  -8852637.868 4  21868173.502    21868172.978
 -12915555.78444 -10064044.28244  22703970.6224   22703973.6264
 95  6 15  2 35  0.0000000  0  7G21G23G17G26G 6G28G 1
 -22112275.66544 -17230312.64644  21409575.7784   21409577.3884
 -23276453.75844 -18137459.78544  20787506.2164   20787506.9314
 -23700814.30544 -18468143.34944  21016487.4094   21016488.9754
  -5349265.51044  -4168228.65444  24081420.6134   24081423.1974
  -6293231.05044  -4903819.12144  24307105.7744   24307111.3214
 -11420285.597 4  -8898921.332 4  21856870.552    21856870.118
 -13016828.30444 -10142957.85844  22684699.1034   22684702.7764
 95  6 15  2 35 30.0000000  0  7G21G17G23G26G 6G28G 1
 -22153304.45644 -17262283.11044  21401768.2924   21401769.8964
 -23665136.35744 -18440342.36944  21023276.9954   21023278.4514
 -23254064.08944 -18120013.28944  20791766.9794   20791767.8924
  -5255948.10244  -4095513.80644  24099178.5584   24099179.7334
  -6177688.42744  -4813786.03944  24329092.5754   24329097.9854
 -11479221.864 4  -8944845.689 4  21845655.384    21845654.943
 -13117919.15144 -10221729.88144  22665461.8014   22665465.1614
 95  6 15  2 36  0.0000000  0  7G21G23G17G26G 6G28G 1
 -22194014.19344 -17294004.96644  21394021.4964   21394022.9734
 -23231373.67444 -18102332.44644  20796084.7564   20796085.6444
 -23629088.58344 -18412253.21044  21030136.5734   21030138.3394
  -5162319.71244  -4022556.64044  24116995.2624   24116994.7234
  -6062032.80644  -4723664.84744  24351101.2464   24351105.0514
 -11537589.903 4  -8990327.271 4  21834548.441    21834547.848
 -13218712.79244 -10300270.30544  22646281.3354   22646283.7074
 95  6 15  2 36 30.0000000  0  7G21G23G17G26G 6G28G 1
 -22234450.19244 -17325513.50444  21386326.6794   21386327.8874
 -23208436.45744 -18084459.28844  20800449.4704   20800450.2684
 -23592740.54344 -18383930.07344  21037053.5364   21037055.0494
  -5068434.14944  -3949399.06944  24134860.7544   24134861.9424
  -5946297.69344  -4633481.73944  24373124.7524   24373128.4484
 -11595434.157 4  -9035400.704 4  21823540.792    21823540.464
 -13319239.86344 -10378603.00644  22627151.7064   22627154.7334
 95  6 15  2 37  0.0000000  0  7G21G23G17G26G 6G28G 1
 -22274623.85344 -17356817.62144  21378681.8654   21378683.2584
 -23185262.07344 -18066401.32544  20804859.2674   20804860.0624
 -23556096.07544 -18355375.95844  21044026.4874   21044027.8684
  -4974292.32244  -3876041.79044  24152775.7714   24152777.2654
  -5830501.89744  -4543251.36944  24395160.0824   24395165.3954
 -11652767.558 4  -9080076.064 4  21812630.750    21812630.252
 -13419514.14544 -10456738.75144  22608070.1474   22608073.6704
 95  6 15  2 37 30.0000000  0  7G21G23G17G26G 6G28G 1
 -22314539.04444 -17387920.33944  21371086.2404   21371087.8454
 -23161858.02544 -18048164.40544  20809313.0884   20809314.0384
 -23519161.54944 -18326595.82744  21051055.1804   21051056.6164
  -4879889.19144  -3802480.92544  24170739.7794   24170741.2864
  -5714660.62844  -4452985.53444  24417203.8684   24417208.4084
 -11709594.167 4  -9124356.523 4  21801817.013    21801816.471
 -13519547.43044 -10534686.70144  22589034.5214   22589037.9234
 95  6 15  2 38  0.0000000  0  7G21G23G17G26G 6G28G 1
 -22354185.18144 -17418813.41644  21363541.8684   21363543.5284
 -23138232.35344 -18029754.79544  20813808.7334   20813809.7184
 -23481925.15444 -18297580.46744  21058140.7774   21058142.2984
  -4785225.93944  -3728717.36444  24188753.7264   24188754.8244
  -5598751.92644  -4362667.19444  24439260.6544   24439266.0844
 -11765897.997 4  -9168229.620 4  21791102.658    21791102.135
 -13619313.56144 -10612426.47744  22570049.2334   22570052.0214
 95  6 15  2 38 30.0000000  0  7G21G23G17G26G 6G28G 1
 -22393579.20644 -17449510.03844  21356045.4074   21356047.0004
 -23114383.19144 -18011171.04044  20818347.2154   20818347.9944
 -23444395.70044 -18268336.74944  21065282.1734   21065283.7814
  -4690313.10444  -3654759.33244  24206815.2294   24206815.2544
  -5482792.27544  -4272309.09344  24461327.6794   24461333.4224
 -11821689.640 4  -9211703.610 4  21780485.950    21780485.327
 -13718846.49244 -10689984.54244  22551108.8574   22551112.0464
 95  6 15  2 39  0.0000000  0  7G21G23G17G26G 6G28G 1
 -22432727.50844 -17480015.18144  21348595.8124   21348597.0534
 -23090314.60144 -17992416.30144  20822927.3524   20822928.1324
 -23406561.13944 -18238855.29044  21072481.9014   21072483.3474
  -4595154.09844  -3580609.43444  24224923.3864   24224923.7774
  -5366798.10344  -4181924.10644  24483400.8174   24483405.6764
 -11876973.876 4  -9254782.220 4  21769965.579    21769965.123
 -13818173.92444 -10767382.47444  22532207.2754   22532209.8394
 95  6 15  2 39 30.0000000  0  7G21G17G23G26G 6G28G 1
 -22471622.83344 -17510323.19944  21341194.2244   21341195.4244
 -23368407.71144 -18209125.36044  21079742.5724   21079744.0694
 -23066035.15244 -17973497.25444  20827547.5854   20827548.4104
  -4499758.37544  -3506275.09744  24243077.2194   24243078.1634
  -5250756.21044  -4091501.97044  24505482.6654   24505488.5514
 -11931736.208 4  -9297454.149 4  21759544.702    21759544.218
 -13917279.19544 -10844607.30744  22513348.2354   22513351.4614
 95  6 15  2 40  0.0000000  0  7G21G23G17G26G 6G28G 1
 -22510271.23444 -17540438.80944  21333839.6674   21333841.1444
 -23041539.06944 -17954409.40044  20832209.0824   20832209.8844
 -23329919.69544 -18179134.70644  21087066.4884   21087067.8464
  -4404139.09144  -3431766.58244  24261272.2614
  -5134653.40244  -4001032.34744  24527576.4274   24527579.4154
 -11985968.535 4  -9339713.088 4  21749224.686    21749224.184
 -14016146.18344 -10921646.46544  22494534.4744   22494537.6544
 95  6 15  2 40 30.0000000  0  7G21G23G17G26G 6G28G 1
 -22548683.55744 -17570370.46044  21326529.9814   21326531.1654
 -23016809.42844 -17935139.55544  20836915.0884   20836915.7734
 -23291094.90744 -18148881.63444  21094454.3174   21094455.9104
  -4308293.68044                  24279510.7424
  -5018497.28744  -3910521.16444  24549680.0674   24549684.3284
 -12039671.132 4  -9381559.253 4  21739005.362    21739004.836
 -14114776.61344 -10998501.28344  22475765.7144   22475768.8944
 95  6 15  2 41  0.0000000  0  6G21G23G17G 6G28G 1
 -22586871.16444 -17600127.00944  21319263.0164   21319264.4494
 -22991868.18544 -17915704.83344  20841661.0614   20841661.8914
 -23251938.60644 -18118370.23144  21101905.7164   21101907.3124
  -4902300.54544  -3819978.31844  24571791.5054   24571793.3534
 -12092851.976 4  -9422998.859 4  21728885.297    21728884.738
 -14213145.60844 -11075152.37544  22457046.6844   22457049.8654
 95  6 15  2 41 30.0000000  0  7G21G17G23G 9G 6G28G 1
 -22624848.40344 -17629719.64244  21312036.1994   21312037.5824
 -23212478.07844 -18087621.77644  21109415.1484   21109416.4614
 -22966724.88844 -17896112.66244  20846445.6304   20846446.4994
        -0.20654         0.13854  24350928.2194   24350928.8454
  -4786074.41844  -3729412.59644  24593908.9344   24593914.3284
 -12145523.167 4  -9464041.331 4  21718862.434    21718861.818
 -14311243.25244 -11151592.02444  22438379.0344   22438381.7664
 95  6 15  2 42  0.0000000  0  7G21G23G17G 9G 6G28G 1
 -22662603.24644 -17659138.97444  21304851.6984   21304853.1554
 -22941350.21944 -17876340.20044  20851274.3304   20851275.2444
 -23172711.52744 -18056634.87044  21116982.3534   21116983.6674
    -49063.28744    -38230.70044  24341592.4254   24341594.7134
  -4669810.09444  -3638817.09744  24616033.2224   24616038.1914
 -12197675.813 4  -9504679.744 4  21708937.941    21708937.479
 -14409067.50044 -11227818.65044  22419763.9894   22419766.8954
 95  6 15  2 42 30.0000000  0  7G21G17G23G 9G 6G28G 1
 -22700132.18244 -17688382.27244  21297710.0804   21297711.5454
 -23132659.18744 -18025425.28044  21124603.8074   21124605.3544
 -22915756.93344 -17856397.38744  20856144.5114   20856145.5034
    -97860.39244    -76254.38744  24332306.3664   24332309.2494
  -4553534.02144  -3548212.47844  24638159.9784   24638165.0284
 -12249318.601 4  -9544920.864 4  21699110.822    21699110.182
 -14506627.41744 -11303839.30744  22401198.9494   22401201.4474
 95  6 15  2 43  0.0000000  0  7G21G23G17G 9G 6G28G 1
 -22737408.69544 -17717428.87744  21290616.6874   21290617.9694
 -22889947.33644 -17836286.02144  20861056.1114   20861057.0634
 -23092322.87144 -17993994.39944  21132279.4904   21132281.2444
   -146375.63044   -114058.39544  24323074.2144   24323079.0884
  -4437237.78144  -3457592.05644  24660290.6204   24660295.3344
 -12300431.578 4  -9584749.147 4  21689384.261    21689383.700
 -14603901.48644 -11379637.21044  22382688.2384   22382691.2194
 95  6 15  2 43 30.0000000  0  7G21G17G23G 9G 6G28G 1
 -22774424.06544 -17746271.99244  21283572.8624   21283574.3124
 -23051696.73844 -17962337.68444  21140010.4164   21140012.0624
 -22863908.72844 -17815996.20544  20866011.0194   20866012.0464
   -194576.38044   -151617.32844  24313901.4114   24313903.3114
  -4320905.60544  -3366943.65544  24682427.7184   24682433.9254
 -12350997.887 4  -9624151.456 4  21679761.871    21679761.193
 -14700890.59944 -11455213.09644  22364231.6944   22364234.6874
 95  6 15  2 44  0.0000000  0  7G21G23G17G 9G 6G28G 1
 -22811180.19344 -17774913.09944  21276578.3004   21276579.7384
 -22837650.16244 -17795534.99444  20871007.7114   20871008.5904
 -23010771.21044 -17930447.68444  21147798.5284   21147800.1404
   -242454.45744   -188924.88044  24304790.3114   24304794.2444
  -4204547.93544  -3276275.40344  24704569.5804   24704572.6654
 -12401009.887 4  -9663121.843 4  21670244.815    21670244.280
 -14797606.27944 -11530575.90144  22345827.0644   22345829.6544
 95  6 15  2 44 30.0000000  0  7G21G23G17G 9G 6G28G 1
 -22847676.13244 -17803351.45844  21269633.5124   21269634.7654
 -22811190.03744 -17774916.72744  20876042.9104   20876043.8594
 -22969547.76644 -17898325.54144  21155642.9924   21155644.4744
   -290020.61944   -225989.33044  24295739.6254   24295742.7964
  -4088175.82544  -3185595.82944  24726714.5874   24726721.9784
 -12450464.375 4  -9701657.807 4  21660833.956    21660833.345
 -14894046.64744 -11605724.19844  22327475.2084   22327478.0574
 95  6 15  2 45  0.0000000  0  7G21G23G17G 9G 6G28G 1
 -22883933.99944 -17831604.31844  21262733.7364   21262734.8524
 -22784536.45944 -17754147.72344  20881115.0474   20881116.0684
 -22928024.90044 -17865970.08344  21163544.6714   21163546.2244
   -337276.47844   -262811.98644  24286747.1704   24286749.1814
  -3971788.67744  -3094904.56544  24748862.2144   24748867.1754
 -12499371.347 4  -9739767.134 4  21651527.269    21651526.709
 -14990222.39344 -11680666.29044  22309173.4764   22309176.3394
 95  6 15  2 45 30.0000000  0  7G21G17G23G 9G 6G28G 1
 -22919957.27344 -17859674.37244  21255878.7334   21255880.0494
 -22886184.82444 -17833367.45144  21171506.3194   21171507.8384
 -22757668.70144 -17733211.82344  20886227.5424   20886228.4734
   -384227.58644   -299397.18544  24277812.6814
  -3855387.96144  -3004202.71644  24771013.0584   24771021.2504
 -12547729.763 4  -9777449.016 4  21642324.985    21642324.434
 -15086148.61044 -11755413.95244  22290919.2864   22290921.5534
 95  6 15  2 46  0.0000000  0  7G21G23G17G 9G 6G28G 1
 -22955735.27344 -17887553.30044  21249070.3324   21249071.4574
 -22730596.48144 -17712116.59944  20891379.4894   20891380.4174
 -22844030.08944 -17800519.62344  21179528.2364   21179529.7184
   -430888.49944   -335756.24144  24268933.0994   24268937.1454
  -3738990.01344  -2913503.02444  24793162.7784   24793164.7404
 -12595545.233 4  -9814707.826 4  21633225.974    21633225.380
 -15181824.12144 -11829966.25444  22272712.8974   22272715.5044
 95  6 15  2 46 30.0000000  0  7G21G17G23G 9G 6G28G 1
 -22991249.28244 -17915226.53544  21242312.1924   21242313.4694
 -22801538.67244 -17767409.45244  21187614.2634   21187615.8414
 -22703301.56144 -17690847.84044  20896573.5464   20896574.3884
   -477246.06444   -371878.90144  24260111.7474
  -3622569.30444  -2822785.57544  24815316.5404
 -12642805.244 4  -9851533.812 4  21624232.640    21624232.093
 -15277215.13544 -11904296.87044  22254560.6594   22254563.8364
 95  6 15  2 47  0.0000000  0  7G21G23G17G 9G 6G28G 1
 -23026540.30944 -17942726.00544  21235596.4634   21235597.9834
 -22675813.75344 -17669428.77544  20901804.1534   20901804.9374
 -22758749.04144 -17734066.89844  21195756.8544   21195758.4024
   -523312.78544                  24251345.1804
  -3506154.85244                  24837469.6564
 -12689545.033 4  -9887954.432 4  21615338.424    21615337.872
 -15372345.74344 -11978424.57144  22236457.8844   22236461.2144
 95  6 15  2 47 30.0000000  0  7G21G23G17G 9G 6G28G 1
 -23061662.17544 -17970093.66844  21228913.0134   21228914.4134
 -22648209.40144 -17647918.89344  20907057.2244   20907058.0004
 -22715749.01244 -17700560.40444  21203939.4194   21203941.2054
   -569138.62544   -443482.74144  24242624.9164   24242623.1934
  -3389815.77544  -2641419.24744  24859608.9854
 -12735825.787 4  -9924017.364 4  21606531.455    21606530.872
 -15467281.64644 -12052400.55944  22218392.2464   22218394.7184
 95  6 15  2 48  0.0000000  0  7G23G21G17G 9G 6G28G 1
 -22620386.72144 -17626238.88644  20912351.5744   20912352.6614
 -23096491.13244 -17997233.09244  21222285.2834   21222286.7814
 -22672421.60744 -17666798.80744  21212184.3164   21212185.7334
   -614582.65544   -478890.35544  24233976.8484   24233977.4734
  -3273430.27044                  24881756.3554
 -12781523.429 4  -9959625.927 4  21597835.517    21597834.946
 -15561879.58144 -12126113.20944  22200390.7144   22200393.7284
 95  6 15  2 48 30.0000000  0  7G21G23G17G 9G 6G28G 1
 -23130976.77744 -18024105.00644  21215722.8474   21215723.9814
 -22592264.14744 -17604325.20044  20917703.2424   20917704.2594
 -22628702.19044 -17632731.73444  21220503.7884   21220505.3564
   -659561.76044   -513934.00644  24225417.1164   24225418.1714
  -3156930.35944                  24903925.3344
 -12826564.019 4  -9994722.503 4  21589264.600    21589263.993
 -15656063.65644 -12199503.35844  22182467.9894   22182470.7444
 95  6 15  2 49  0.0000000  0  7G21G23G17G 9G 6G28G 1
 -23165207.19044 -18050778.02844  21209208.9634   21209210.4644
 -22563927.84144 -17582244.97044  20923095.5734   20923096.4254
 -22584675.78044 -17598425.44944  21228882.0914   21228883.5814
   -704156.71344   -548692.76544  24216931.1354   24216931.4394
  -3040417.46544                  24926096.3994
 -12871026.809 4 -10029368.844 4  21580803.603    21580803.054
 -15749918.39744 -12272636.87044  22164608.0654   22164610.6484
 95  6 15  2 49 30.0000000  0  7G21G17G23G 9G 6G28G 1
 -23199209.39844 -18077273.22344  21202738.5514   21202739.7904
 -22540345.39244 -17563882.30244  21237317.9434   21237319.4034
 -22535412.58144 -17560025.29344  20928521.7224   20928522.4434
   -748414.68344                  24208508.9004
  -2923931.21644  -2278392.47144  24948263.0344
 -12914939.869 4 -10063586.825 4  21572447.215    21572446.627
 -15843477.43544 -12345539.97244  22146804.2214   22146807.0574
 95  6 15  2 50  0.0000000  0  7G21G23G17G 9G 6G28G 1
 -23232956.72244 -18103569.81544  21196316.7154   21196318.1524
 -22506662.07844 -17537622.30644  20933992.7824   20933993.6654
 -22495638.39244 -17529045.69244  21245825.1794   21245826.7534
   -792299.20344                  24200158.4144
  -2807435.83744                  24970431.6764
 -12958259.284 4 -10097342.227 4  21564203.786    21564203.317
 -15936679.79744 -12418165.13644  22129068.4714   22129071.0374
 95  6 15  2 50 30.0000000  0  7G21G23G17G 9G 6G28G 1
 -23266401.86644 -18129630.95544  21189952.3144   21189953.6524
 -22477609.94644 -17514984.28744  20939521.5614   20939522.5644
 -22450501.54444 -17493874.14244  21254414.6074   21254416.1164
   -835771.52344   -651251.03444  24191885.7544   24191887.5714
  -2690871.29644  -2096787.47744  24992613.6824   24992620.1584
 -13000927.165 4 -10130589.939 4  21556084.321    21556083.986
 -16029476.45044 -12490474.15644  22111409.7364   22111412.3934
 95  6 15  2 51  0.0000000  0  7G21G23G17G 9G 6G28G 1
 -23299674.19744 -18155557.42444  21183620.7674   21183621.9084
 -22448406.28544 -17492228.19344  20945078.6814   20945079.5514
 -22405069.03544 -17458472.19544  21263060.1214   21263061.8804
   -878975.10144   -684916.09544  24183664.5734   24183665.4634
  -2574368.78044  -2006006.34144  25014782.8424
 -13043083.832 4 -10163439.297 4  21548062.256    21548061.767
 -16122020.03944 -12562585.98144  22093799.2684   22093801.9304
 95  6 15  2 51 30.0000000  0  6G21G17G 9G28G 1G23
 -23332888.90844 -18181438.98544  21177300.0394   21177301.3964
 -22359473.58744 -17422943.29044  21271736.6704   21271738.3084
   -922013.46644   -718452.43344  24175474.7094   24175477.7794
 -13084845.622 4 -10195980.962 4  21540115.229    21540114.806
 -16214433.78944 -12634596.63744  22076213.3244   22076216.0064
 -22419166.39044 -17469443.86044  20950642.7674   20950643.5994
 95  6 15  2 52  0.0000000  0  6G21G17G 9G28G 1G23
 -23365939.67044 -18207192.79644  21171010.8374   21171012.1634
 -22313632.36944 -17387222.87144  21280459.8404   21280461.2544
   -964762.44444   -751763.23144  24167338.9244   24167342.6384
 -13126097.830 4 -10228125.549 4  21532265.228    21532264.669
 -16306606.25044 -12706419.26944  22058673.5164   22058676.5164
 -22389780.34844 -17446545.65044  20956234.7674   20956235.5994
 95  6 15  2 52 30.0000000  0  6G21G17G 9G28G 1G23
 -23398735.68944 -18232748.11544  21164769.9844   21164771.1124
 -22267480.98344 -17351260.76644  21289242.2634   21289243.9514
  -1007147.62544   -784790.61244  24159272.8914   24159277.2544
 -13166760.542 4 -10259810.788 4  21524527.297    21524526.947
 -16398473.94044 -12778004.43044  22041191.5954   22041194.7254
 -22360192.35144 -17423490.07244  20961865.1714   20961866.2214
 95  6 15  2 53  0.0000000  0  6G21G17G 9G28G 1G23
 -23431274.28344 -18258102.84244  21158578.1494   21158579.1834
 -22221011.02944 -17315050.43044  21298085.1254   21298086.4784
  -1049152.24044   -817521.44844  24151280.6244   24151283.7114
 -13206832.864 4 -10291035.981 4  21516901.901    21516901.387
 -16490030.73544 -12849347.33944  22023768.9854   22023772.1384
 -22330413.02844 -17400285.41444  20967532.0074   20967533.0474
 95  6 15  2 53 30.0000000  0  6G21G17G 9G28G 1G23
 -23463573.18444 -18283270.79444  21152431.8414   21152433.1184
 -22174230.20044 -17278597.85544  21306987.2894   21306988.6424
  -1090789.70044   -849966.18744  24143357.4484   24143359.4644
 -13246324.014 4 -10321808.310 4  21509386.966    21509386.462
 -16581276.42644 -12920447.81944  22006405.4754   22006408.4714
 -22300452.36444 -17376939.44644  20973233.1504   20973234.2264
 95  6 15  2 54  0.0000000  0  6G21G17G 9G28G 1G23
 -23495640.70244 -18308258.44844  21146329.5834   21146330.6764
 -22127129.11744 -17241895.73244  21315950.2284   21315951.7344
  -1132080.51244   -882140.79444  24135500.0384   24135503.0474
 -13285241.592 4 -10352133.699 4  21501981.059    21501980.642
 -16672209.37544 -12991304.60244  21989101.2354   21989103.6184
 -22270316.02144 -17353456.58444  20978968.0304   20978969.0424
 95  6 15  2 54 30.0000000  0  6G23G21G17G 9G28G 1
 -22239988.65644 -17329824.87144  20984738.9524   20984739.9204
 -23527463.87544 -18333055.70944  21140273.6854   21140274.8004
 -22079692.96844 -17204932.51344  21324977.0204   21324978.7524
  -1173025.17644   -914045.72144  24127708.3204   24127710.4344
 -13323584.580 4 -10382011.355 4  21494684.722    21494684.158
 -16762823.08044 -13061912.61544  21971858.0234   21971861.1544
 95  6 15  2 55  0.0000000  0  6G23G21G17G 9G28G 1
 -22209456.30944 -17306033.43044  20990549.0734   20990550.3024
 -23559051.35244 -18357669.31844  21134262.8644   21134264.1474
 -22031929.34744 -17167714.12644  21334066.3734   21334067.8644
  -1213620.16844   -945678.14344  24119982.7274   24119985.2574
 -13361356.805 4 -10411444.259 4  21487496.889    21487496.377
 -16853108.67444 -13132264.96444  21954677.3554   21954680.1434
 95  6 15  2 55 30.0000000  0  6G23G21G17G 9G28G 1
 -22178709.68744 -17282075.02344  20996400.1644   20996401.1344
 -23590391.91444 -18382090.52444  21128298.9004   21128300.2334
 -21983838.19744 -17130240.51944  21343217.9114   21343219.5454
  -1253856.27444   -977030.87044  24112326.1094   24112327.9124
 -13398548.682 4 -10440424.941 4  21480419.479    21480418.919
 -16943059.06644 -13202356.12044  21937560.3384   21937562.8994
 95  6 15  2 56  0.0000000  0  6G23G21G17G 9G28G 1
 -22147744.87444 -17257946.59444  21002292.5844   21002293.5614
 -23621471.54644 -18406308.40244  21122384.5354   21122385.7934
 -21935417.41644 -17092510.05944  21352432.1644   21352433.8954
  -1293711.59244  -1008086.94544  24104742.3094   24104745.0734
 -13435152.043 4 -10468947.041 4  21473454.018    21473453.557
 -17032651.33444 -13272168.21444  21920511.4134   21920513.7994
 95  6 15  2 56 30.0000000  0  6G23G21G17G 9G28G 1
 -22116577.03244 -17233659.96444  21008223.6754   21008224.5554
 -23652298.06544 -18430329.04944  21116518.5554   21116519.9094
 -21886688.07244 -17054539.16544  21361704.7684   21361706.3344
  -1333183.18744  -1038843.97344  24097231.2124   24097234.4034
 -13471170.244 4 -10497013.172 4  21466599.966    21466599.557
 -17121883.58444 -13341699.77944  21903530.9854   21903533.3374
 95  6 15  2 57  0.0000000  0  6G23G21G17G 9G28G 1
 -22085212.67044 -17209220.21144  21014191.8734   21014192.8044
 -23682876.74244 -18454156.57044  21110699.6164   21110700.6854
 -21837637.40644 -17016317.88944  21371038.4894   21371039.6904
  -1372251.40144  -1069286.69644  24089796.5984   24089799.1104
 -13506589.253 4 -10524612.402 4  21459859.996    21459859.574
 -17210737.06744 -13410936.20344  21886622.7654   21886625.1654
 95  6 15  2 57 30.0000000  0  6G23G21G17G 9G28G 1
 -22053660.54944 -17184634.15044  21020196.1934   21020197.1034
 -23713210.63344 -18477793.35044  21104927.2204   21104928.5344
 -21788254.72144 -16977837.89344  21380436.0204   21380437.7794
  -1410920.58744  -1099418.46844  24082437.6664   24082439.8884
 -13541408.080 4 -10551743.963 4  21453234.314    21453233.824
 -17299209.98844 -13479876.08244  21869786.9054   21869789.5484
 95  6 15  2 58  0.0000000  0  6G23G21G17G 9G28G 1
 -22021917.93544 -17159899.64744  21026236.7994   21026237.7754
 -23743304.28944 -18501242.93044  21099200.5734   21099201.8814
 -21738531.19544 -16939092.30744  21389897.9264   21389899.6334
  -1449207.12844  -1129252.10044  24075152.2824   24075155.4574
 -13575629.640 4 -10578410.121 4  21446722.119    21446721.605
 -17387303.57844 -13548520.38044  21853023.2714   21853025.7264
 95  6 15  2 58 30.0000000  0  6G23G21G17G 9G28G 1
 -21990000.33244 -17135028.78544  21032310.4444   21032311.2894
 -23773178.79144 -18524521.74544  21093515.6284   21093517.0354
 -21688475.49544 -16900087.88344  21399423.2004   21399424.6534
  -1487136.35244  -1158807.29544  24067935.0684   24067937.2834
 -13609269.795 4 -10604623.235 4  21440320.690    21440320.140
 -17475061.44444 -13616903.07644  21836323.4924   21836326.0224
 95  6 15  2 59  0.0000000  0  6G23G21G17G 9G28G 1
 -21957902.47444 -17110017.46744  21038418.3284   21038419.2974
 -23802831.03744 -18547627.38344  21087873.1074   21087874.3994
 -21638082.23944 -16860820.42944  21409012.9384   21409014.5874
  -1524703.97644  -1188080.69144  24060786.3584   24060788.3024
 -13642329.328 4 -10630383.920 4  21434029.670    21434029.182
 -17562500.00344 -13685036.96744  21819684.4134   21819686.7654
 95  6 15  2 59 30.0000000  0  6G23G21G17G 9G28G 1
 -21925604.29244 -17084850.05144  21044564.2674   21044565.2424
 -23832230.64044 -18570536.14844  21082278.5114   21082279.7624
 -21587354.17944 -16821292.09344  21418666.3804   21418668.1244
  -1561898.99244  -1217063.75344  24053707.3624   24053708.8134
 -13674799.558 4 -10655685.408 4  21427850.816    21427850.185
 -17649620.47344 -13752922.98944  21803105.8984   21803108.2694
 95  6 15  3  0  0.0000000  0  6G23G21G17G 9G28G 1
 -21893102.93344 -17059524.31444  21050749.4324   21050750.2694
 -23861372.04444 -18593243.71544  21076733.0154   21076734.2634
 -21536303.68644 -16781512.50944  21428380.9514   21428382.7384
  -1598701.34144  -1245740.86344  24046704.2084   24046705.7604
 -13706675.149 4 -10680523.542 4  21421784.998    21421784.485
 -17736430.55944 -13820567.16144  21786586.4784   21786588.9094
 95  6 15  3  0 30.0000000  0  6G23G21G17G 9G28G 1
 -21860403.20544 -17034044.00544  21056971.6524   21056972.4294
 -23890257.87144 -18615752.13344  21071236.0854   21071237.4594
 -21484946.78544 -16741494.16544  21438153.5574   21438154.9974
  -1635079.19744  -1274087.16944  24039781.7014   24039783.8194
 -13737946.082 4 -10704890.514 4  21415834.463    21415833.831
 -17822912.99244 -13887956.00944  21770129.3574   21770131.3564
 95  6 15  3  1  0.0000000  0  6G23G21G17G 9G28G 1
 -21827503.91944 -17008408.20144  21063232.4174   21063233.4854
 -23918884.45244 -18638058.54744  21065788.8264   21065790.0964
 -21433281.38144 -16701235.42744  21447985.2844   21447986.7144
  -1671020.01644  -1302092.95244  24032942.7074   24032945.8674
 -13768600.975 4 -10728777.456 4  21410001.044    21410000.492
 -17909025.04344 -13955056.26144  21753742.7644   21753744.8584
 95  6 15  3  1 30.0000000  0  6G23G21G17G 9G28G 1
 -21794423.54744 -16982631.29044  21069527.2734   21069528.2564
 -23947270.81744 -18660177.77544  21060387.0034   21060388.3424
 -21381304.74344 -16660734.17644  21457876.1094   21457877.5904
  -1706536.86644  -1329768.38844  24026183.8944   24026186.3044
 -13798644.321 4 -10752187.871 4  21404283.903    21404283.400
 -17994752.40944 -14021856.76044  21737429.2934   21737431.6104
 95  6 15  3  2  0.0000000  0  6G23G21G17G 9G28G 1
 -21761192.40544 -16956736.89744  21075850.7904   21075851.8944
 -23975455.01044 -18682139.46844  21055023.7194   21055024.7524
 -21329025.97544 -16619997.49644  21467824.7264   21467826.2674
  -1741650.36244  -1357129.45444  24019501.7234   24019504.6764
 -13828091.410 4 -10775133.670 4  21398680.366    21398679.815
 -18080100.83944 -14088361.97544  21721187.8884   21721189.9484
 95  6 15  3  2 30.0000000  0  6G23G21G17G 9G28G 1
 -21727839.91944 -16930747.95144  21082197.6804   21082198.6614
 -24003449.39644 -18703953.26044  21049696.4434   21049697.3824
 -21276453.85744 -16579032.23844  21477828.7374   21477830.2404
  -1776396.88944  -1384204.58344  24012889.7974   24012890.7574
 -13856959.134 4 -10797628.015 4  21393187.060    21393186.524
 -18165073.73244 -14154574.57144  21705018.0604   21705019.8504
 95  6 15  3  3  0.0000000  0  6G23G21G17G 9G28G 1
 -21694351.56944 -16904653.13244  21088570.4434   21088571.5884
 -24031231.69244 -18725601.78744  21044409.7214   21044410.9074
 -21223564.52444 -16537819.79244  21487893.0114   21487894.6904
  -1810781.22144  -1410997.54244  24006345.7684   24006349.0444
 -13885246.594 4 -10819670.206 4  21387804.147    21387803.691
 -18249687.19244 -14220507.08644  21688916.7594   21688918.8134
 95  6 15  3  3 30.0000000  0  6G23G21G17G 9G28G 1
 -21660728.87344 -16878453.62944  21094968.5224   21094969.3024
 -24058802.84244 -18747085.79544  21039163.0754   21039164.2974
 -21170367.63244 -16496367.69744  21498016.2804   21498017.9044
  -1844797.75544  -1437503.85444  23999873.3824   23999874.5884
 -13912962.037 4 -10841266.672 4  21382530.091    21382529.608
 -18333974.85944 -14286185.72844  21672877.2054   21672879.2134
 95  6 15  3  4  0.0000000  0  6G23G21G17G 9G28G 1
 -21626956.40144 -16852137.41444  21101395.1044   21101395.7334
 -24086138.42144 -18768386.22144  21033961.2114   21033962.1634
 -21116860.19944 -16454673.62244  21508198.2844   21508199.9574
  -1878418.65844  -1463701.91844  23993475.1464   23993476.6864
 -13940090.181 4 -10862405.500 4  21377367.844    21377367.228
 -18417925.92644 -14351602.08544  21656901.9244   21656904.0694
 95  6 15  3  4 30.0000000  0  6G23G21G17G 9G28G 1
 -21593044.08944 -16825712.23144  21107848.4724   21107849.2024
 -24113251.48944 -18789513.26544  21028801.8034   21028802.9424
 -21063057.06544 -16412749.12744  21518436.7374   21518438.4524
  -1911652.14944  -1489598.06844  23987151.6794   23987151.6274
 -13966649.588 4 -10883101.155 4  21372313.761    21372313.116
 -18501557.40444 -14416769.41944  21640987.2404   21640989.2624
 95  6 15  3  5  0.0000000  0  6G23G21G17G 9G28G 1
 -21558983.14644 -16799171.23144  21114330.0344   21114330.9304
 -24140174.94544 -18810492.56144  21023678.3724   21023679.7894
 -21008968.91644 -16370602.54744  21528729.5724   21528731.2044
  -1944495.36344  -1515190.12944  23980901.9394   23980902.9734
 -13992649.958 4 -10903361.195 4  21367365.943    21367365.403
 -18584874.22744 -14481691.56244  21625132.5294   21625134.8024
 95  6 15  3  5 30.0000000  0  6G23G21G17G 9G28G 1
 -21524713.43844 -16772467.55744  21120851.5164   21120852.4824
 -24166857.55244 -18831284.19144  21018600.8274   21018601.9994
 -20954530.11944 -16328182.73544  21539088.8714   21539090.7074
  -1976880.09444  -1540424.91044  23974739.0284   23974739.6384
 -14018012.563 4 -10923124.273 4  21362539.613    21362539.037
 -18667769.52344 -14546285.24544  21609357.9304   21609360.2514
 95  6 15  3  6  0.0000000  0  6G23G21G17G 9G28G 1
 -21490269.17044 -16745627.86344  21127405.9144   21127406.5854
 -24193323.48344 -18851906.99044  21013564.5864   21013565.7514
 -20899772.07744 -16285514.16944  21549509.0644   21549510.4624
  -2008856.90044  -1565341.85544  23968653.9564   23968656.9074
 -14042763.461 4 -10942410.698 4  21357829.668    21357829.089
 -18750252.70644 -14610557.80144  21593661.8954   21593664.3004
 95  6 15  3  6 30.0000000  0  6G23G21G17G 9G28G 1
 -21455669.25744 -16718666.88544  21133990.1534   21133991.0854
 -24219590.79644 -18872375.01644  21008565.9984   21008567.0994
 -20844705.34444 -16242605.05344  21559987.9344   21559989.3724
  -2040459.94744  -1589967.53344  23962639.8824   23962643.4244
 -14066920.183 4 -10961234.128 4  21353232.846    21353232.260
 -18832352.17444 -14674531.37144  21578038.9464   21578040.9164
 95  6 15  3  7  0.0000000  0  6G23G21G17G 9G28G 1
 -21420906.18944 -16691578.77044  21140605.2434   21140606.4504
 -24245635.99744 -18892669.96144  21003609.7974   21003610.9034
 -20789322.82344 -16199449.88044  21570526.7254   21570528.0914
  -2071685.57344  -1614299.13344  23956697.5924   23956700.5124
 -14090465.258 4 -10979580.950 4  21348752.395    21348751.826
 -18914052.46444 -14738193.89544  21562491.8924   21562494.1444
 95  6 15  3  7 30.0000000  0  6G23G21G17G 9G28G 1
 -21386000.67444 -16664379.66144  21147247.6954   21147248.6714
 -24271427.51344 -18912767.23644  20998701.7674   20998702.9654
 -20733618.20944 -16156043.72044  21581127.2664   21581128.8724
  -2102533.42344  -1638336.38044  23950827.2344   23950828.2894
 -14113393.645 4 -10997447.235 4  21344389.231    21344388.714
 -18995362.00244 -14801551.93944  21547019.2884   21547021.4634
 95  6 15  3  8  0.0000000  0  7G23G21G17G 9G22G28G 1
 -21350943.02244 -16637062.00344  21153918.9124   21153919.8234
 -24296947.86144 -18932653.21444  20993845.3654   20993846.4634
 -20677579.39844 -16112377.14844  21591791.1064   21591792.6464
  -2132985.96144  -1662065.55044  23945032.8564   23945033.0894
        -1.09354                  25696111.5894
 -14135704.215 4 -11014832.103 4  21340143.635    21340143.087
 -19076302.67944 -14864622.56244  21531616.7324   21531618.4974
 95  6 15  3  8 30.0000000  0  6G23G21G17G 9G28G 1
 -21315740.95944 -16609631.81944  21160617.6934   21160618.3134
 -24322228.35444 -18952352.29344  20989034.6254   20989035.8484
 -20621211.80344 -16068454.38144  21602517.5104   21602519.1014
  -2163031.21944  -1685477.40744  23939315.5814   23939318.1484
 -14157413.406 4 -11031748.364 4  21336012.534    21336011.926
 -19156894.71544 -14927421.50644  21516280.4954   21516282.5004
 95  6 15  3  9  0.0000000  0  6G23G17G 9G28G 1G21
 -21280358.34744 -16582060.94544  21167350.6204   21167351.5544
 -20564496.23744 -16024260.46744  21613310.0334   21613311.9054
  -2192621.33944  -1708534.59044  23933684.7234   23933689.7834
 -14178494.397 4 -11048175.116 4  21332001.013    21332000.387
 -19237096.49244 -14989916.34544  21501018.4684   21501020.7684
 -24347251.50044 -18971850.83944  20984272.9574   20984274.0574
 95  6 15  3  9 30.0000000  0  6G23G17G 9G28G 1G21
 -21244752.06144 -16554315.77944  21174126.0804   21174126.7164
 -20507397.11144 -15979767.67844  21624175.6264   21624177.6314
  -2221701.25444  -1731194.22444  23928150.3534   23928152.5784
 -14198912.816 4 -11064085.577 4  21328115.434    21328114.909
 -19316869.16344 -15052076.81744  21485838.1844   21485840.2664
 -24371997.68744 -18991133.57644  20979563.8364   20979565.0884
 95  6 15  3 10  0.0000000  0  6G23G17G 9G21G28G 1
 -21208936.50744 -16526407.54644  21180941.8134   21180942.6314
 -20449964.70544 -15935015.18444  21635104.6454   21635106.6504
  -2250295.70644  -1753475.55944  23922708.8934   23922711.0704
 -24396522.61844 -19010243.91244  20974896.9884   20974898.1154
 -14218707.487 4 -11079509.999 4  21324348.626    21324348.168
 -19396237.53644 -15113922.24644  21470734.7644   21470736.8004
 95  6 15  3 10 30.0000000  0  7G23G31G21G17G 9G28G 1
 -21172910.86444 -16498335.61144  21187797.0544   21187797.6764
        -0.69354                  23918519.5714
 -24420836.81544 -19029190.03444  20970270.1674   20970271.3984
 -20392197.83944 -15890002.06444  21646097.4604   21646099.2334
  -2278408.84644  -1775381.86144  23917359.2804   23917362.7024
 -14237875.005 4 -11094445.734 4  21320701.288    21320700.730
 -19475181.57844 -15175437.02544  21455712.2374   21455714.4664
 95  6 15  3 11  0.0000000  0  7G23G31G21G17G 9G28G 1
 -21136722.24944 -16470136.68644  21194683.5144   21194684.4224
    -79805.37844                  23903333.1774
 -24444968.63344 -19047994.03344  20965677.9854   20965679.0714
 -20334141.99544 -15844763.76344  21657145.2524   21657146.8834
  -2306089.86444  -1796951.45244  23912091.8894   23912094.1324
 -14256448.300 4 -11108918.439 4  21317166.891    21317166.328
 -19553728.54044 -15236642.37944  21440765.2184   21440767.3294
 95  6 15  3 11 30.0000000  0  7G23G31G21G17G 9G28G 1
 -21100384.39244 -16441821.47144  21201598.5014   21201599.4614
   -159248.88244   -124089.88344  23888215.9104   23888218.2974
 -24468923.42744 -19066660.09344  20961119.4924   20961120.7404
 -20275795.08344 -15799298.64644  21668248.1314   21668249.7964
  -2333346.25544  -1818190.13944  23906905.2524   23906906.5074
 -14274431.595 4 -11122931.404 4  21313744.779    21313744.249
 -19631889.51244 -15297546.97944  21425891.5764   21425893.6784
 95  6 15  3 12  0.0000000  0  7G23G31G21G17G 9G28G 1
 -21063892.62144 -16413386.32644  21208542.7324   21208543.5114
   -238306.98844   -185693.59644  23873171.3184   23873172.2954
 -24492684.06244 -19085174.86944  20956597.8754   20956599.0424
 -20217133.98544 -15753588.71744  21679410.7914   21679412.5694
  -2360181.75944  -1839100.84044  23901798.1864   23901799.9574
 -14291810.916 4 -11136473.740 4  21310437.601    21310437.066
 -19709654.41044 -15358142.95644  21411093.4724   21411095.3914
 95  6 15  3 12 30.0000000  0  7G23G31G21G17G 9G28G 1
 -21027284.94744 -16384860.86444  21215509.0144   21215509.7414
   -316984.70544   -247000.84844  23858199.3674   23858201.2664
 -24516262.97444 -19103548.04444  20952111.0524   20952112.0634
 -20158163.42744 -15707637.63744  21690632.7054   21690634.3464
  -2386615.01944  -1859698.15244  23896768.3624   23896769.7664
 -14308596.142 4 -11149553.151 4  21307243.525    21307242.909
 -19787040.92544 -15418444.08844  21396367.2904   21396369.0704
 95  6 15  3 13  0.0000000  0  7G23G31G21G17G 9G28G 1
 -20990544.14944 -16356231.66944  21222500.3844   21222500.9784
   -395264.17744   -307997.81344  23843303.5394   23843301.9104
 -24539623.13544 -19121750.75844  20947665.7444   20947666.8124
 -20098880.63044 -15661443.26644  21701913.7254   21701915.4484
  -2412612.83944  -1879956.12144  23891820.9134   23891822.0514
 -14324766.247 4 -11162153.243 4  21304166.465    21304165.890
 -19864034.86744 -15478439.30844  21381715.7994   21381717.7074
 95  6 15  3 13 30.0000000  0  7G23G31G21G17G 9G28G 1
 -20953671.94744 -16327500.08544  21229517.0604   21229517.8534
   -473159.00044   -368695.05944  23828480.7144   23828481.3074
 -24562761.22944 -19139780.42344  20943262.9134   20943264.0174
 -20039280.66744 -15615001.75744  21713255.5334   21713257.3844
  -2438164.43144  -1899866.42544  23886959.0714   23886960.4714
 -14340323.697 4 -11174275.943 4  21301205.959    21301205.425
 -19940638.71244 -15538130.56544  21367138.3644   21367140.1354
 95  6 15  3 14  0.0000000  0  7G23G31G21G17G 9G28G 1
 -20916675.19244 -16298671.44644  21236557.1754   21236557.8034
   -550700.83944   -429117.22444  23813724.9184   23813725.2514
 -24585682.24244 -19157640.94144  20938901.1494   20938901.8984
 -19979375.19644 -15568322.19144  21724655.1694   21724657.1804
  -2463280.14944  -1919437.04544  23882178.8694   23882181.1554
 -14355277.779 4 -11185928.484 4  21298360.348    21298359.785
 -20016850.60044 -15597516.40344  21352635.8264   21352637.5474
 95  6 15  3 14 30.0000000  0  7G23G31G21G17G 9G28G 1
 -20879541.64144 -16269736.21144  21243623.6634   21243624.4504
   -627868.31144   -489247.66844  23799040.1544   23799041.9494
 -24608359.87044 -19175311.80844  20934585.7334   20934586.4594
 -19919151.61344 -15521394.74244  21736115.1904   21736117.0534
  -2487934.08344  -1938647.89844  23877487.6224   23877487.4244
 -14369614.432 4 -11197099.910 4  21295632.143    21295631.647
 -20092647.80244 -15656579.11544  21338212.0284   21338214.0224
 95  6 15  3 15  0.0000000  0  7G23G31G21G17G 9G28G 1
 -20842276.59444 -16240698.51544  21250714.9684   21250715.6484
   -704664.73644   -549089.04744  23784426.5664   23784426.8754
 -24630810.05744 -19192805.44144  20930313.6894   20930314.6474
 -19858627.54444 -15474233.14444  21747632.5304   21747634.3174
  -2512147.64644  -1957515.58544  23872880.1824   23872883.3574
 -14383357.851 4 -11207809.077 4  21293016.840    21293016.361
 -20168045.29744 -15715330.37044  21323864.4674   21323866.1534
 95  6 15  3 15 30.0000000  0  7G23G31G21G17G 9G28G 1
 -20804864.93044 -16211546.57544  21257834.0364   21257835.1304
   -781057.31244   -608615.67744  23769889.3014   23769888.4864
 -24653034.64244 -19210123.28144  20926084.2614   20926085.2244
 -19797772.53844 -15426813.67344  21759212.8644   21759214.5674
  -2535917.95744  -1976037.89644  23868356.8024
 -14396493.543 4 -11218044.688 4  21290517.098    21290516.688
 -20243027.69244 -15773758.16244  21309595.6824   21309597.4804
 95  6 15  3 16  0.0000000  0  7G23G31G21G17G 9G28G 1
 -20767254.33944 -16182239.62544  21264991.3394   21264992.3634
   -856981.20344   -667777.12944  23755441.3044   23755442.9674
 -24674986.44944 -19227228.56644  20921906.8954   20921908.0234
 -19736547.61644 -15379105.95644  21770863.6934   21770865.5464
  -2559202.91644  -1994181.99244  23863926.1274   23863927.2244
 -14408972.951 4 -11227768.912 4  21288142.419    21288141.965
 -20317544.74144 -15831823.35744  21295415.4964   21295417.2384
 95  6 15  3 16 30.0000000  0  7G23G31G21G17G 9G28G 1
 -20729435.68344 -16152770.54444  21272187.9284   21272188.7794
   -932400.59444   -726545.43744  23741089.5674   23741090.5264
 -24696640.77244 -19244102.04344  20917786.2684   20917787.3664
 -19674948.57944 -15331106.71144  21782585.6734   21782587.2384
  -2581986.82844                  23859590.3884
 -14420778.356 4 -11236967.941 4  21285895.967    21285895.417
 -20391582.61444 -15889515.17044  21281326.6354   21281328.5104
 95  6 15  3 17  0.0000000  0  7G23G31G21G17G 9G28G 1
 -20691516.48244 -16123223.12044  21279403.6844   21279404.4334
  -1007448.52344   -785024.33344  23726807.9644   23726809.2794
 -24718125.35144 -19260843.24444  20913697.7764   20913698.8994
 -19613104.11844 -15282916.23344  21794354.5004   21794356.2224
  -2604391.74544                  23855326.8324
 -14432019.858 4 -11245727.566 4  21283756.751    21283756.293
 -20465248.77344 -15946917.34444  21267308.2754   21267310.0934
 95  6 15  3 17 30.0000000  0  7G23G31G21G17G 9G28G 1
 -20653528.77344 -16093622.30444  21286632.3314   21286633.0834
  -1082168.92244   -843247.98844  23712589.3204   23712592.4374
 -24739470.13944 -19277475.51544  20909636.0124   20909637.0184
 -19551057.98844 -15234568.60844  21806161.1714   21806163.5234
  -2626437.32444                  23851131.4224
 -14442721.887 4 -11254066.820 4  21281720.296    21281719.756
 -20538568.49944 -16004049.56644  21253356.0694   21253357.7974
 95  6 15  3 18  0.0000000  0  7G23G31G21G17G 9G28G 1
 -20615346.41644 -16063869.82544  21293898.1004   21293899.2784
  -1156454.59844   -901132.89644  23698453.2384   23698452.6514
 -24760548.18844 -19293899.94844  20905625.0904   20905625.9024
 -19488683.73644 -15185965.29144  21818030.3654   21818032.0814
  -2647996.27344  -2063373.76144  23847028.5624   23847029.0444
 -14452757.228 4 -11261886.572 4  21279810.580    21279810.066
 -20611401.92644 -16060802.84544  21239496.2154   21239497.9814
 95  6 15  3 18 30.0000000  0  7G23G31G21G17G 9G28G 1
 -20577041.13644 -16034021.56344  21301187.4664   21301188.3374
  -1230385.98444   -958741.76344  23684384.7034   23684383.6384
 -24781432.88744 -19310173.72344  20901650.9044   20901651.9524
 -19426026.79044 -15137141.69144  21829953.6554   21829955.7994
  -2669132.13744  -2079851.06644  23843006.8154   23843007.9464
 -14462184.886 4 -11269232.806 4  21278016.603    21278016.059
 -20683813.29544 -16117227.23344  21225716.7204   21225718.4944
 95  6 15  3 19  0.0000000  0  7G23G31G21G17G 9G28G 1
 -20538614.64344 -16004078.84844  21308500.0754   21308500.9334
  -1303960.95544  -1016072.89444  23670383.9614   23670385.1244
 -24802147.84344 -19326315.23144  20897708.9214   20897709.6944
 -19363072.98244 -15088086.76844  21841933.2424   21841934.7754
  -2689832.15044  -2095979.41344  23839067.7134   23839068.6814
 -14471006.388 4 -11276106.713 4  21276337.936    21276337.370
 -20755807.00044 -16173326.16444  21212016.6874   21212018.5674
 95  6 15  3 19 30.0000000  0  7G23G31G21G17G 9G28G 1
 -20500041.79544 -15974022.09044  21315839.7904   21315840.6484
  -1377126.53144  -1073085.04844  23656461.2424   23656463.0064
 -24822668.29444 -19342305.17544  20893803.9284   20893804.9024
 -19299779.22444 -15038766.95344  21853977.8134   21853979.8024
  -2710051.44044  -2111727.97244  23835220.1624   23835219.6154
 -14479194.472 4 -11282487.049 4  21274779.829    21274779.261
 -20827362.86844 -16229083.92544  21198400.0824   21198401.7144
 95  6 15  3 20  0.0000000  0  7G23G31G21G17G 9G28G 1
 -20461320.50844 -15943849.66344  21323208.3214   21323209.1734
  -1449863.14544  -1129762.92644  23642619.9134   23642622.3064
 -24842981.68644 -19358133.76344  20889938.3784   20889939.4674
 -19236115.53344 -14989158.85744  21866092.7174   21866094.5164
  -2729777.35744                  23831466.4264
 -14486739.896 4 -11288366.612 4  21273344.093    21273343.513
 -20898468.60044 -16284490.94144  21184869.0834   21184871.0084
 95  6 15  3 20 30.0000000  0  7G23G31G21G17G 9G28G 1
 -20422449.34644 -15913560.45444  21330605.2634   21330606.1414
  -1522159.70144  -1186097.90744  23628862.4964   23628863.9284
 -24863086.73744 -19373800.01144  20886112.4424   20886113.3674
 -19172098.18644 -14939275.21644  21878274.8234   21878276.6164
  -2749001.05244                  23827807.9114
 -14493649.374 4 -11293750.631 4  21272029.266    21272028.626
 -20969143.15344 -16339561.98444  21171420.1124   21171422.1224
 95  6 15  3 21  0.0000000  0  7G23G31G21G17G 9G28G 1
 -20383396.43944 -15883129.62744  21338036.7404   21338037.7314
  -1593989.13744  -1242068.92144  23615193.5154   23615195.6924
 -24882957.05744 -19389283.35544  20882331.4504   20882332.2584
 -19107727.25044 -14889116.03044  21890524.1534   21890526.1644
  -2767703.16344                  23824248.7034
 -14499914.268 4 -11298632.377 4  21270837.037    21270836.407
 -21039366.68844 -16394281.58244  21158056.8924   21158058.7924
 95  6 15  3 21 30.0000000  0  7G23G31G21G17G 9G28G 1
 -20344191.84944 -15852580.60944  21345497.3824   21345498.5224
  -1665387.50644  -1297704.01444  23601606.9574   23601606.8554
 -24902592.49944 -19404583.67744  20878594.8534   20878595.8044
 -19043023.66044 -14838697.63344  21902836.8994   21902838.4214
  -2785924.16944  -2170849.52544  23820781.4664   23820785.6814
 -14505562.915 4 -11303033.926 4  21269762.137    21269761.648
 -21109165.81044 -16448670.45844  21144774.5764   21144776.4134
 95  6 15  3 22  0.0000000  0  7G23G31G21G17G 9G28G 1
 -20304861.59644 -15821933.67044  21352981.4124   21352982.2464
  -1736380.98344  -1353023.61444  23588097.7264   23588098.7634
 -24922007.34544 -19419712.10344  20874900.2754   20874901.2834
 -18978013.51744 -14788040.36144  21915207.7224   21915209.6434
  -2803695.35144  -2184697.17644  23817399.4894   23817399.5484
 -14510621.837 4 -11306975.945 4  21268799.356    21268798.903
 -21178566.03844 -16502748.49544  21131568.1794   21131569.8814
 95  6 15  3 22 30.0000000  0  7G23G31G21G17G 9G28G 1
 -20265405.16144 -15791188.40644  21360490.0194   21360490.7454
  -1806962.15644  -1408021.95944  23574666.1594   23574667.8194
 -24941213.86044 -19434678.19944  20871245.2954   20871246.0684
 -18912708.84144 -14737153.59144  21927634.7994   21927636.6794
  -2821022.25544  -2198198.63344  23814102.6664   23814104.3934
 -14515093.783 4 -11310460.585 4  21267948.339    21267947.915
 -21247575.85444 -16556522.32044  21118435.9754   21118437.5504
 95  6 15  3 23  0.0000000  0  7G23G31G21G17G 9G28G 1
 -20225814.86944 -15760338.83444  21368023.6524   21368024.2654
  -1877101.91144  -1462676.33844  23561319.2914   23561320.9564
 -24960188.31344 -19449463.46044  20867634.5474   20867635.2724
 -18847077.76944 -14686012.49144  21940124.0304   21940125.8114
  -2837884.29144  -2211337.86644  23810894.3244   23810894.6934
 -14518949.875 4 -11313465.338 4  21267214.557    21267214.029
 -21316157.71144 -16609962.69344  21105385.2674   21105386.9804
 95  6 15  3 23 30.0000000  0  7G23G31G21G17G 9G28G 1
 -20186114.41744 -15729403.42344  21375578.4704   21375578.9714
  -1946807.54144  -1516992.43544  23548054.6064   23548057.5804
 -24978937.14644 -19464072.91144  20864066.7524   20864067.5504
 -18781124.73444 -14634620.50544  21952674.4404   21952675.8874
  -2854280.54744  -2224114.10344  23807773.9474   23807774.2364
 -14522186.467 4 -11315987.366 4  21266598.680    21266598.221
 -21384310.73644 -16663068.91244  21092416.1244   21092417.8054
 95  6 15  3 24  0.0000000  0  7G23G31G17G21G 9G28G 1
 -20146280.09744 -15698363.69944  21383158.6644   21383159.4104
  -2016057.07144  -1570953.11444  23534876.7234   23534879.0224
 -18714856.02844 -14582982.55044  21965284.8004   21965286.2424
 -24997465.79144 -19478510.80044  20860540.9754   20860541.9374
  -2870187.28144  -2236508.90344  23804747.0874   23804748.1654
 -14524785.947 4 -11318012.948 4  21266104.089    21266103.585
 -21452004.32344 -16715817.12844  21079534.3434   21079536.1684
 95  6 15  3 24 30.0000000  0  7G23G31G21G17G 9G28G 1
 -20106318.23844 -15667224.58644  21390763.1294   21390763.8114
  -2084860.01344  -1624565.81544  23521783.8134   23521784.3844
 -25015777.81044 -19492779.89044  20857056.2984   20857057.2424
 -18648281.75644 -14531106.50044  21977953.7114   21977955.3234
  -2885609.96244  -2248526.53544  23801812.4704   23801812.2674
 -14526750.439 4 -11319543.731 4  21265730.329    21265729.705
 -21519234.87044 -16768204.53044  21066740.7954   21066742.5094
 95  6 15  3 25  0.0000000  0  7G23G31G21G17G 9G28G 1
 -20066277.85144 -15636024.28144  21398382.5614   21398383.6544
  -2153284.11944  -1677883.31244  23508763.6984   23508765.2184
 -25033919.51144 -19506916.25844  20853603.9834   20853605.0114
 -18581450.67144 -14479030.33344  21990671.3614   21990673.0484
  -2900598.74944  -2260206.09744  23798959.4864   23798962.7094
 -14528135.757 4 -11320623.205 4  21265466.694    21265466.147
 -21586050.01544 -16820268.24544  21054026.2224   21054027.9544
 95  6 15  3 25 30.0000000  0  7G23G31G21G17G 9G28G 1
 -20026071.06944 -15604694.31444  21406033.3474   21406034.4014
  -2221252.61944  -1730845.80544  23495829.3094   23495830.0304
 -25051824.90744 -19520868.50144  20850196.8364   20850197.7204
 -18514296.45144 -14426702.37244  22003450.4514   22003451.9454
  -2915070.83944  -2271483.02544  23796205.4504   23796207.3884
 -14528872.441 4 -11321197.251 4  21265326.568    21265325.911
 -21652378.15144 -16871952.46444  21041404.4764   21041406.1494
 95  6 15  3 26  0.0000000  0  7G23G31G21G17G 9G28G 1
 -19985735.19744 -15573263.75744  21413709.5644   21413710.1784
  -2288805.77244  -1783484.63844  23482974.6074   23482976.8004
 -25069560.15744 -19534688.16644  20846821.7804   20846822.7674
 -18446859.70144 -14374154.25544  22016283.1604   22016284.6994
  -2929071.99544  -2282392.99544  23793541.6364   23793542.5374
 -14529014.657 4 -11321308.073 4  21265299.462    21265298.815
 -21718273.13744 -16923299.16944  21028865.0754   21028866.7304
 95  6 15  3 26 30.0000000  0  7G23G31G21G17G 9G28G 1
 -19945261.40244 -15541725.72844  21421411.3154   21421412.3604
  -2355930.94744  -1835789.98244  23470200.5694   23470202.7444
 -25087107.36444 -19548361.30944  20843482.7224   20843483.7024
 -18379105.02544 -14321358.41544  22029176.3994   22029177.6444
  -2942582.89144  -2292920.91044  23790970.4164   23790971.8474
 -14528547.457 4 -11320944.025 4  21265388.352    21265387.728
 -21783724.62744 -16974300.28444  21016410.0534   21016411.5624
 95  6 15  3 27  0.0000000  0  7G23G31G21G17G 9G28G 1
 -19904612.71344 -15510051.42444  21429146.2604   21429147.0624
  -2422582.70544  -1887726.41544  23457517.5224   23457519.8184
 -25104437.38644 -19561865.22344  20840184.7704   20840185.5364
 -18311007.29144 -14268295.26144  22042134.8854   22042136.4204
  -2955565.58844  -2303037.27444  23788500.0284   23788501.4114
 -14527436.340 4 -11320078.220 4  21265599.694    21265599.169
 -21848685.41844 -17024919.03944  21004048.3764   21004049.9254
 95  6 15  3 27 30.0000000  0  7G23G31G21G17G 9G28G 1
 -19863823.61244 -15478267.71044  21436908.0764   21436908.8724
  -2488775.98544  -1939305.61544  23444921.5834   23444921.8434
 -25121571.79544 -19575216.70444  20836924.2784   20836925.1314
 -18242602.20944 -14214992.60744  22055151.7244   22055153.7334
  -2968053.62744  -2312768.20544  23786123.4604   23786124.0744
 -14525708.309 4 -11318731.701 4  21265928.606    21265928.066
 -21913181.99244 -17075176.06844  20991775.0204   20991776.5374
 95  6 15  3 28  0.0000000  0  7G23G31G17G 9G28G21G 1
 -19822911.90144 -15446388.46144  21444693.8374   21444694.6164
  -2554516.76644  -1990532.19144  23432411.4034   23432412.2094
 -18173881.45544 -14161443.96944  22068228.8944   22068231.0194
  -2980059.73744  -2322123.60644  23783838.8634   23783839.2954
 -14523365.103 4 -11316905.827 4  21266374.554    21266373.957
 -25138500.36244 -19588407.78044  20833702.8494   20833703.7134
 -21977218.17744 -17125074.34044  20979589.2174   20979590.8234
 95  6 15  3 28 30.0000000  0  7G23G31G17G 9G28G21G 1
 -19781903.69444 -15414434.01844  21452497.1514   21452497.8994
  -2619806.66144  -2041407.43544  23419987.2704   23419987.5164
 -18104865.95544 -14107665.67144  22081362.1774   22081363.8404
  -2991597.62644  -2331114.13444  23781642.8374   23781645.6144
 -14520410.615 4 -11314603.623 4  21266936.824    21266936.181
 -25155203.87444 -19601423.48244  20830524.3504   20830525.0864
 -22040798.05144 -17174617.04744  20967490.3544   20967491.9694
 95  6 15  3 29  0.0000000  0  7G23G31G17G 9G28G21G 1
 -19740791.07744 -15382398.21944  21460320.5664   21460321.1004
  -2684628.04544  -2091917.61944  23407652.1854   23407653.7844
 -18035560.93844 -14053661.78944  22094550.6274   22094552.0714
  -3002655.66444  -2339730.75244  23779538.7944   23779541.0484
 -14516835.173 4 -11311817.566 4  21267617.133    21267616.550
 -25171664.16344 -19614249.66644  20827392.0924   20827392.8184
 -22103910.67944 -17223795.66244  20955480.3984   20955482.0294
 95  6 15  3 29 30.0000000  0  7G23G31G17G 9G28G21G 1
 -19699579.00244 -15350284.91744  21468163.2104   21468164.1294
  -2748973.05644  -2142056.57444  23395407.3034   23395408.5524
 -17965939.28044 -13999411.17844  22107799.1524   22107800.5744
  -3013217.96044  -2347961.08644  23777528.7044   23777529.3484
 -14512629.848 4 -11308540.694 4  21268417.356    21268416.726
 -25187874.78144 -19626881.29944  20824306.9234   20824307.5824
 -22166560.11844 -17272613.36144  20943558.7174   20943560.1914
 95  6 15  3 30  0.0000000  0  7G23G31G17G 9G28G21G 1
 -19658300.48044 -15318119.84844  21476018.0174   21476018.6584
  -2812874.72644  -2191850.09544  23383247.5544   23383247.8164
 -17896032.07844 -13944938.05644  22121102.1454   22121103.5774
  -3023308.93444  -2355824.16944  23775608.5104   23775610.2654
 -14507827.874 4 -11304798.895 4  21269331.139    21269330.435
 -25203888.77044 -19639359.71444  20821259.7394   20821260.5004
 -22228777.30544 -17321094.24844  20931719.0384   20931720.5644
 95  6 15  3 30 30.0000000  0  7G23G31G17G 9G28G21G 1
 -19616915.55644 -15285871.86744  21483893.0494   21483894.0004
  -2876315.63244  -2241284.55144  23371174.5834   23371176.3194
 -17825832.08144 -13890236.75444  22134460.6154   22134462.6514
  -3032900.43944  -2363298.08144  23773783.2494   23773782.8864
 -14502410.906 4 -11300577.881 4  21270361.973    21270361.314
 -25219694.67944 -19651675.99144  20818252.0224   20818253.1074
 -22290537.00344 -17369218.64644  20919966.5584   20919968.0484
 95  6 15  3 31  0.0000000  0  7G23G31G17G 9G28G21G 1
 -19575391.60144 -15253515.54544  21491794.9994   21491796.2324
  -2939291.55844  -2290356.67744  23359190.9894   23359193.1994
 -17755325.55044 -13835296.62144  22147877.6844   22147879.2884
  -3041980.74544  -2370373.60844  23772055.2034   23772057.0204
 -14496382.452 4 -11295880.390 4  21271509.147    21271508.464
 -25235304.09444 -19663839.15344  20815281.6524   20815282.4434
 -22351837.89444 -17416985.53044  20908301.2964   20908302.7354
 95  6 15  3 31 30.0000000  0  7G23G31G17G 9G28G21G 1
 -19533720.44044 -15221044.51044  21499724.8814   21499725.8884
  -3001807.56444  -2339070.45444  23347294.5664   23347296.0664
 -17684508.48244 -13780114.50444  22161353.5094   22161356.2314
  -3050558.84544  -2377057.81644  23770423.1774   23770423.2804
 -14489747.019 4 -11290709.926 4  21272771.854    21272771.227
 -25250726.66144 -19675856.72244  20812346.6744   20812347.3974
 -22412688.68944 -17464401.69644  20896721.7334   20896723.1064
 95  6 15  3 32  0.0000000  0  7G23G31G17G 9G28G21G 1
 -19491873.23744 -15188436.30344  21507688.4664   21507689.3714
  -3063858.72744  -2387421.98444  23335486.4954   23335488.3664
 -17613378.48444 -13724688.56244  22174889.0694   22174891.4414
  -3058622.78044  -2383341.39644  23768888.6474   23768891.8404
 -14482493.787 4 -11285058.054 4  21274152.155    21274151.456
 -25265938.23444 -19687709.88544  20809452.1304   20809452.9784
 -22473069.73544 -17511451.82044  20885231.5554   20885233.0374
 95  6 15  3 32 30.0000000  0  7G23G31G17G 9G28G21G 1
 -19449861.00944 -15155699.50144  21515682.6344   21515683.2814
  -3125453.25944  -2435417.69844  23323765.1344   23323765.7044
 -17541949.15944 -13669029.36144  22188481.7504   22188483.4034
  -3066190.36544  -2389238.18644  23767448.3604   23767449.2094
 -14474631.280 4 -11278931.423 4  21275648.251    21275647.651
 -25280926.27544 -19699388.86144  20806600.1154   20806600.7984
 -22532988.91744 -17558142.05144  20873829.3694   20873830.7724
 95  6 15  3 33  0.0000000  0  7G23G31G17G 9G28G21G 1
 -19407699.59844 -15122846.45744  21523705.9314   21523706.6084
  -3186575.91444  -2483045.72644  23312133.7634   23312136.2394
 -17470196.70644 -13613118.36644  22202135.6874   22202137.2314
  -3073261.60844  -2394748.21444  23766103.1434   23766104.5344
 -14466149.323 4 -11272322.110 4  21277262.353    21277261.667
 -25295689.01444 -19710892.28344  20803790.6424   20803791.2224
 -22592437.95244 -17604465.93144  20862516.5724   20862518.0174
 95  6 15  3 33 30.0000000  0  7G23G31G17G 9G28G21G 1
 -19365421.54944 -15089902.52644  21531750.9304   21531751.5724
  -3247242.68044  -2530318.51144  23300589.9084   23300591.6024
 -17398115.80144 -13556951.43844  22215852.3544   22215854.7164
  -3079844.05444  -2399877.34444  23764850.5304   23764851.8454
 -14457044.881 4 -11265227.745 4  21278994.946    21278994.180
 -25310232.85444 -19722225.12844  20801023.1064   20801023.9604
 -22651417.09744 -17650423.66844  20851293.1114   20851294.4094
 95  6 15  3 34  0.0000000  0  7G23G31G17G 9G28G21G 1
 -19323028.57044 -15056869.03544  21539818.0884   21539818.7454
  -3307435.93244  -2577222.32744  23289135.2734   23289136.6294
 -17325703.38644 -13500526.18744  22229631.9154   22229633.8604
  -3085929.19444  -2404618.97744  23763692.3544   23763692.7254
 -14447308.270 4 -11257640.779 4  21280847.720    21280847.035
 -25324556.33544 -19733386.26844  20798297.4154   20798298.3074
 -22709907.70844 -17696000.73344  20840162.7244   20840164.1384
 95  6 15  3 34 30.0000000  0  7G23G31G17G 9G28G21G 1
 -19280537.24744 -15023758.90744  21547904.0214   21547904.6004
  -3367152.08344  -2623754.36944  23277771.7164   23277774.0034
 -17252956.60244 -13443840.38644  22243475.5294   22243477.3314
  -3091529.01344  -2408982.44244  23762626.5024   23762628.4534
 -14436948.040 4 -11249567.875 4  21282819.152    21282818.521
 -25338686.18144 -19744396.52244  20795608.5284   20795609.2974
 -22767920.50444 -17741205.47244  20829123.2194   20829124.8254
 95  6 15  3 35  0.0000000  0  7G23G31G17G 9G28G21G 1
 -19237931.70344 -14990559.77744  21556011.6964   21556012.5574
  -3426374.61344  -2669901.77344  23266501.9974   23266503.1464
 -17179858.16944 -13386880.57544  22257385.3924   22257386.6704
  -3096615.86444  -2412946.16844  23761658.3974   23761660.2574
 -14425950.360 4 -11240998.259 4  21284911.915    21284911.327
 -25352620.71144 -19755254.58844  20792956.8264   20792957.6684
 -22825439.14544 -17786025.15444  20818177.6944   20818179.3524
 95  6 15  3 35 30.0000000  0  7G23G31G17G 9G28G21G 1
 -19195203.23044 -14957264.86044  21564142.9334   21564143.7614
  -3485106.85844  -2715667.13644  23255325.6614   23255326.7474
 -17106439.80044 -13329671.46444  22271356.4074   22271358.0594
  -3101204.70544  -2416521.85244  23760785.6324   23760787.1934
 -14414331.194 4 -11231944.371 4  21287122.933    21287122.422
 -25366362.04644 -19765962.11844  20790342.0604   20790342.7044
 -22882473.23744 -17830467.26444  20807324.5074   20807325.9614
 95  6 15  3 36  0.0000000  0  7G23G31G17G 9G28G21G 1
 -19152332.22444 -14923858.87544  21572300.8394   21572301.6054
  -3543325.36044  -2761032.20244  23244247.0374   23244248.5704
 -17032718.78544 -13272226.52544  22285385.2044   22285387.2114
  -3105278.74244  -2419696.38944  23760009.9924   23760011.6384
 -14402088.412 4 -11222404.544 4  21289452.655    21289452.139
 -25379894.29444 -19776506.72144  20787766.8374   20787767.7414
 -22939007.30844 -17874519.74944  20796566.4224   20796567.8754
 95  6 15  3 36 30.0000000  0  7G23G31G17G 9G28G21G 1
 -19109349.76744 -14890366.04644  21580479.7974   21580480.9524
  -3601071.47044  -2806029.16444  23233258.1764   23233258.6664
 -16958731.85144 -13214574.37044  22299464.2454   22299466.5614
  -3108857.08444  -2422484.66944  23759329.4164   23759331.3174
 -14389254.386 4 -11212404.007 4  21291894.922    21291894.448
 -25393227.57844 -19786896.28644  20785229.5754   20785230.1984
 -22995078.45044 -17918211.50844  20785896.2594   20785897.5604
 95  6 15  3 37  0.0000000  0  7G23G31G17G 9G28G21G 1
 -19066269.58844 -14856797.06644  21588677.8674   21588678.4274
  -3658366.83444  -2850674.89544  23222355.3434   23222355.4194
 -16884518.88544 -13156746.09144  22313586.5444   22313588.1924
  -3111963.03944  -2424904.87944  23758738.1244   23758739.9994
 -14375852.453 4 -11201960.952 4  21294445.256    21294444.749
 -25406376.79544 -19797142.42344  20782727.5994   20782728.2704
 -23050711.32244 -17961561.75944  20775309.6944   20775311.0984
 95  6 15  3 37 30.0000000  0  7G23G31G17G 9G28G21G 1
 -19023013.27044 -14823090.83544  21596909.0364   21596909.8884
  -3715126.56944  -2894903.26344  23211554.2664   23211554.7024
 -16809994.47444 -13098675.12144  22327768.2324   22327769.9134
  -3114511.20444  -2426890.44644  23758252.8234   23758253.9244
 -14361804.215 4 -11191014.283 4  21297118.589    21297118.038
 -25419258.72044 -19807180.28044  20780276.0894   20780276.7514
 -23105824.40944 -18004506.98744  20764822.0224   20764823.3074
 95  6 15  3 38  0.0000000  0  7G23G31G17G 9G28G21G 1
 -18979610.90644 -14789270.80544  21605168.2924   21605169.1014
  -3771374.11544  -2938732.52244  23200850.9364   23200851.4464
 -16735165.88044 -13040367.12244  22342007.6164   22342009.7094
  -3116494.83944  -2428436.08744  23757875.5424   23757877.1584
 -14347122.557 4 -11179574.034 4  21299912.376    21299911.812
 -25431895.61344 -19817027.20244  20777871.2814   20777872.0884
 -23160428.75644 -18047055.79544  20754431.1564   20754432.3674
 95  6 15  3 38 30.0000000  0  7G23G31G17G 9G28G21G 1
 -18936087.94544 -14755356.80044  21613450.3024   21613451.2814
  -3827127.61944  -2982176.80044  23190241.3844   23190243.3804
 -16660045.73544 -12981831.94744  22356302.3464   22356304.1494
  -3117944.53544  -2429565.69144  23757599.3824   23757602.0034
 -14331833.013 4 -11167660.113 4  21302821.847    21302821.255
 -25444329.51644 -19826715.94644  20775505.1944   20775506.0314
 -23214551.32144 -18089229.18744  20744131.9484   20744133.2724
 95  6 15  3 39  0.0000000  0  7G23G31G17G 9G28G21G 1
 -18892449.78344 -14721353.03844  21621754.7004   21621755.5724
  -3882373.23244  -3025225.35544  23179728.2294   23179729.2734
 -16584620.51144 -12923059.06344  22370655.1864   22370657.1884
  -3118864.07944  -2430282.17244  23757424.5764   23757424.1754
 -14315938.517 4 -11155274.804 4  21305846.534    21305845.998
 -25456585.46544 -19836266.02944  20773172.7744   20773173.4164
 -23268179.95044 -18131017.69244  20733926.8934   20733928.1254
 95  6 15  3 39 30.0000000  0  7G23G31G17G 9G28G21G 1
 -18848698.30844 -14687260.97744  21630079.9064   21630080.5134
  -3937095.35844  -3067865.97144  23169315.0334   23169316.9754
 -16508866.61944 -12864030.05944  22385070.6864   22385072.3764
  -3119231.60544  -2430568.54744  23757354.3884   23757356.0434
 -14299427.209 4 -11142408.864 4  21308988.512    21308988.042
 -25468656.99544 -19845672.41244  20770875.7064   20770876.3714
 -23321286.58344 -18172399.44344  20723820.8854   20723822.2174
 95  6 15  3 40  0.0000000  0  7G23G31G17G 9G28G21G 1
 -18804868.49944 -14653107.88244  21638420.8494   21638421.3764
  -3991327.07744  -3110124.46844  23158995.0674   23158997.5334
 -16432827.90144 -12804779.10944  22399540.2324   22399541.9374
  -3119095.37344  -2430462.34044  23757380.5264   23757381.6514
 -14282334.273 4 -11129089.708 4  21312241.214    21312240.673
 -25480582.37144 -19854964.90444  20768606.6314   20768607.4944
 -23373904.59444 -18213400.45344  20713807.9854   20713809.2264
 95  6 15  3 40 30.0000000  0  7G23G31G17G 9G28G21G 1
 -18760948.60944 -14618884.58944  21646778.1954   21646778.7174
  -4045052.75344  -3151988.64144  23148771.2194   23148773.3714
 -16356489.35044 -12745294.52544  22414067.5474   22414069.3794
  -3118462.94944  -2429969.54244  23757500.5874   23757502.5834
 -14264653.096 4 -11115312.183 4  21315605.874    21315605.234
 -25492356.59544 -19864139.61244  20766366.0434   20766366.6674
 -23426032.58144 -18254019.62944  20703888.3714   20703889.6744
 95  6 15  3 41  0.0000000  0  7G23G31G17G 9G28G21G 1
 -18716973.71344 -14584618.43544  21655146.5174   21655147.1124
  -4098311.90344  -3193489.28144  23138636.7214   23138637.1494
 -16279879.88744 -12685598.83444  22428645.7264   22428647.7914
  -3117370.93544  -2429118.58944  23757708.8184   23757708.7194
 -14246415.445 4 -11101101.045 4  21319076.387    21319075.724
 -25503995.50544 -19873208.88044  20764151.1474   20764151.8744
 -23477710.70444 -18294288.26944  20694054.2754   20694055.6144
 95  6 15  3 41 30.0000000  0  7G23G31G17G 9G28G21G 1
 -18672944.12544 -14550309.67044  21663524.7254   21663525.5964
  -4151120.00044  -3234638.44944  23128587.7604   23128589.3524
 -16203014.05744 -12625703.39444  22443272.7944   22443274.7274
  -3115831.90444  -2427919.31044  23758001.4714   23758002.0504
 -14227630.246 4 -11086463.251 4  21322651.044    21322650.393
 -25515490.86944 -19882166.29444  20761963.4534   20761964.2904
 -23528962.88044 -18334225.00144  20684301.1924   20684302.3844
 95  6 15  3 42  0.0000000  0  7G23G31G17G 9G28G21G 1
 -18628778.68444 -14515895.04144  21671929.3054   21671930.3134
  -4203411.51544  -3275385.07744  23118636.7094   23118638.4894
 -16125815.66844 -12565548.80744  22457962.9694   22457964.6064
  -3113776.11344  -2426317.41844  23758392.4014   23758394.5544
 -14208222.542 4 -11071340.382 4  21326344.265    21326343.644
 -25526752.88144 -19890941.87944  20759820.6974   20759821.4084
 -23579721.34044 -18373777.01644  20674642.1904   20674643.4984
 95  6 15  3 42 30.0000000  0  7G23G31G17G 9G28G21G 1
 -18584483.29644 -14481379.15044  21680358.6714   21680359.5914
  -4255207.69844  -3315745.73244  23108780.4714   23108781.0104
 -16048287.16044 -12505136.99244  22472716.2374   22472718.8814
  -3111208.70044  -2424316.78244  23758881.1364   23758881.2054
 -14188201.975 4 -11055739.958 4  21330154.134    21330153.570
 -25537776.58844 -19899531.76444  20757722.7224   20757723.6904
 -23629996.63944 -18412952.54144  20665075.2114   20665076.2754
 95  6 15  3 43  0.0000000  0  7G23G31G17G 9G28G21G 1
 -18540119.24544 -14446809.76044  21688800.8394   21688801.6344
  -4306573.93144  -3355771.37244  23099005.5674   23099007.5044
 -15970496.51744 -12444520.91544  22487519.3334   22487521.6144
  -3108178.10644  -2421955.29644  23759457.8524   23759459.4474
 -14167625.218 4 -11039706.135 4  21334069.688    21334069.236
 -25548596.23744 -19907962.64044  20755663.6784   20755664.6354
 -23679845.45744 -18451795.73944  20655589.1974   20655590.4194
 95  6 15  3 43 30.0000000  0  7G23G31G17G 9G28G21G 1
 -18495666.07244 -14412170.92844  21697259.8744   21697260.9494
  -4357489.25944  -3395445.62444  23089316.9724   23089318.1514
 -15892430.74844 -12383690.46444  22502374.8264   22502376.7264
  -3104650.92044  -2419206.82844  23760129.1794   23760129.7124
 -14146468.751 4 -11023220.591 4  21338095.654    21338095.227
 -25559192.82544 -19916219.70844  20753647.4574   20753648.0774
 -23729227.20144 -18490274.98544  20646192.1404   20646193.3124
 95  6 15  3 44  0.0000000  0  7G23G31G17G 9G28G21G 1
 -18451084.29644 -14377431.88744  21705743.5304   21705744.4704
  -4407898.63044  -3434725.62644  23079724.3534   23079726.0084
 -15814050.65244 -12322615.07144  22517289.8644   22517292.1644
  -3100578.88144  -2416033.80144  23760904.1574   23760904.7294
 -14124687.936 4 -11006248.546 4  21342240.497    21342239.903
 -25569521.21144 -19924267.78644  20751682.0524   20751682.6974
 -23778082.57044 -18528344.06344  20636895.2004   20636896.3684
 95  6 15  3 44 30.0000000  0  7G23G31G17G 9G28G21G 1
 -18406375.10544 -14342593.55844  21714251.3424   21714252.1864
  -4457782.82544  -3473596.40744  23070231.4364   23070233.0584
 -15735376.80044 -12261310.79344  22532261.1384   22532262.8084
  -3095961.62544  -2412435.91644  23761783.0214   23761783.5064
 -14102287.693 4 -10988793.833 4  21346503.173    21346502.482
 -25579598.04344 -19932119.84944  20749764.3234   20749765.1164
 -23826416.54944 -18566006.86344  20627697.5434   20627698.7334
 95  6 15  3 45  0.0000000  0  7G23G31G17G 9G28G21G 1
 -18361546.19044 -14307661.94044  21722782.3564   21722783.1834
  -4507110.97344  -3512033.90644  23060844.7374   23060846.8794
 -15656411.69044 -12199779.54144  22547287.9564   22547289.1154
  -3090800.96444  -2408414.61544  23762764.8744   23762766.6484
 -14079271.783 4 -10970859.384 4  21350882.996    21350882.239
 -25589441.94344 -19939790.41044  20747891.2334   20747892.1044
 -23874217.03544 -18603253.95644  20618601.3284   20618602.4754
 95  6 15  3 45 30.0000000  0  7G23G31G17G 9G28G21G 1
 -18316586.00544 -14272628.03444  21731337.7744   21731338.5284
  -4555853.93044  -3550015.38744  23051568.9134   23051570.4284
 -15577142.07344 -12138011.00544  22562372.1794   22562373.4214
  -3085088.93944  -2403963.68244  23763851.7084   23763853.1474
 -14055632.125 4 -10952438.896 4  21355381.457    21355380.792
 -25599062.35744 -19947286.82844  20746060.5414   20746061.4854
 -23921461.66944 -18640067.92544  20609610.9914   20609611.9584
 95  6 15  3 46  0.0000000  0  7G23G31G17G 9G28G21G 1
 -18271492.74644 -14237490.42744  21739918.7684   21739919.7854
  -4604008.17444  -3587538.13544  23042405.9864   23042407.9974
 -15497566.23044 -12076003.86344  22577514.9294   22577516.4224
  -3078825.01044  -2399082.69744  23765043.8104   23765044.4714
 -14031371.888 4 -10933534.841 4  21359997.962    21359997.344
 -25608471.53144 -19954618.64544  20744269.9814   20744270.7324
 -23968166.62144 -18676461.35644  20600723.3154   20600724.4584
 95  6 15  3 46 30.0000000  0  7G23G31G17G 9G28G21G 1
 -18226292.09444 -14202269.15244  21748520.0084   21748520.8244
  -4651601.90744  -3624624.14244  23033348.8634   23033349.5714
 -15417701.57144 -12013771.66544  22592712.6614   22592714.3874
  -3072032.63044  -2393789.90244  23766335.9454   23766337.6424
 -14006513.361 4 -10914164.586 4  21364728.391    21364727.798
 -25617709.18044 -19961816.79944  20742511.8594   20742512.6394
 -24014365.41644 -18712460.37844  20591932.0194   20591933.0904
 95  6 15  3 47  0.0000000  0  7G23G31G17G 9G21G28G 1
 -18180977.89144 -14166959.38844  21757143.1414   21757144.0914
  -4698656.49944  -3661290.02544  23024394.5414   23024395.8554
 -15337526.68044 -11951297.73644  22607969.6074   22607971.1494
  -3064716.79444  -2388089.25644  23767728.0704   23767729.1174
 -25626779.29144 -19968884.40244  20740786.1214   20740786.7584
 -13981059.276 4 -10894330.251 4  21369572.196    21369571.588
 -24060063.07344 -18748068.89844  20583235.9874   20583237.0584
 95  6 15  3 47 30.0000000  0  7G23G31G17G 9G21G28G 1
 -18135556.35344 -14131565.99844  21765786.5024   21765787.5194
  -4745215.95044  -3697570.07844  23015534.7404   23015536.1754
 -15257061.03244 -11888597.23544  22623281.4994   22623283.3334
  -3056882.71844  -2381984.77044  23769219.0014   23769220.9964
 -25635703.81944 -19975838.57444  20739087.5814   20739088.3594
 -13955029.949 4 -10874047.673 4  21374525.445    21374524.732
 -24105293.87644 -18783313.64144  20574628.8154   20574629.9604
 95  6 15  3 48  0.0000000  0  7G23G31G17G 9G21G28G 1
 -18090033.96144 -14096094.01244  21774449.2754   21774450.2124
  -4791299.51044  -3733479.32244  23006765.0424   23006766.1494
 -15176315.26344 -11825678.45544  22638647.2414   22638648.9054
  -3048538.66744  -2375482.89744  23770806.5964   23770809.4074
 -25644491.58344 -19982686.17544  20737415.3764   20737415.9684
 -13928439.176 4 -10853327.605 4  21379585.467    21379584.844
 -24150071.63844 -18818205.37444  20566107.8994   20566109.1114
 95  6 15  3 48 30.0000000  0  7G23G31G17G 9G21G28G 1
 -18044394.28244 -14060530.64144  21783134.1084   21783135.0754
  -4836889.68444  -3769004.11244  22998089.6864   22998090.6874
 -15095283.52744 -11762536.85844  22654067.3254   22654068.8384
  -3039690.47444  -2368588.19044  23772490.5004   23772491.8354
 -25653117.12544 -19989407.36244  20735773.9334   20735774.7864
 -13901281.568 4 -10832165.840 4  21384753.385    21384752.754
 -24194375.25744 -18852727.64444  20557677.0684   20557678.1274
 95  6 15  3 49  0.0000000  0  7G23G31G17G 9G21G28G 1
 -17998614.09644 -14024857.77744  21791846.0224   21791846.8244
  -4881956.39644  -3804120.99944  22989513.8534   22989514.1264
 -15013956.59644 -11699165.23544  22669543.1764   22669544.9034
  -3030307.53544  -2361276.81644  23774276.2554   23774276.9014
 -25661541.66344 -19995971.92044  20734170.8164   20734171.8144
 -13873540.760 4 -10810549.639 4  21390032.327    21390031.727
 -24238165.59844 -18886849.95644  20549344.0624   20549345.2174
 95  6 15  3 49 30.0000000  0  7G23G31G17G 9G21G28G 1
 -17952777.64144 -13989141.07444  21800568.2754   21800569.3074
  -4926540.57344  -3838861.90744  22981029.8614   22981030.4594
 -14932411.67144 -11635623.74344  22685060.4434   22685062.7314
  -3020435.17444  -2353584.05644  23776154.9414   23776157.2534
 -25669799.03244 -20002406.21544  20732599.3164   20732600.3114
 -13845275.738 4 -10788524.964 4  21395411.064    21395410.356
 -24281494.00844 -18920612.31844  20541098.9044   20541100.0294
 95  6 15  3 50  0.0000000  0  7G23G31G17G 9G21G28G 1
 -17906865.79644 -13953365.62544  21809304.7894   21809305.8004
  -4970604.29144  -3873197.24844  22972644.6164   22972647.2474
 -14850627.31944 -11571895.69344  22700623.1234   22700625.4404
  -3010054.52244  -2345495.21244  23778130.3374   23778131.8804
 -25677835.89044 -20008668.68144  20731070.2284   20731070.8334
 -13816455.741 4 -10766067.845 4  21400895.355    21400894.638
 -24324335.31144 -18953995.11344  20532946.4694   20532947.4624
 95  6 15  3 50 30.0000000  0  7G23G31G17G 9G21G28G 1
 -17860847.51544 -13917507.23544  21818062.0434   21818062.9714
  -5014102.61744  -3907092.03444  22964367.2424   22964368.1184
 -14768558.30844 -11507945.82244  22716240.2654   22716241.4614
  -2999119.89944  -2336974.74144  23780210.6914   23780211.4714
 -25685609.79544 -20014726.25044  20729590.7274   20729591.2894
 -13787037.462 4 -10743144.524 4  21406493.445    21406492.810
 -24366645.93244 -18986964.38644  20524894.9974   20524896.0684
 95  6 15  3 51  0.0000000  0  7G23G31G17G 9G21G28G 1
 -17814750.89744 -13881587.79744  21826833.9194   21826834.8334
  -5057053.22544  -3940560.03444  22956193.7274   22956194.8694
 -14686204.53644 -11443774.07144  22731911.7244   22731914.3384
  -2987624.05644  -2328016.93644  23782398.6694   23782400.2894
 -25693140.89044 -20020594.61844  20728157.9234   20728158.4954
 -13757030.543 4 -10719762.523 4  21412203.556    21412202.896
 -24408440.77244 -19019531.75244  20516941.6874   20516942.7184
 95  6 15  3 51 30.0000000  0  7G23G31G21G17G 9G28G 1
 -17768583.02844 -13845612.83544  21835619.3134   21835620.3444
  -5099478.84944  -3973618.96744  22948120.6384   22948122.3484
 -25700443.49644 -20026284.94544  20726767.7964   20726768.4744
 -14603576.27544 -11379388.43744  22747635.7474   22747638.1244
  -2975594.18944  -2318643.02644  23784687.7544   23784686.7444
 -13726446.037 4 -10695930.450 4  21418023.583    21418022.923
 -24449745.94844 -19051717.56144  20509081.5344   20509082.5614
 95  6 15  3 52  0.0000000  0  7G23G31G17G21G 9G28G 1
 -17722311.95944 -13809557.45944  21844424.2564   21844425.2494
  -5141378.40144  -4006267.97744  22940147.2044   22940148.5134
 -14520663.72244 -11314781.26144  22763413.6724   22763415.7544
 -25707546.87244 -20031820.03244  20725416.3064   20725417.2004
  -2963043.75944  -2308863.47144  23787076.1954   23787077.7124
 -13695282.391 4 -10671647.103 4  21423953.899    21423953.199
 -24490544.65644 -19083508.72144  20501317.7744   20501318.6994
 95  6 15  3 52 30.0000000  0  7G23G31G17G21G 9G28G 1
 -17675951.09544 -13773432.11544  21853246.4564   21853247.6424
  -5182753.05644  -4038507.98144  22932273.9254   22932277.0244
 -14437471.78444 -11249956.39944  22779244.8294   22779247.9134
 -25714492.26444 -20037232.00944  20724094.6134   20724095.3674
  -2949982.93144  -2298686.18844  23789561.2354   23789563.0654
 -13663553.544 4 -10646923.334 4  21429991.680    21429990.998
 -24530831.75544 -19114901.21644  20493651.2104   20493652.2114
 95  6 15  3 53  0.0000000  0  7G23G31G17G21G 9G28G 1
 -17629466.83044 -13737210.61744  21862092.1624   21862093.0744
  -5223589.94244  -4070328.94244  22924502.7964   22924503.7184
 -14354002.68644 -11184915.55344  22795128.2094   22795130.0304
 -25721255.37044 -20042501.94244  20722807.5894   20722808.1474
  -2936404.42944  -2288105.53044  23792145.4634   23792146.8144
 -13631249.425 4 -10621751.297 4  21436139.007    21436138.241
 -24570597.86644 -19145887.75644  20486083.9684   20486084.8834
 95  6 15  3 53 30.0000000  0  7G23G31G17G21G 9G28G 1
 -17582844.72544 -13700881.71344  21870964.1184   21870965.2054
  -5263873.70944  -4101718.90944  22916837.0774   22916838.5684
 -14270251.75044 -11119655.10744  22811065.5314   22811067.6264
 -25727836.75444 -20047630.27244  20721555.4934   20721556.0934
  -2922311.76944  -2277124.28144  23794827.3994   23794827.3214
 -13598367.684 4 -10596129.165 4  21442396.140    21442395.411
 -24609833.01244 -19176460.55744  20478617.8144   20478618.6944
 95  6 15  3 54  0.0000000  0  7G23G31G17G21G 9G28G 1
 -17536092.33444 -13664451.28144  21879860.8724   21879861.6654
  -5303592.25444  -4132668.45944  22909278.6344   22909280.7724
 -14186197.62044 -11054158.39844  22827060.4404   22827062.1854
 -25734245.64644 -20052624.19344  20720335.6814   20720336.3034
  -2907689.95944  -2265730.63944  23797609.5564   23797609.9534
 -13564906.744 4 -10570055.707 4  21448763.597    21448762.809
 -24648526.70844 -19206611.45344  20471254.6644   20471255.6994
 95  6 15  3 54 30.0000000  0  7G23G31G17G21G 9G28G 1
 -17489253.16844 -13627953.23344  21888773.8984   21888774.8404
  -5342783.74244  -4163207.29544  22901821.2504   22901822.9254
 -14101869.94644 -10988448.53244  22843107.0644   22843109.0834
 -25740483.15244 -20057484.57444  20719148.5774   20719149.2654
  -2892560.37844  -2253941.35944  23800488.5354   23800491.0094
 -13530896.077 4 -10543553.900 4  21455235.616    21455234.840
 -24686723.25944 -19236374.96144  20463986.0254   20463986.9284
 95  6 15  3 55  0.0000000  0  7G23G31G17G21G 9G28G 1
 -17442284.09544 -13591353.95544  21897711.8704   21897712.3724
  -5381430.99944  -4193322.05444  22894466.9334   22894468.7834
 -14017232.76044 -10922497.49244  22859213.4364   22859214.6724
 -25746492.47544 -20062167.14044  20718004.9014   20718005.7944
  -2876893.68444  -2241733.55444  23803469.5234   23803470.7244
 -13496305.067 4 -10516599.858 4  21461818.019    21461817.313
 -24724392.70644 -19265727.73944  20456817.6484   20456818.4834
 95  6 15  3 55 30.0000000  0  7G23G31G17G21G 9G28G 1
 -17395219.69644 -13554680.39844  21906668.0384   21906668.6574
  -5419553.43344  -4223027.85044  22887212.2114   22887213.9774
 -13932285.95644 -10856305.17544  22875377.8184   22875380.2184
 -25752314.48644 -20066703.75944  20716897.4624   20716898.2674
  -2860700.90744  -2229115.79444  23806551.2894   23806552.4314
 -13461151.893 4 -10489207.768 4  21468507.418    21468506.754
 -24761551.15444 -19294682.33844  20449746.6814   20449747.5694
 95  6 15  3 56  0.0000000  0  7G23G31G17G21G 9G28G 1
 -17348054.72844 -13517928.46744  21915643.0534   21915643.9924
  -5457160.33844  -4252331.90844  22880056.3734   22880057.4504
 -13847047.72844 -10789885.78544  22891598.3414   22891600.7574
 -25757936.75844 -20071084.73744  20715827.3184   20715828.0874
  -2843977.10744  -2216084.26644  23809733.6184   23809735.1604
 -13425436.153 4 -10461377.315 4  21475303.903    21475303.203
 -24798205.93244 -19323244.46844  20442771.5184   20442772.5334
 95  6 15  3 56 30.0000000  0  7G23G31G17G21G 9G28G 1
 -17300788.21144 -13481097.41444  21924637.8574   21924639.1054
  -5494258.87744  -4281239.87444  22872996.5814   22872997.9944
 -13761536.18544 -10723253.41144  22907870.7174   22907872.2814
 -25763352.95644 -20075305.14144  20714796.8004   20714797.4484
  -2826733.45244  -2202647.63344  23813014.9184   23813018.0544
 -13389165.635 4 -10433114.577 4  21482205.866    21482205.334
 -24834359.98144 -19351416.43044  20435891.5004   20435892.6284
 95  6 15  3 57  0.0000000  0  7G23G31G21G17G 9G28G 1
 -17253418.80044 -13444186.18844  21933651.6854   21933652.2704
  -5530834.53044  -4309740.38344  22866036.4404   22866036.9684
 -25768583.55644 -20079380.93044  20713801.3554   20713801.9904
 -13675751.02344 -10656407.82044  22924195.0854   22924197.2724
  -2808968.42844  -2188804.77344  23816395.1144   23816396.7464
 -13352341.104 4 -10404420.135 4  21489213.321    21489212.795
 -24869999.92544 -19379187.78644  20429109.5294   20429110.4414
 95  6 15  3 57 30.0000000  0  7G23G31G21G17G 9G28G 1
 -17205957.18544 -13407203.12144  21942683.4884   21942684.3464
  -5566871.62544  -4337821.17644  22859178.9844   22859180.2354
 -25773639.50344 -20083320.61944  20712839.3624   20712839.8444
 -13589701.81444 -10589356.48044  22940569.6494   22940571.5944
  -2790670.26944  -2174546.49044  23819877.2334   23819877.7554
 -13314962.849 4 -10375294.212 4  21496326.213    21496325.656
 -24905139.81844 -19406569.48544  20422422.7244   20422423.5884
 95  6 15  3 58  0.0000000  0  7G23G31G21G17G 9G28G 1
 -17158399.35844 -13370145.08144  21951733.3804   21951733.9314
  -5602358.31244  -4365473.12844  22852426.0004   22852428.1444
 -25778497.94744 -20087106.41544  20711914.8044   20711915.4384
 -13503399.08644 -10522107.59644  22956992.8104   22956994.4674
  -2771846.86744  -2159878.89944  23823459.4084   23823459.5204
 -13277030.608 4 -10345736.613 4  21503544.579    21503543.895
 -24939781.40044 -19433562.88644  20415830.4284   20415831.4744
 95  6 15  3 58 30.0000000  0  7G23G31G21G17G 9G28G 1
 -17110749.62644 -13333015.41044  21960800.9324   21960801.6464
  -5637271.27244  -4392678.01444  22845782.4554   22845782.9224
 -25783153.97644 -20090734.48444  20711028.6774   20711029.2014
 -13416824.24144 -10454646.66344  22973467.2174   22973469.8404
  -2752495.08744  -2144799.57644  23827142.1824   23827142.5704
 -13238538.142 4 -10315742.480 4  21510869.495    21510868.718
 -24973900.24944 -19460148.96244  20409337.7214   20409338.7324
 95  6 15  3 59  0.0000000  0  7G23G31G21G17G 9G28G 1
 -17063013.20044 -13295818.18044  21969884.8764   21969885.1854
  -5671611.80444  -4419436.85844  22839247.4814   22839248.9954
 -25787617.72944 -20094212.72644  20710179.0314   20710179.6464
 -13329986.29544 -10386980.69944  22989991.9454   22989993.7934
  -2732614.91244  -2129308.52244  23830925.4324   23830926.6014
 -13199492.794 4 -10285317.536 4  21518299.525    21518298.817
 -25007511.56144 -19486339.55244  20402941.5834   20402942.6584
 95  6 15  3 59 30.0000000  0  7G23G31G21G17G 9G28G 1
 -17015198.36144 -13258559.85244  21978983.6524   21978984.5334
  -5705385.78544  -4445754.23444  22832820.3104   22832822.0924
 -25791885.70344 -20097538.41344  20709367.2924   20709368.0034
 -13242891.91444 -10319114.93044  23006565.1754   23006567.2514
  -2712221.50744  -2113417.55344  23834805.9324   23834805.5654
 -13159909.170 4 -10254473.155 4  21525831.949    21525831.282
 -25040628.16944 -19512144.65544  20396639.7264   20396640.7574
 95  6 15  4  0  0.0000000  0  7G23G31G21G17G 9G28G 1
 -16967303.60644 -13221239.26644  21988097.7984   21988098.3084
  -5738596.15344  -4471632.41044  22826500.6254   22826501.7734
 -25795943.87944 -20100700.61944  20708594.7874   20708595.4464
 -13155534.51944 -10251044.21844  23023188.7944   23023189.8414
  -2691324.18644  -2097133.91544  23838782.6494   23838785.8534
 -13119790.820 4 -10223212.105 4  21533466.203    21533465.647
 -25073211.24844 -19537534.01844  20390439.4454   20390440.4104
 95  6 15  4  0 30.0000000  0  7G23G31G21G17G 9G28G 1
 -16919316.80544 -13183846.95244  21997229.5574   21997230.3464
  -5771250.53544  -4497077.36944  22820286.8794   22820287.9314
 -25799791.27744 -20103698.58844  20707862.5824   20707863.1464
 -13067910.77344 -10182765.97544  23039863.0174   23039865.5064
  -2669907.55244  -2080445.64544  23842857.9314   23842857.4284
 -13079133.668 4 -10191531.206 4  21541203.040    21541202.516
 -25105246.17744 -19562496.25644  20384343.3554   20384343.9974
 95  6 15  4  1  0.0000000  0  7G23G31G21G17G 9G28G 1
 -16871210.12044 -13146361.21344  22006383.6584   22006384.1784
  -5803350.02244  -4522089.93244  22814178.2374   22814180.0794
 -25803421.90944 -20106527.64944  20707172.0944   20707172.5504
 -12980013.16244 -10114274.31944  23056589.6844   23056592.8804
  -2647952.56044  -2063337.85544  23847035.7774   23847037.2834
 -13037932.256 4 -10159426.212 4  21549043.395    21549042.839
 -25136745.01044 -19587040.75844  20378349.2384   20378350.1304
 95  6 15  4  1 30.0000000  0  7G23G31G21G17G 9G28G 1
 -16822980.72844 -13108779.86744  22015561.6984   22015562.2694
  -5834889.40944  -4546666.05444  22808176.4034   22808177.9634
 -25806826.11144 -20109180.26144  20706524.4174   20706524.9834
 -12891837.21044 -10045565.77744  23073369.3284   23073371.4734
  -2625445.38444  -2045799.78544  23851319.0664   23851319.3794
 -12996177.322 4 -10126889.902 4  21556989.147    21556988.480
 -25167697.64644 -19611159.65144  20372459.0624   20372459.8234
 95  6 15  4  2  0.0000000  0  7G23G31G21G17G 9G28G 1
 -16774644.40944 -13071115.20544  22024759.6274   22024760.6234
  -5865889.97444  -4570822.31644  22802277.0404   22802277.3964
 -25810024.78644 -20111672.71744  20705915.2874   20705915.8634
 -12803405.93944  -9976658.27744  23090197.3264   23090198.7254
  -2602386.42244  -2027831.78544  23855706.9544   23855707.9394
 -12953875.231 4 -10093927.232 4  21565038.888    21565038.230
 -25198131.17744 -19634874.04944  20366667.7724   20366668.5304
 95  6 15  4  2 30.0000000  0  7G23G31G21G17G 9G28G 1
 -16726196.00344 -13033363.20144  22033979.2434   22033979.8484
  -5896358.68644  -4594564.15644  22796479.3534   22796481.3134
 -25813038.07044 -20114020.70844  20705341.4704   20705342.1964
 -12714727.32544  -9907558.05044  23107071.8444   23107073.6234
  -2578773.23844  -2009431.88144  23860200.2454   23860201.4164
 -12911030.018 4 -10060541.343 4  21573191.973    21573191.328
 -25228090.99044 -19658219.31744  20360966.5524   20360967.4714
 95  6 15  4  3  0.0000000  0  7G23G31G21G17G 9G28G 1
 -16677646.88644 -12995532.73044  22043217.5154   22043218.5484
  -5926279.67644  -4617879.21544  22790785.4254   22790787.3014
 -25815870.10944 -20116227.47244  20704802.8454   20704803.5064
 -12625793.03844  -9838258.60344  23123995.2344   23123997.6114
  -2554613.57744  -1990606.18444  23864797.7464   23864797.8464
 -12867642.419 4 -10026732.816 4  21581448.365    21581447.694
 -25257579.59344 -19681197.41144  20355355.0414   20355355.8224
 95  6 15  4  3 30.0000000  0  7G23G31G21G17G 9G28G 1
 -16629024.73544 -12957645.35044  22052470.0784   22052470.8264
  -5955653.46744  -4640767.88744  22785195.8824   22785198.7434
 -25818518.34444 -20118291.02244  20704299.0594   20704299.6584
 -12536613.67644  -9768768.18544  23140965.5364   23140968.1504
  -2529923.01844  -1971366.74144  23869496.2224   23869496.2524
 -12823719.562 4  -9992507.199 4  21589806.597    21589805.966
 -25286587.74944 -19703801.13844  20349834.9894   20349835.7314
 95  6 15  4  4  0.0000000  0  7G23G31G21G17G 9G28G 1
 -16580321.32244 -12919694.62544  22061738.1854   22061738.9044
  -5984474.10444  -4663225.54644  22779711.1994   22779715.4654
 -25820977.87944 -20120207.52744  20703831.0044   20703831.6254
 -12447183.34844  -9699082.18544  23157983.6864   23157985.7574
  -2504718.74244  -1951727.11044  23874292.3494   23874293.4394
 -12779268.409 4  -9957869.924 4  21598265.424    21598264.794
 -25315104.68444 -19726022.09344  20344408.3754   20344408.9654
 95  6 15  4  4 30.0000000  0  7G23G31G21G17G 9G28G 1
 -16531548.56044 -12881689.87444  22071019.2134   22071020.0964
  -6012752.97344  -4685261.05144  22774330.1154   22774332.3984
 -25823265.63344 -20121990.17244  20703395.7424   20703396.2884
 -12357513.14244  -9629209.30444  23175047.3294   23175049.4764
  -2479035.98444  -1931714.61744  23879179.9784   23879179.3244
 -12734317.379 4  -9922843.127 4  21606819.289    21606818.661
 -25343136.11344 -19747864.72844  20339074.1434   20339074.7404
 95  6 15  4  5  0.0000000  0  7G23G31G21G17G 9G28G 1
 -16482697.11744 -12843623.79744  22080315.3434   22080315.7174
  -6040463.30344  -4706854.01144  22769056.6734   22769057.1314
 -25825368.69144 -20123628.90344  20702995.2954   20702995.9324
 -12267588.25644  -9559137.94944  23192159.6284   23192161.8484
  -2452857.66644  -1911315.88544  23884161.1384   23884161.9944
 -12688855.390 4  -9887418.181 4  21615470.385    21615469.744
 -25370644.89044 -19769300.10144  20333839.4424   20333840.0424
 95  6 15  4  5 30.0000000  0  7G23G31G21G17G 9G28G 1
 -16433748.34544 -12805481.88244  22089630.0324   22089629.9944
  -6067592.72044  -4727994.90844  22763894.2644   22763895.3954
 -25827273.61344 -20125113.24344  20702632.8244   20702633.3764
 -12177403.10244  -9488863.78844  23209321.1314   23209322.5214
  -2426162.76344  -1890514.64244  23889240.9174   23889242.3064
 -12642873.326 4  -9851587.990 4  21624220.498    21624219.825
 -25397608.79344 -19790310.89944  20328708.3504   20328708.9434
 95  6 15  4  6  0.0000000  0  7G23G31G21G17G 9G28G 1
 -16384693.15244 -12767257.03944  22098964.8484   22098965.6454
  -6094143.52844  -4748686.12844  22758841.9654   22758842.4294
 -25829003.16044 -20126460.92744  20702304.0004   20702304.5364
 -12086959.54744  -9418388.28344  23226531.7464   23226532.8754
  -2398952.45244  -1869311.79244  23894419.1984   23894418.9854
 -12596379.912 4  -9815359.352 4  21633067.919    21633067.318
 -25424033.46344 -19810901.51644  20323679.7724   20323680.5494
 95  6 15  4  6 30.0000000  0  7G23G31G21G17G 9G28G 1
 -16335533.21644 -12728950.57144  22108319.5004   22108320.4294
  -6120116.32144  -4768929.68544  22753899.3104   22753899.8494
 -25830564.25344 -20127677.34644  20702006.3834   20702006.9044
 -11996260.56844  -9347713.74644  23243791.3804   23243792.9684
  -2371211.77844  -1847695.66144  23899697.6674   23899698.5104
 -12549370.788 4  -9778728.867 4  21642013.455    21642012.857
 -25449919.97544 -19831072.79044  20318753.7924   20318754.3494
 95  6 15  4  7  0.0000000  0  7G23G31G21G17G 9G28G 1
 -16286268.49744 -12690562.45744  22117694.1244   22117695.3594
  -6145502.10444  -4788720.39944  22749068.6544   22749069.2154
 -25831929.32744 -20128741.02544  20701746.9974   20701747.5864
 -11905301.05744  -9276836.21044  23261100.1834   23261102.3584
  -2342916.04944  -1825647.06444  23905082.4144   23905083.3564
 -12501831.840 4  -9741685.522 4  21651059.779    21651059.131
 -25475245.77244 -19850807.15244  20313934.4174   20313935.0254
 95  6 15  4  7 30.0000000  0  7G23G31G21G17G 9G28G 1
 -16236928.79944 -12652115.93644  22127083.1984   22127084.0914
  -6170335.10144  -4808077.45144  22744342.9374   22744343.5404
 -25833108.74844 -20129660.03244  20701522.4774   20701523.0914
 -11814112.96044  -9205780.52144  23278452.7584   23278455.7984
  -2314105.33644  -1803197.17644  23910565.0954   23910565.6034
 -12453789.241 4  -9704249.720 4  21660202.045    21660201.296
 -25500047.37944 -19870133.04444  20309214.7124   20309215.3114
 95  6 15  4  8  0.0000000  0  7G23G31G21G17G 9G28G 1
 -16187478.57744 -12613583.29244  22136493.3434   22136494.8504
  -6194608.00944  -4826991.35644  22739723.9314   22739724.6294
 -25834078.01244 -20130415.28244  20701337.7894   20701338.2444
 -11722672.92744  -9134528.56444  23295853.0894   23295855.6074
  -2284761.55644  -1780331.92944  23916149.0544   23916149.5884
 -12405220.051 4  -9666403.595 4  21669444.444    21669443.615
 -25524321.00044 -19889047.51844  20304595.5014   20304596.1764
 95  6 15  4  8 30.0000000  0  8G23G31G21G17G 9G25G28G 1
 -16137940.09944 -12574981.87044  22145920.1504   22145921.4384
  -6218346.29044  -4845482.93944  22735206.8344   22735207.5744
 -25834835.96144 -20131005.87644  20701193.5804   20701194.0324
 -11630996.19544  -9063092.13944  23313298.6714   23313299.9754
  -2254897.62944  -1757061.35044  23921831.9464   23921832.3954
        -0.01754                  25407544.2134
 -12356139.286 4  -9628158.839 4  21678784.182    21678783.414
 -25548084.12344 -19907564.20444  20300073.5344   20300074.1774
 95  6 15  4  9  0.0000000  0  8G23G31G21G17G 9G25G28G 1
 -16088334.75444 -12536328.34744  22155359.8884   22155360.8254
  -6241564.92044  -4863568.34644  22730788.4344   22730789.0944
 -25835400.34944 -20131445.64844  20701086.2564   20701086.7144
 -11539109.72344  -8991492.29244  23330783.9924   23330784.2054
  -2224536.18144  -1733403.14144  23927609.3514   23927608.3324
    -94201.20144                  25389618.5524
 -12306576.235 4  -9589538.272 4  21688215.717    21688215.034
 -25571365.69244 -19925705.64444  20295643.2294   20295643.8234
 95  6 15  4  9 30.0000000  0  8G23G31G21G17G 9G25G28G 1
 -16038620.92744 -12497590.29444  22164820.1764   22164820.8924
  -6264227.74444  -4881225.77844  22726476.1014   22726476.5274
 -25835764.27444 -20131729.21744  20701016.8734   20701017.3304
 -11446977.31144  -8919700.80044  23348315.9894   23348317.1724
  -2193654.06744  -1709339.17244  23933486.0614   23933487.9394
   -188556.02044   -146926.68544  25371662.7854
 -12256501.924 4  -9550519.324 4  21697744.523    21697743.849
 -25594156.22644 -19943464.46944  20291306.2454   20291306.9184
 95  6 15  4 10  0.0000000  0  8G23G31G21G17G 9G25G28G 1
 -15988795.11544 -12458764.97344  22174301.6704   22174302.1364
  -6286328.41144  -4898447.15644  22722270.3924   22722269.9904
 -25835929.15544 -20131857.68844  20700985.7124   20700986.2374
 -11354588.52444  -8847709.51944  23365897.2904   23365900.6884
  -2162240.09344  -1684860.74844  23939463.9134   23939465.3184
   -283046.49844   -220555.45644  25353681.9594
 -12205914.866 4  -9511100.830 4  21707370.946    21707370.303
 -25616441.57044 -19960829.63544  20287065.5934   20287066.2474
 95  6 15  4 10 30.0000000  0  8G23G31G21G17G 9G25G28G 1
 -15938872.60544 -12419864.30744  22183801.4854   22183802.0614
  -6307843.23844  -4915211.94544  22718175.8654   22718176.2184
 -25835889.59244 -20131826.85844  20700993.2084   20700993.8064
 -11261945.64844  -8775520.24344  23383526.9194   23383530.0854
  -2130296.66544  -1659969.57544  23945541.9814   23945542.3284
   -377670.98544                  25335675.1334
 -12154817.098 4  -9471284.383 4  21717094.493    21717093.850
 -25638206.89044 -19977789.59344  20282923.7074   20282924.3424
 95  6 15  4 11  0.0000000  0  8G23G31G21G17G 9G25G28G 1
 -15888858.23544 -12380892.05844  22193318.7864   22193319.9694
  -6328782.01444  -4931527.87844  22714191.6564   22714192.1604
 -25835670.38744 -20131656.04244  20701034.5444   20701035.2574
 -11169059.17144  -8703141.16944  23401202.6504   23401204.8274
  -2097857.13244  -1634691.89744  23951715.4914   23951716.0334
   -472453.92644   -368145.33744  25317638.6024
 -12103226.758 4  -9431084.117 4  21726911.827    21726911.199
 -25659473.97544 -19994361.31844  20278876.6564   20278877.3254
 95  6 15  4 11 30.0000000  0  8G23G31G21G17G 9G25G28G 1
 -15838749.66844 -12341846.41244  22202854.0934   22202855.1004
  -6349161.25844  -4947407.79344  22710313.3754   22710314.3504
 -25835266.69844 -20131341.47544  20701111.3214   20701111.9154
 -11075918.02244  -8630563.63944  23418926.6804   23418928.7274
  -2064926.18844  -1609031.31244  23957981.5934   23957982.9404
   -567394.04044   -442124.47544  25299572.3184   25299572.9264
 -12051142.931 4  -9390499.307 4  21736823.012    21736822.394
 -25680242.35844 -20010544.44744  20274924.6004   20274925.1484
 95  6 15  4 12  0.0000000  0  8G23G31G21G17G 9G25G28G 1
 -15788539.96544 -12302721.95344  22212408.7224   22212410.0804
  -6368990.80644  -4962859.37444  22706539.9824   22706541.6504
 -25834662.82044 -20130870.92444  20701226.5824   20701227.0714
 -10982515.01444  -8557782.05744  23436700.7194   23436702.2604
  -2031491.05844  -1582977.92744  23964344.3024   23964346.9644
   -662490.26544   -516225.27544  25281476.0474
 -11998565.849 4  -9349530.150 4  21746828.095    21746827.481
 -25700486.96444 -20026319.44144  20271072.1944   20271072.7664
 95  6 15  4 12 30.0000000  0  8G23G31G21G17G 9G25G28G 1
 -15738224.57144 -12263515.14944  22221983.5254   22221984.0744
  -6388270.61044  -4977882.57544  22702871.0864   22702873.2524
 -25833874.86444 -20130256.93544  20701376.3854   20701377.0044
 -10888857.48144  -8484802.14144  23454523.1844   23454525.4154
  -1997552.85544  -1556532.56044  23970802.7104   23970804.4304
   -757748.81344   -590452.54944  25263348.7554
 -11945502.336 4  -9308181.955 4  21756925.676    21756925.183
 -25720222.35744 -20041697.64844  20267316.6854   20267317.2304
 95  6 15  4 13  0.0000000  0  8G23G31G21G17G 9G25G28G 1
 -15687790.19744 -12224215.64244  22231580.8434   22231581.5144
  -6406997.99444  -4992475.33044  22699307.2234   22699308.2434
 -25832892.25244 -20129491.25044  20701563.2444   20701563.8144
 -10794934.00244  -8411615.00544  23472396.2134   23472397.8974
  -1963083.41444  -1529673.26244  23977361.7504   23977364.1724
   -853155.70944   -664795.44344  25245193.2514
 -11891942.790 4  -9266447.241 4  21767117.766    21767117.236
 -25739446.13744 -20056677.19044  20263658.3394   20263658.8734
 95  6 15  4 13 30.0000000  0  8G23G31G21G17G 9G25G28G 1
 -15637257.32144 -12184839.39544  22241197.0464   22241197.6264
  -6425174.04544  -5006638.45944  22695848.6284   22695849.4794
 -25831714.56044 -20128573.56344  20701787.6494   20701788.2484
 -10700769.32144  -8338239.91044  23490314.9194   23490317.0704
  -1928077.47044  -1502395.88244  23984023.3264   23984025.2334
   -948719.10844   -739260.34244  25227007.4824
 -11837900.206 4  -9224336.132 4  21777401.677    21777401.052
 -25758157.28944 -20071257.27844  20260097.8504   20260098.4484
 95  6 15  4 14  0.0000000  0  8G23G31G21G17G 9G25G28G 1
 -15586624.57344 -12145385.30844  22250832.0794   22250833.0244
  -6442779.53244  -5020357.01544  22692498.2784   22692500.2134
 -25830351.85544 -20127511.71544  20702046.8804   20702047.2704
 -10606371.70644  -8264683.30044  23508278.3864   23508279.8254
  -1892535.48944  -1474700.80944  23990786.6774   23990785.7284
  -1044445.84744   -813852.45244  25208791.2914
 -11783380.633 4  -9181853.346 4  21787776.442    21787775.734
 -25776351.53744 -20085434.58744  20256635.5284   20256635.9064
 95  6 15  4 14 30.0000000  0  8G23G31G21G17G 9G25G28G 1
 -15535889.73644 -12105851.68444  22260486.6764   22260487.1304
  -6459794.82444  -5033615.67544  22689260.1564   22689260.6124
 -25828795.05144 -20126298.61744  20702343.6214   20702344.1484
 -10511755.52544  -8190956.39544  23526283.4664   23526285.0594
  -1856465.56744  -1446594.41744  23997650.5874   23997650.6594
  -1140335.42644   -888571.43244  25190543.9814
 -11728384.199 4  -9138998.978 4  21798241.958    21798241.233
 -25794039.38344 -20099217.30144  20253269.6484   20253270.1574
 95  6 15  4 15  0.0000000  0  8G23G31G21G17G 9G25G28G 1
 -15485062.12044 -12066245.77344  22270158.8094   22270159.6834
  -6476229.03844  -5046421.52344  22686132.9324   22686134.5864
 -25827029.89044 -20124923.16544  20702679.1574   20702679.5024
 -10416932.21444  -8117068.07944  23544327.2844   23544328.8124
  -1819882.46944  -1418088.07844  24004612.0904   24004613.8384
  -1236390.96444   -963419.77244  25172264.9964
 -11672922.573 4  -9095782.116 4  21808795.924    21808795.274
 -25811214.08544 -20112600.15644  20250001.3654   20250001.8004
 95  6 15  4 15 30.0000000  0  8G23G31G21G17G 9G25G28G 1
 -15434125.27344 -12026554.74944  22279851.7164   22279852.5884
  -6492069.54144  -5058764.76244  22683118.5894   22683120.0914
 -25825054.10444 -20123383.59144  20703054.9584   20703055.4934
 -10321879.38444  -8043000.95644  23562415.5564   23562417.1924
  -1782793.56944  -1389187.64644  24011669.5674   24011672.1854
  -1332590.95344  -1038380.74644  25153959.3324
 -11616986.093 4  -9052195.239 4  21819440.203    21819439.699
 -25827851.96344 -20125564.70244  20246835.3384   20246835.7794
 95  6 15  4 16  0.0000000  0  8G23G31G21G17G 9G25G28G 1
 -15383101.43544 -11986795.93444  22289561.2934   22289561.6844
  -6507343.08444  -5070666.20544  22680212.1614   22680213.1654
 -25822896.38144 -20121702.24744  20703465.7044   20703466.2454
 -10226611.34544  -7968766.06544  23580544.1104   23580545.3294
  -1745218.18844  -1359908.13844  24018820.0204   24018820.3334
  -1428934.90244  -1113453.86244  25135625.7934   25135625.9134
 -11560591.975 4  -9008251.767 4  21830171.611    21830171.163
 -25843970.94844 -20138124.91544  20243767.9044   20243768.4434
 95  6 15  4 16 30.0000000  0  7G23G31G21G17G25G28G 1
 -15331987.38344 -11946966.81044  22299287.7364   22299288.7034
  -6522044.14944  -5082121.56244  22677414.8064   22677416.0514
 -25820538.50644 -20119864.93344  20703914.3724   20703914.9024
 -10131120.98044  -7894357.97744  23598715.6734   23598716.8484
  -1525393.70144  -1188616.42544  25117269.8474
 -11503724.236 4  -8963939.236 4  21840993.192    21840992.804
 -25859561.06044 -20150273.02744  20240801.1084   20240801.6034
 95  6 15  4 17  0.0000000  0  7G23G31G21G17G25G28G 1
 -15280826.29744 -11907101.03244  22309023.5304   22309024.2334
  -6536208.35944  -5093158.58644  22674719.3494   22674720.0864
 -25818021.56644 -20117903.66544  20704393.5334   20704394.0624
 -10035423.60644  -7819788.57344  23616926.4484   23616928.8114
  -1621984.34344  -1263881.75744  25098889.1774
 -11446405.258 4  -8919275.107 4  21851900.635    21851900.214
 -25874646.05044 -20162027.53744  20237930.5604   20237931.0754
 95  6 15  4 17 30.0000000  0  7G23G31G21G17G25G28G 1
 -15229641.88444 -11867217.08544  22318763.7624   22318764.3054
  -6549859.40544  -5103795.75044  22672121.5904   22672123.0064
 -25815383.73644 -20115848.20644  20704895.3514   20704895.9124
  -9939537.74044  -7745072.28744  23635172.4154   23635174.8074
  -1718725.25844  -1339264.20044  25080479.8364   25080480.0914
 -11388652.745 4  -8874273.165 4  21862890.547    21862890.131
 -25889255.82344 -20173411.75144  20235150.4134   20235150.9754
 95  6 15  4 18  0.0000000  0  7G23G31G21G17G25G28G 1
 -15178384.22444 -11827276.05744  22328517.8434   22328518.7274
  -6562945.09044  -5113992.36644  22669631.2894   22669632.3704
 -25812565.71744 -20113652.33944  20705431.5674   20705432.0444
  -9843427.51744  -7670181.18944  23653461.4674   23653463.0484
  -1815572.10344  -1414729.17144  25062050.2874   25062049.2114
 -11330419.075 4  -8828896.297 4  21873972.095    21873971.609
 -25903350.42144 -20184394.53444  20232468.2454   20232468.8574
 95  6 15  4 18 30.0000000  0  7G23G31G21G17G25G28G 1
 -15127041.89044 -11787269.05144  22338288.0204   22338288.5874
  -6575446.75744  -5123733.91344  22667252.7294   22667253.3034
 -25809550.82244 -20111303.06644  20706005.3544   20706005.9834
  -9747082.97144  -7595107.50244  23671795.4024   23671798.3444
  -1912537.63344  -1490286.60944  25043598.2634   25043601.7144
 -11271698.285 4  -8783139.843 4  21885146.372    21885145.773
 -25916926.24944 -20194973.07844  20229884.8534   20229885.3894
 95  6 15  4 19  0.0000000  0  7G23G31G21G17G25G28G 1
 -15075622.81744 -11747202.25044  22348072.3434   22348072.9814
  -6587374.08644  -5133027.92144  22664982.8584   22664983.5134
 -25806344.11844 -20108804.35044  20706615.3924   20706615.9614
  -9650509.78744  -7519855.67244  23690172.3434   23690174.4554
  -2009635.67744  -1565947.40044  25025120.7714
 -11212506.090 4  -8737016.065 4  21896410.236    21896409.609
 -25929988.39144 -20205151.34744  20227399.1534   20227399.6084
 95  6 15  4 19 30.0000000  0  7G23G31G21G17G25G28G 1
 -15024100.08844 -11707054.67744  22357877.2214   22357878.6074
  -6598719.81444  -5141868.73144  22662823.8804   22662825.0504
 -25802928.44544 -20106142.79544  20707265.4644   20707265.9634
  -9553701.70644  -7444420.79644  23708594.5014   23708596.0654
  -2106866.24844                  25006618.7674
 -11152850.113 4  -8690530.905 4  21907762.421    21907761.868
 -25942532.02844 -20214925.58644  20225012.1104   20225012.7384
 95  6 15  4 20  0.0000000  0  7G23G31G21G17G25G28G 1
 -14972487.48344 -11666837.06944  22367698.3094   22367699.1344
  -6609490.26644  -5150261.26644  22660774.1424   22660775.5604
 -25799306.19244 -20103320.26144  20707954.6454   20707955.1404
  -9456665.90144  -7368808.43544  23727060.0774   23727060.1884
  -2204234.00644  -1717582.20444  24988089.8774
 -11092745.420 4  -8643696.083 4  21919199.859    21919199.413
 -25954556.73344 -20224295.45644  20222723.9084   20222724.4124
 95  6 15  4 20 30.0000000  0  7G23G31G21G17G25G28G 1
 -14920760.08044 -11626529.99744  22377542.0074   22377542.6504
  -6619676.26644  -5158198.38344  22658835.7644   22658836.2224
 -25795454.27844 -20100318.76844  20708687.5364   20708688.0324
  -9359372.23444  -7292995.19044  23745574.6944   23745576.4544
  -2301711.99244  -1793539.00244  24969540.6884   24969542.3404
 -11032173.642 4  -8596497.309 4  21930726.344    21930725.796
 -25966035.20544 -20233239.68744  20220539.5374   20220540.0204
 95  6 15  4 21  0.0000000  0  7G23G31G21G17G25G28G 1
 -14868906.37944 -11586124.50944  22387409.2954   22387409.7304
  -6629288.87844  -5165688.72044  22657006.6094   22657008.3414
 -25791378.78544 -20097143.05044  20709463.1554   20709463.6394
  -9261824.13344  -7216983.69444  23764137.1044   23764139.3204
  -2399278.85144  -1869565.02044  24950974.1034   24950975.7174
 -10971141.009 4  -8548939.408 4  21942340.566    21942339.968
 -25976963.96744 -20241755.57644  20218459.9014   20218460.2774
 95  6 15  4 21 30.0000000  0  7G23G31G21G17G25G28G 1
 -14816924.99544 -11545619.51644  22397301.1804   22397301.2844
  -6638327.87344  -5172732.06944  22655286.5024   22655287.8764
 -25787085.81144 -20093797.86744  20710280.0074   20710280.6134
  -9164026.98944  -7140778.11844  23782747.4514   23782748.9454
  -2496917.18444  -1945646.80344  24932394.1634
 -10909649.221 4  -8501023.747 4  21954042.089    21954041.553
 -25987352.87644 -20249850.79844  20216482.9514   20216483.4004
 95  6 15  4 22  0.0000000  0  7G23G31G21G17G25G28G 1
 -14764847.45944 -11505039.61144  22407211.2064   22407211.8484
  -6646806.94244  -5179339.13244  22653672.9234   22653674.1594
 -25782590.66444 -20090295.14844  20711135.5934   20711136.0684
  -9066020.71944  -7064409.59744  23801397.3524   23801396.2564
  -2594637.53844  -2021792.45944  24913798.6064   24913800.5094
 -10847714.071 4  -8452762.594 4  21965828.020    21965827.373
 -25997228.05044 -20257545.71044  20214603.7714   20214604.1344
 95  6 15  4 22 30.0000000  0  7G23G31G21G17G25G28G 1
 -14712686.22344 -11464394.49844  22417137.3484   22417137.5944
  -6654741.45744  -5185521.85444  22652163.0034   22652164.1434
 -25777903.40044 -20086642.72844  20712027.6744   20712028.1614
  -8967844.06744  -6987908.32244  23820079.5924   23820081.8634
  -2692474.37344  -2098028.87944  24895180.7954
 -10785363.240 4  -8404177.558 4  21977692.951    21977692.371
 -26006628.53744 -20264870.73144  20212814.9184   20212815.2444
 95  6 15  4 23  0.0000000  0  7G23G31G21G17G25G28G 1
 -14660400.36444 -11423652.26744  22427086.7124   22427087.6074
  -6662067.38244  -5191230.36344  22650768.7694   22650769.6314
 -25772984.04044 -20082809.45444  20712963.6264   20712964.3114
  -8869457.93544  -6911243.77644  23838801.7744   23838803.2574
  -2790383.84844  -2174321.93344  24876549.5614   24876547.5794
 -10722557.955 4  -8355238.396 4  21989644.424    21989643.899
 -26015523.80244 -20271802.06744  20211122.1544   20211122.4964
 95  6 15  4 23 30.0000000  0  7G23G31G21G17G25G28G 1
 -14608019.20344 -11382835.77144  22437054.7744   22437055.4744
  -6668800.75944  -5196477.14844  22649487.4654   22649487.9304
 -25767858.57144 -20078815.57644  20713938.7784   20713939.2094
  -8770888.56644  -6834436.49344  23857559.0144   23857560.5284
  -2888399.62944  -2250697.79344  24857897.3234   24857897.3754
 -10659323.648 4  -8305964.920 4  22001677.570    22001676.927
 -26023942.91644 -20278362.38444  20209520.0324   20209520.4564
 95  6 15  4 24  0.0000000  0  7G23G31G21G17G25G28G 1
 -14555545.49544 -11341947.16744  22447040.0494   22447040.9104
  -6674944.71444  -5201264.64944  22648318.4764   22648319.3034
 -25762530.64744 -20074663.93944  20714952.9134   20714953.3504
  -8672128.77044  -6757480.79544  23876352.4164   23876352.5004
  -2986544.79744  -2327174.48844  24839221.2904   24839220.5174
 -10595664.947 4  -8256360.744 4  22013791.425    22013790.743
 -26031873.20744 -20284541.80044  20208010.9334   20208011.2554
 95  6 15  4 24 30.0000000  0  7G23G31G21G17G25G28G 1
 -14502982.62844 -11300989.08744  22457042.2904   22457043.5194
  -6680518.69344  -5205608.00344  22647257.7194   22647258.4094
 -25757023.57344 -20070372.70644  20716000.7854   20716001.2844
  -8573167.10644  -6680367.83244  23895184.1824   23895185.1004
  -3084831.06244  -2403761.15144  24820517.9414   24820518.7334
 -10531593.020 4  -8206434.581 4  22025983.946    22025983.350
 -26039309.06544 -20290335.94544  20206595.8654   20206596.2534
 95  6 15  4 25  0.0000000  0  7G23G31G21G17G25G28G 1
 -14450341.70544 -11259970.18144  22467059.6724   22467059.9204
  -6685540.21644  -5209520.87144  22646302.3144   22646303.0774
 -25751364.47644 -20065963.00644  20717077.3034   20717077.9094
  -8473989.66144  -6603086.68744  23914057.1994   23914058.5824
  -3183233.89244  -2480438.67844  24801792.4574   24801791.4174
 -10467108.125 4  -8156186.635 4  22038255.067    22038254.429
 -26046241.82744 -20295738.06944  20205276.6564   20205276.9824
 95  6 15  4 25 30.0000000  0  7G23G31G21G17G25G28G 1
 -14397634.01944 -11218899.26144  22477089.2934   22477089.7254
  -6690038.33644  -5213025.89944  22645446.3644   22645447.9974
 -25745559.80144 -20061439.85844  20718182.0524   20718182.6404
  -8374610.03844  -6525648.01944  23932968.1484   23932969.5684
  -3281764.83544  -2557216.03044  24783042.6134   24783045.7384
 -10402216.107 4  -8105621.435 4  22050603.516    22050603.020
 -26052663.98544 -20300742.31844  20204054.5524   20204054.9644
 95  6 15  4 26  0.0000000  0  7G23G31G21G17G25G28G 1
 -14344855.95244 -11177773.48844  22487132.4524   22487133.3494
  -6694019.93144  -5216128.43244  22644688.7324   22644689.6344
 -25739594.79744 -20056791.77844  20719317.2554   20719317.6924
  -8275023.14344  -6448047.84244  23951919.2914   23951919.1464
  -3380427.87744  -2634096.24544  24764268.0014   24764270.1024
 -10336919.732 4  -8054741.152 4  22063028.858    22063028.427
 -26058584.71744 -20305355.84644  20202927.8394   20202928.2184
 95  6 15  4 26 30.0000000  0  7G23G31G21G17G25G28G 1
 -14291979.67944 -11136571.21044  22497194.6384   22497195.2384
  -6697459.79044  -5218808.83544  22644034.1614   22644034.2844
 -25733444.22344 -20051999.09644  20720487.4484   20720487.8404
  -8175227.92544  -6370285.33144  23970909.4094   23970910.3654
  -3479189.68044  -2711053.45844  24745473.8404   24745476.4914
 -10271206.863 4  -8003536.320 4  22075533.628    22075533.090
 -26064003.90144 -20309578.55744  20201896.5984   20201896.9894
 95  6 15  4 27  0.0000000  0  7G23G31G21G17G25G28G 1
 -14238996.10144 -11095285.30344  22507277.4654   22507278.0784
  -6700338.05044  -5221051.61744  22643486.7964   22643487.2414
 -25727086.65444 -20047045.11944  20721697.3714   20721697.7854
  -8075231.17044  -6292365.79844  23989937.8394   23989937.2964
  -3578038.43844  -2788078.42244  24726663.4754   24726663.4044
 -10205073.826 4  -7952004.095 4  22088118.466    22088117.815
 -26068917.65944 -20313407.43044  20200961.5034   20200961.8474
 95  6 15  4 27 30.0000000  0  7G23G31G21G17G25G28G 1
 -14185886.34544 -11053901.08444  22517383.4954   22517384.6104
  -6702633.08544  -5222839.93544  22643049.5674   22643050.5584
 -25720487.66444 -20041903.03344  20722953.3124   20722953.8714
  -7975031.28044  -6214287.94644  24009005.5164   24009007.6524
  -3676987.25144  -2865181.35444  24707834.1554   24707834.6064
 -10138519.606 4  -7900143.656 4  22100783.338    22100782.613
 -26073325.83144 -20316842.34144  20200122.5584   20200123.0214
 95  6 15  4 28  0.0000000  0  7G23G31G21G17G25G28G 1
 -14132642.57644 -11012412.44444  22527515.8214   22527516.6014
  -6704316.28444  -5224151.50744  22642729.3074   22642730.0244
 -25713636.31144 -20036564.30044  20724256.6534   20724257.1614
  -7874618.03244  -6136043.83744  24028113.3364   24028115.1534
  -3776010.24744  -2942342.11144  24688990.8954   24688991.3714
 -10071541.393 4  -7847952.831 4  22113528.840    22113528.160
 -26077231.68444 -20319885.84144  20199379.2934   20199379.7094
 95  6 15  4 28 30.0000000  0  7G23G31G21G17G25G28G 1
 -14079294.48144 -10970842.51044  22537667.4334   22537668.1804
  -6705397.81244  -5224994.24244  22642523.3164   22642524.2584
 -25706563.66544 -20031053.12844  20725602.6954   20725603.0984
  -7774014.48244  -6057651.42544  24047257.9044   24047259.5044
  -3875106.73144  -3019560.09244  24670132.7794   24670136.3944
 -10004157.212 4  -7795445.677 4  22126351.662    22126350.949
 -26080637.83844 -20322539.96544  20198731.1444   20198731.4594
 95  6 15  4 29  0.0000000  0  7G23G31G21G17G25G28G 1
 -14025870.24644 -10929213.23144  22547833.8924   22547834.4774
  -6705910.11044  -5225393.41844  22642425.9174   22642427.0944
 -25699293.00544 -20025387.66144  20726986.2754   20726986.6924
  -7673229.44044  -5979117.62044  24066436.4304   24066435.9384
  -3974289.78244  -3096845.54644  24651259.0804   24651259.4334
  -9936380.267 4  -7742632.464 4  22139249.104    22139248.478
 -26083557.31744 -20324814.86244  20198175.5484   20198175.9574
 95  6 15  4 29 30.0000000  0  7G23G31G21G17G25G28G 1
 -13972372.01944 -10887526.30344  22558014.1504   22558014.0614
  -6705862.30944  -5225356.14344  22642435.0594   22642436.2584
 -25691833.02144 -20019574.67244  20728405.8534   20728406.3924
  -7572259.37244  -5900439.62544  24085650.0564   24085653.2554
  -4073546.60944  -3174188.46244  24632371.4624   24632370.7824
  -9868212.393 4  -7689514.623 4  22152221.102    22152220.205
 -26086003.17144 -20326720.69644  20197710.1224   20197710.5494
 95  6 15  4 30  0.0000000  0  7G23G31G21G17G25G28G 1
 -13918814.77544 -10845793.39344  22568206.0454   22568206.4284
  -6705273.14344  -5224897.02844  22642547.1934   22642547.9644
 -25684209.50944 -20013634.26144  20729856.6294   20729856.9914
  -7471114.64744  -5821625.53344  24104897.4604   24104902.3284
  -4172862.30644  -3251577.28044  24613471.4794   24613471.8964
  -9799662.519 4  -7636099.127 4  22165265.588    22165264.839
 -26087981.52644 -20328262.25044  20197333.5154   20197333.7854
 95  6 15  4 30 30.0000000  0  7G23G31G21G17G25G28G 1
 -13865195.42944 -10804012.08544  22578409.0684   22578410.3974
  -6704165.13544  -5224033.59644  22642758.0254   22642758.7374
 -25676423.66244 -20007567.36544  20731338.5494   20731338.9594
  -7369798.80644  -5742678.11044  24124177.8074   24124178.0384
  -4272238.82944  -3329013.47244  24594561.2014   24594559.7044
  -9730735.808 4  -7582389.998 4  22178381.890    22178381.184
 -26089488.05044 -20329436.14744  20197046.7774   20197047.1004
 95  6 15  4 31  0.0000000  0  7G23G31G21G17G25G28G 1
 -13811502.92644 -10762173.79444  22588626.4474   22588627.2114
  -6702543.64044  -5222770.07344  22643066.5494   22643067.0294
 -25668467.32544 -20001367.61044  20732852.4574   20732852.9424
  -7268310.72644  -5663596.46144  24143490.0504   24143492.8874
  -4371670.76344  -3406492.86544  24575639.6544   24575640.0994
  -9661435.405 4  -7528389.693 4  22191569.389    22191568.590
 -26090531.42044 -20330249.14244  20196848.3564   20196848.7194
 95  6 15  4 31 30.0000000  0  7G23G31G21G17G25G28G 1
 -13757715.61244 -10720261.60044  22598861.9604   22598862.9034
  -6700369.22144  -5221075.71444  22643480.0984   22643481.0204
 -25660313.24144 -19995013.76344  20734403.9914   20734404.5244
  -7166630.65244  -5584365.26744  24162838.7164   24162839.2374
  -4471136.16244  -3483998.33444  24556712.3404   24556714.6424
  -9591750.433 4  -7474089.718 4  22204829.972    22204829.316
 -26091088.84944 -20330683.48244  20196742.3174   20196742.7494
 95  6 15  4 32  0.0000000  0  7G23G31G21G17G25G28G 1
 -13703826.77644 -10678270.31444  22609116.5274   22609117.0414
  -6697634.05044  -5218944.38944  22644000.5004   22644001.1194
 -25651949.76544 -19988496.74844  20735995.4094   20735995.7924
  -7064754.42844  -5504981.16944  24182225.3214   24182226.7684
  -4570640.47744  -3561534.10744  24537777.0144   24537778.8034
  -9521676.441 4  -7419486.597 4  22218164.490    22218164.029
 -26091143.99944 -20330726.43944  20196731.7744   20196732.0314
 95  6 15  4 32 30.0000000  0  7G23G31G21G17G25G28G 1
 -13649848.56044 -10636209.38544  22619388.1334   22619389.0444
  -6694350.12044  -5216385.45044  22644625.6484   22644626.1144
 -25643381.82444 -19981820.40744  20737625.6064   20737626.1864
  -6962705.40844  -5425462.42944  24201644.3784   24201643.8964
  -4670209.77444  -3639120.50544  24518829.7914   24518830.4174
  -9451228.628 4  -7364592.202 4  22231570.255    22231569.723
 -26090706.33544 -20330385.38644  20196815.0814   20196815.3504
 95  6 15  4 33  0.0000000  0  7G23G31G21G17G25G28G 1
 -13595781.97044 -10594079.57744  22629677.1584   22629677.7154
  -6690501.46544  -5213386.48844  22645357.9574   22645359.1794
 -25634608.24644 -19974983.83144  20739295.3714   20739295.8944
  -6860482.64344  -5345808.31044  24221096.8984   24221098.3854
  -4769850.23644  -3716762.36844  24499869.0214   24499869.7774
  -9380406.938 4  -7309406.465 4  22245047.240    22245046.655
 -26089771.54344 -20329656.96244  20196992.8844   20196993.2614
 95  6 15  4 33 30.0000000  0  7G23G31G21G17G25G28G 1
 -13541628.49844 -10551882.09144  22639981.8444   22639983.2514
  -6686094.13844  -5209952.19444  22646196.5044   22646197.4784
 -25625618.70544 -19967978.98344  20741006.0674   20741006.5964
  -6758077.76844  -5266012.27744  24240583.9224   24240582.8544
  -4869577.26644  -3794471.70944  24480891.3364   24480889.0204
  -9309208.697 4  -7253927.295 4  22258595.865    22258595.193
 -26088322.12544 -20328527.53344  20197268.7404   20197269.0704
 95  6 15  4 34  0.0000000  0  7G23G31G21G17G25G28G 1
 -13487394.48944 -10509621.85844  22650302.5834   22650303.6234
  -6681159.76344  -5206107.21844  22647135.3164   22647136.9544
 -25616425.92744 -19960815.77344  20742755.6674   20742755.8364
  -6655498.51544  -5186080.36844  24260103.8444   24260103.6744
  -4969408.04144  -3872261.87744  24461894.2954   24461897.6214
  -9237644.740 4  -7198163.139 4  22272213.997    22272213.311
 -26086362.97644 -20327000.90944  20197641.4984   20197641.8774
 95  6 15  4 34 30.0000000  0  7G23G31G21G17G25G28G 1
 -13433053.75244 -10467278.45344  22660643.0364   22660644.5574
  -6675677.72444  -5201835.49944  22648178.7004   22648179.7594
 -25607014.26044 -19953481.99444  20744546.5224   20744546.9174
  -6552716.00844  -5105990.09744  24279662.7394   24279663.9584
  -5069308.69044  -3950106.49044  24442883.7584   24442885.0424
  -9165700.009 4  -7142102.294 4  22285904.712    22285903.969
 -26083875.13344 -20325062.31444  20198114.8114   20198115.1074
 95  6 15  4 35  0.0000000  0  7G23G31G21G17G25G28G 1
 -13378594.58044 -10424842.77444  22671006.7214   22671007.1384
  -6669640.38444  -5197131.06044  22649327.4834   22649328.6484
 -25597382.32344 -19945976.57944  20746378.9964   20746379.5224
  -6449711.50944  -5025726.82244  24299263.9934   24299268.5494
  -5169263.73744  -4027993.51444  24423862.8224   24423866.0484
  -9093370.549 4  -7085741.671 4  22299668.470    22299667.796
 -26080848.54744 -20322703.92944  20198690.8354   20198691.2154
 95  6 15  4 35 30.0000000  0  7G23G31G21G17G25G28G 1
 -13324009.42844 -10382308.90444  22681393.3574   22681394.2224
  -6663045.18644  -5191991.92344  22650582.4344   22650582.8984
 -25587533.42244 -19938302.11744  20748253.4274   20748253.6744
  -6346488.43444  -4945293.25844  24318906.9184   24318911.9924
  -5269255.73544  -4105909.32144  24404834.8704   24404834.1514
  -9020654.385 4  -7029079.718 4  22313505.874    22313505.159
 -26077292.96244 -20319933.33744  20199367.4844   20199367.8454
 95  6 15  4 36  0.0000000  0  7G23G31G21G17G25G28G 1
 -13269290.78544 -10339671.01144  22691806.3124   22691807.2214
  -6655871.49844  -5186402.02244  22651947.9134   22651948.6724
 -25577489.00344 -19930475.29644  20750164.7934   20750165.3804
  -6243072.48444  -4864709.37744  24338586.3454   24338587.8114
  -5369256.94744  -4183832.28544  24385805.0484   24385805.3144
  -8947557.813 4  -6972121.344 4  22327415.718    22327414.967
 -26073232.26544 -20316769.15144  20200140.1544   20200140.4564
 95  6 15  4 36 30.0000000  0  7G23G31G21G17G25G28G 1
 -13214440.51344 -10296930.55344  22702244.3274   22702245.0804
  -6648110.69444  -5180354.63444  22653424.6854   22653425.2794
 -25567249.17844 -19922496.20244  20752113.2284   20752113.7784
  -6139480.50444  -4783988.33844  24358299.4164   24358299.6344
  -5469248.38644  -4261747.66344  24366777.3864   24366778.8544
  -8874081.449 4  -6914867.041 4  22341397.778    22341397.022
 -26068685.58744 -20313226.27644  20201005.3154   20201005.5864
 95  6 15  4 37  0.0000000  0  7G23G31G21G17G25G28G 1
 -13159477.54544 -10254102.26644  22712702.9284   22712703.7134
  -6639746.79844  -5173837.32444  22655016.2714   22655016.7084
 -25556811.73444 -19914363.12844  20754099.3194   20754099.6654
  -6035725.36244  -4703140.16244  24378043.1514   24378045.2934
  -5569238.91644  -4339662.31544  24347749.5534   24347749.5594
  -8800225.642 4  -6857317.065 4  22355452.081    22355451.309
 -26063666.04744 -20309314.94144  20201960.5754   20201960.9584
 95  6 15  4 37 30.0000000  0  7G23G31G21G17G25G28G 1
 -13104427.76044 -10211206.33644  22723178.8394   22723180.0124
  -6630801.07244  -5166866.63944  22656718.4964   22656718.5724
 -25546195.66544 -19906090.86844  20756119.7704   20756120.3814
  -5931832.40944  -4622184.61144  24397812.8434   24397814.5354
  -5669249.66244  -4417592.77044  24328718.5034   24328720.2624
  -8726019.585 4  -6799494.165 4  22369572.991    22369572.269
 -26058218.00444 -20305069.70944  20202997.3574   20202997.5984
 95  6 15  4 38  0.0000000  0  7G23G31G21G17G25G28G 1
 -13049292.82344 -10168244.02744  22733670.3504   22733670.9844
  -6621300.16344  -5159463.33044  22658526.4214   22658527.7434
 -25535406.53644 -19897683.75344  20758173.0134   20758173.4784
  -5827796.78744  -4541117.84444  24417610.4684   24417610.3864
  -5769291.46344  -4495547.36644  24309681.1894   24309682.1874
  -8651482.158 4  -6741413.049 4  22383756.916    22383756.302
 -26052345.04044 -20300493.37144  20204114.8524   20204115.1644
 95  6 15  4 38 30.0000000  0  7G23G31G21G17G25G28G 1
 -12994079.53244 -10125220.66744  22744177.1254   22744177.7194
  -6611256.35544  -5151636.98044  22660437.8214   22660439.5734
 -25524419.98944 -19889122.78844  20760263.5384   20760264.0024
  -5723591.98144  -4459919.29544  24437439.9794   24437440.6404
  -5869378.80444  -4573537.44744  24290635.1414   24290635.4334
  -8576614.863 4  -6683074.886 4  22398003.706    22398003.043
 -26046039.15044 -20295579.69544  20205314.7784   20205315.0054
 95  6 15  4 39  0.0000000  0  7G23G31G21G17G25G28G 1
 -12938781.86444 -10082131.55544  22754699.7054   22754700.5094
  -6600669.35944  -5143387.38544  22662452.1164   22662453.3554
 -25513234.52544 -19880406.81944  20762391.7184   20762392.1504
  -5619201.12744  -4378575.76244  24457304.6264   24457306.8284
  -5969518.09944  -4651568.04244  24271579.2614   24271578.4634
  -8501423.603 4  -6624484.278 4  22412312.057    22412311.420
 -26039280.17844 -20290312.96844  20206601.0064   20206601.2804
 95  6 15  4 39 30.0000000  0  7G23G31G21G17G25G28G 1
 -12883394.11744 -10038972.25044  22765239.6014   22765240.1384
  -6589585.83244  -5134751.04344  22664561.4704   22664562.1094
 -25501858.09444 -19871542.06044  20764556.6754   20764557.0494
  -5514642.34344  -4297101.35844  24477201.6074   24477202.5184
  -6069706.33044  -4729636.76144  24252514.0704   24252512.8974
  -8425928.133 4  -6565656.638 4  22426678.400    22426677.731
 -26032075.38544 -20284698.83744  20207972.1134   20207972.4594
 95  6 15  4 40  0.0000000  0  7G23G31G21G17G25G28G 1
 -12827933.60544  -9995756.23844  22775793.8404   22775795.2864
  -6578012.78144  -5125732.84244  22666763.8454   22666764.2224
 -25490286.03444 -19862524.86144  20766758.6984   20766759.1434
  -5409936.93144  -4215512.68744  24497126.8164   24497128.4564
  -6169944.18844  -4807744.15344  24233439.1364   24233437.2334
  -8350133.791 4  -6506596.111 4  22441101.675    22441100.892
 -26024410.78344 -20278726.41344  20209430.5914   20209430.9604
 95  6 15  4 40 30.0000000  0  7G23G31G21G17G25G28G 1
 -12772424.16044  -9952502.13544  22786357.0224   22786356.9944
  -6565934.99744  -5116321.62644  22669062.3134   22669063.1944
 -25478518.45544 -19853355.30644  20768998.2494   20768998.6194
  -5305106.28244  -4133826.46444  24517075.2764   24517077.9564
  -6270233.58144  -4885891.72044  24214354.8214   24214355.2344
  -8274041.354 4  -6447303.303 4  22455581.546    22455580.846
 -26016292.35044 -20272400.35444  20210975.3974   20210975.7854
 95  6 15  4 41  0.0000000  0  7G23G31G21G17G25G28G 1
 -12716842.19944  -9909191.50844  22796933.9484   22796934.7644
  -6553332.98144  -5106501.87844  22671460.3474   22671461.5234
 -25466555.79144 -19844033.74544  20771274.5344   20771274.8464
  -5200143.76644  -4052037.41244  24537048.4434   24537050.5184
  -6370539.44744  -4964052.10744  24195267.0514   24195267.3114
  -8197630.951 4  -6387762.728 4  22470121.992    22470121.447
 -26007688.36644 -20265695.94544  20212612.7044   20212613.0214
 95  6 15  4 41 30.0000000  0  7G23G31G21G17G25G28G 1
 -12661194.93944  -9865829.98844  22807522.8974   22807523.7774
  -6540212.93744  -5096278.47444  22673956.7884   22673957.3724
 -25454403.18544 -19834564.17744  20773587.2344   20773587.6524
  -5095066.38444  -3970158.92644  24557044.1924   24557046.3544
  -6470864.59244  -5042227.48944  24176176.1874   24176178.3894
  -8120909.364 4  -6327979.657 4  22484721.555    22484720.991
 -25998609.30644 -20258621.34944  20214340.3884   20214340.6724
 95  6 15  4 42  0.0000000  0  7G23G31G21G17G25G28G 1
 -12605453.26244  -9822394.91244  22818130.0954   22818131.1104
  -6526516.90744  -5085606.23744  22676563.1244   22676564.6364
 -25442037.03244 -19824928.21044  20775940.3684   20775940.7114
  -4989833.81344  -3888159.50344  24577069.1594   24577070.8334
  -6571187.23544  -5120400.94244  24157085.1544   24157085.8664
  -8043848.176 4  -6267931.972 4  22499385.840    22499385.145
 -25989020.67244 -20251149.67844  20216165.0254   20216165.5164
 95  6 15  4 42 30.0000000  0  7G23G31G21G17G25G28G 1
 -12549592.42044  -9778866.96944  22828760.0104   22828761.4414
  -6512244.99944  -5074485.26644  22679279.1904   22679280.3354
 -25429479.22144 -19815142.90944  20778330.1034   20778330.6374
  -4884438.08444  -3806032.93144  24597125.2174   24597126.7724
  -6671519.06544  -5198581.55444  24137992.7074   24137992.5504
  -7966451.643 4  -6207622.981 4  22514113.886    22514113.152
 -25978936.28644 -20243291.69844  20218083.9504   20218084.4044
 95  6 15  4 43  0.0000000  0  7G23G31G21G17G25G28G 1
 -12493615.02444  -9735248.23044  22839412.2314   22839413.1584
  -6497421.46744  -5062934.48044  22682099.7724   22682099.4504
 -25416733.70544 -19805211.34344  20780755.3974   20780755.7944
  -4778888.02744  -3723786.08844  24617211.0684   24617209.5224
  -6771868.73944  -5276776.10544  24118896.7074   24118896.0214
  -7888736.152 4  -6147065.466 4  22528902.621    22528901.911
 -25968367.32544 -20235056.13144  20220095.1754   20220095.5244
 95  6 15  4 43 30.0000000  0  7G23G31G21G17G25G28G 1
 -12437516.21944  -9691534.87944  22850087.6224   22850087.2464
  -6482041.58644  -5050950.16144  22685026.5044   22685027.5714
 -25403774.81144 -19795113.51644  20783221.4094   20783221.8874
  -4673176.32344  -3641413.33744  24637327.3164   24637329.6494
  -6872230.92644  -5354980.35444  24099798.5704   24099799.1404
  -7810697.494 4  -6086256.129 4  22543752.865    22543752.253
 -25957318.01144 -20226446.27344  20222197.8864   20222198.2344
 95  6 15  4 44  0.0000000  0  7G23G31G21G17G25G28G 1
 -12381307.94344  -9647736.22744  22860783.7614   22860785.3564
  -6466116.98844  -5038541.37144  22688056.9634   22688058.0044
 -25390604.63344 -19784851.04744  20785727.6694   20785727.9794
  -4567309.75044  -3558919.88544  24657472.5844   24657474.0504
  -6972605.89244  -5433194.58944  24080697.4974   24080698.5244
  -7732342.433 4  -6025200.246 4  22558663.414    22558662.827
 -25945799.21444 -20217470.57044  20224389.7264   20224390.0834
 95  6 15  4 44 30.0000000  0  7G23G31G21G17G25G28G 1
 -12325003.15844  -9603862.38444  22871498.1894   22871498.8414
  -6449675.61444  -5025729.92044  22691185.5584   22691185.8774
 -25377215.19144 -19774417.72544  20788275.7964   20788276.0954
  -4461295.73644  -3476311.48344  24677647.1694   24677651.1294
  -7072983.49344  -5511410.87844  24061596.0704   24061595.5494
  -7653675.502 4  -5963901.329 4  22573633.192    22573632.562
 -25933813.85444 -20208131.31044  20226670.4874   20226670.8274
 95  6 15  4 45  0.0000000  0  7G23G31G21G17G25G28G 1
 -12268633.30244  -9559937.83644  22882225.0374   22882226.0054
  -6432734.19844  -5012528.82544  22694409.2344   22694409.9974
 -25363599.90344 -19763808.39944  20790866.6544   20790866.9224
  -4355147.47444  -3393598.53144  24697846.0734   24697846.6694
  -7173360.39644  -5589626.64244  24042495.2724   24042495.9054
  -7574712.359 4  -5902371.603 4  22588659.254    22588658.731
 -25921363.06944 -20198429.37744  20229039.6994   20229040.1144
 95  6 15  4 45 30.0000000  0  7G23G31G21G17G25G28G 1
 -12212168.67044  -9515939.45444  22892969.8334   22892971.1334
  -6415269.81244  -4998920.22544  22697732.6794   22697733.0524
 -25349763.83044 -19753027.04144  20793499.3334   20793499.6944
  -4248856.19444  -3310774.12944  24718072.4984   24718076.7984
  -7273730.76844  -5667837.30744  24023395.2274   24023395.6024
  -7495444.612 4  -5840604.529 4  22603743.495    22603742.754
 -25908442.99044 -20188361.76744  20231498.2924   20231498.6274
 95  6 15  4 46  0.0000000  0  7G23G31G21G17G25G28G 1
 -12155578.87444  -9471843.53344  22903738.7094   22903739.6534
  -6397270.57344  -4984894.85244  22701157.8844   22701159.2144
 -25335703.29244 -19742070.79044  20796175.2654   20796175.6614
  -4142411.23144  -3227829.98644  24738328.1974   24738328.6894
  -7374084.23844  -5746034.79644  24004298.5444   24004298.9154
  -7415865.410 4  -5778594.784 4  22618886.911    22618886.140
 -25895044.86044 -20177921.65344  20234047.9254   20234048.2714
 95  6 15  4 46 30.0000000  0  7G23G31G21G17G25G28G 1
 -12098856.57244  -9427644.36444  22914532.7974   22914533.7144
  -6378725.80944  -4970444.38744  22704686.9474   22704687.5874
 -25321417.08144 -19730938.67744  20798893.6104   20798894.0334
  -4035807.24544  -3144761.93044  24758614.4384
  -7474426.51244  -5824223.55944  23985204.1954   23985205.9984
  -7335977.292 4  -5716344.325 4  22634088.949    22634088.449
 -25881170.42144 -20167110.38644  20236688.1274   20236688.4304
 95  6 15  4 47  0.0000000  0  7G23G31G21G17G25G28G 1
 -12041995.20644  -9383336.82744  22925353.0974   22925354.4524
  -6359620.56244  -4955557.18644  22708322.1614   22708322.6594
 -25306923.76744 -19719645.20744  20801651.7954   20801652.3064
  -3929049.29044  -3061573.86544  24778929.9894
  -7574764.39544  -5902408.92944  23966110.4754   23966110.2934
  -7255788.109 4  -5653859.265 4  22649348.581    22649348.000
 -25866838.27544 -20155942.45544  20239415.4564   20239415.7184
 95  6 15  4 47 30.0000000  0  7G23G31G21G17G25G28G 1
 -11985007.37444  -9338930.73244  22936197.5814   22936198.9504
  -6339978.12044  -4940251.39844  22712060.2214   22712061.6324
 -25292246.16844 -19708208.09544  20804444.5934   20804445.0954
  -3822161.31844  -2978284.49544  24799270.0254
  -7675097.35944  -5980590.44144  23947017.4894   23947018.8994
  -7175318.299 4  -5591155.533 4  22664661.647    22664660.979
 -25852079.43344 -20144442.05744  20242223.9534   20242224.2544
 95  6 15  4 48  0.0000000  0  7G23G31G21G17G25G28G 1
 -11927927.44644  -9294452.87044  22947058.8994   22947060.3644
  -6319813.09544  -4924538.41544  22715897.6904   22715898.1634
 -25277373.71944 -19696619.15544  20807274.7794   20807275.3224
  -3715146.51844  -2894896.29644  24819634.1764
  -7775405.22244  -6058752.40644  23927929.8964   23927930.1394
  -7094574.469 4  -5528238.275 4  22680026.620    22680026.210
 -25836891.17144 -20132607.03544  20245114.1424   20245114.4464
 95  6 15  4 48 30.0000000  0  7G23G31G21G17G25G28G 1
 -11870788.28544  -9249928.84844  22957932.7774   22957933.2894
  -6299122.63144  -4908415.96444  22719834.9154   22719836.1414
 -25262313.42444 -19684883.85444  20810140.4484   20810140.8564
  -3608015.73144  -2811417.69544  24840020.7214   24840020.3604
  -7875683.90844  -6136891.62244  23908847.3484   23908848.0564
  -7013567.042 4  -5465115.621 4  22695441.925    22695441.372
 -25821283.12544 -20120444.91144  20248084.3234   20248084.4004
 95  6 15  4 49  0.0000000  0  7G23G31G21G17G25G28G 1
 -11813587.89544  -9205357.11844  22968817.2594   22968818.6024
  -6277921.15444  -4891895.32144  22723869.3274   22723870.6744
 -25247069.60044 -19673005.54444  20813041.5754   20813042.1894
  -3500778.78444  -2727856.41544  24860426.7594
  -7975912.60344  -6214991.89844  23889774.4954   23889775.0734
  -6932303.173 4  -5401793.143 4  22710905.982    22710905.307
 -25805265.60144 -20107963.71144  20251132.3964   20251132.6724
 95  6 15  4 49 30.0000000  0  7G23G31G21G17G25G28G 1
 -11756322.91644  -9160735.04244  22979714.6724   22979715.5774
  -6256218.87844  -4874984.45444  22727999.0474   22728000.3634
 -25231621.48544 -19660968.06144  20815981.0964   20815981.4474
  -3393431.30044  -2644208.95744  24880854.3894
  -8076079.99844  -6293044.39544  23870713.1944   23870714.1294
  -6850776.940 4  -5338266.213 4  22726419.937    22726419.178
 -25788815.47544 -20095145.42244  20254262.6924   20254262.8294
 95  6 15  4 50  0.0000000  0  7G23G31G21G17G25G28G 1
 -11698992.72144  -9116062.16544  22990623.6244   22990624.3864
  -6234013.98644  -4857681.94944  22732224.4384   22732225.4044
 -25215985.64644 -19648784.29244  20818956.4614   20818956.8724
  -3285965.12944  -2560469.02944  24901304.5104
  -8176224.54344  -6371079.08844  23851656.5894   23851656.7514
  -6768996.341 4  -5274541.084 4  22741982.222    22741981.474
 -25771935.49744 -20081992.18244  20257474.8514   20257475.0884
 95  6 15  4 50 30.0000000  0  7G23G31G21G17G25G28G 1
 -11641564.44944  -9071312.85144  23001552.5774   23001554.1184
  -6211309.10044  -4839989.85644  22736545.0244   22736545.5004
 -25200158.86144 -19636451.73744  20821968.3104   20821968.7144
  -3178364.98544  -2476624.73944  24921780.1054
  -8276353.87144  -6449101.93944  23832602.4404   23832602.7394
  -6686954.401 4  -5210612.311 4  22757594.373    22757593.634
 -25754620.01344 -20068499.57044  20260769.8304   20260770.0294
 95  6 15  4 51  0.0000000  0  7G23G31G21G17G25G28G 1
 -11584032.93744  -9026483.09444  23012500.0244   23012499.8674
  -6188131.61544  -4821929.48844  22740955.7934   22740957.1534
 -25184143.87944 -19623972.53644  20825015.7734   20825015.9744
  -3070637.87144  -2392681.43944  24942279.8134
  -8376480.57644  -6527122.71344  23813549.1134   23813548.5324
  -6604664.752 4  -5146490.515 4  22773253.652    22773252.725
 -25736868.70044 -20054667.35244  20264147.7244   20264147.9694
 95  6 15  4 51 30.0000000  0  8G23G31G21G17G15G25G28G 1
 -11526396.76444  -8981571.79144  23023467.9784   23023469.5114
  -6164462.86444  -4803486.30644  22745459.6044   22745460.5514
 -25167925.53844 -19611334.87844  20828102.0964   20828102.3754
  -2962770.88244  -2308629.22244  24962806.4374
        -0.24454         0.42154  23762729.4614   23762729.8604
  -8476614.80144  -6605149.37244  23794494.3494   23794494.3054
  -6522118.274 4  -5082168.583 4  22788961.748    22788960.793
 -25718656.51544 -20040476.02844  20267613.3334   20267613.5424
 95  6 15  4 52  0.0000000  0  8G23G31G21G17G15G25G28G 1
 -11468645.38244  -8936570.69444  23034457.4134   23034457.8554
  -6140282.13744  -4784644.17844  22750061.3644   22750061.5314
 -25151500.95844 -19598536.51144  20831227.7144   20831227.8724
  -2854762.45144                  24983359.3664
   -103998.49944    -81037.14944  23742939.1554   23742940.7264
  -8576747.18844  -6683174.58244  23775439.2434   23775438.8224
  -6439314.258 4  -5017645.979 4  22804718.693    22804717.854
 -25699987.42444 -20025928.67044  20271166.0104   20271166.1054
 95  6 15  4 52 30.0000000  0  8G23G31G21G17G15G25G28G 1
 -11410785.73144  -8891485.24244  23045468.1884   23045468.2854
  -6115585.79844  -4765400.28244  22754761.0834   22754761.2304
 -25134851.50744 -19585562.91044  20834395.6554   20834396.1794
  -2746627.31944  -2140205.55444  25003936.7744
   -207888.75244   -161990.61544  23723169.5324   23723172.1934
  -8676845.04144  -6761172.90444  23756391.5494   23756391.3064
  -6356252.451 4  -4952922.505 4  22820524.827    22820524.093
 -25680860.88644 -20011024.85344  20274805.7194   20274805.9264
